[[{"header":{"parameterUnit":"m.s-1","parameterCategory":1,"la1":31.0,"la2":29.5877,"lo1":-88.7671,"lo2":-86.6584,"dy":0.0162,"dx":0.0185,"nx":115,"ny":88,"refTime":"2024-08-24T06:00:00:Z","depth":0,"parameterNumber":2,"parameterNumberName":"U-component_of_WINDS"},"data":[0.0,0.0,0.0,0.0,0.0,0.0,0.0,0.0,0.0,0.0,0.0,0.0,0.0,0.0,0.0,0.0,0.0,0.0,0.0,0.0,0.0,0.0,0.0,0.0,0.0,0.0,0.0,0.0,0.0,0.0,0.0,0.0,0.0,0.0,0.0,0.0,0.0,0.0,0.0,0.0,0.0,0.0,0.0,0.0,0.0,0.0,0.0,0.0,0.0,0.0,0.0,0.0,0.0,0.0,0.0,0.0,0.0,0.0,0.0,0.0,0.0,0.0,0.0,0.0,0.0,0.0,0.0,0.0,0.0,0.0,0.0,0.0,0.0,0.0,0.0,0.0,0.0,0.0,0.0,0.0,0.0,0.0,0.0,0.0,0.0,0.0,0.0,0.0,0.0,0.0,0.0,0.0,0.0,0.0,0.0,0.0,0.0,0.0,0.0,0.0,0.0,0.0,0.0,0.0,0.0,0.0,0.0,0.0,0.0,0.0,0.0,0.0,0.0,0.0,0.0,0.0,0.0,0.0,0.0,0.0,0.0,0.0,0.0,0.0,0.0,0.0,0.0,0.0,0.0,0.0,0.0,0.0,0.0,0.0,0.0,0.0,0.0,0.0,0.0,0.0,0.0,0.0,0.0,0.0,0.0,0.0,0.0,0.0,0.0,0.0,0.0,0.0,0.0,0.0,0.0,0.0,0.0,0.0,0.0,0.0,0.0,0.0,0.0,0.0,0.0,0.0,0.0,0.0,0.0,0.0,0.0,0.0,0.0,0.0,0.0,0.0,0.0,0.0,0.0,0.0,0.0,0.0,0.0,0.0,0.0,0.0,0.0,0.0,0.0,0.0,0.0,0.0,0.0,0.0,0.0,0.0,0.0,0.0,0.0,0.0,0.0,0.0,0.0,0.0,0.0,0.0,0.0,0.0,0.0,0.0,0.0,0.0,0.0,0.0,0.0,0.0,0.0,0.0,0.0,0.0,0.0,0.0,0.0,0.0,0.0,0.0,0.0,0.0,0.0,0.0,0.0,0.0,0.0,0.0,0.0,0.0,0.0,0.0,0.0,0.0,0.0,0.0,0.0,0.0,0.0,0.0,0.0,0.0,0.0,0.0,0.0,0.0,0.0,0.0,0.0,0.0,0.0,0.0,0.0,0.0,0.0,0.0,0.0,0.0,0.0,0.0,0.0,0.0,0.0,0.0,0.0,0.0,0.0,0.0,0.0,0.0,0.0,0.0,0.0,0.0,0.0,0.0,0.0,0.0,0.0,0.0,0.0,0.0,0.0,0.0,0.0,0.0,0.0,0.0,0.0,0.0,0.0,0.0,0.0,0.0,0.0,0.0,0.0,0.0,0.0,0.0,0.0,0.0,0.0,0.0,0.0,0.0,0.0,0.0,0.0,0.0,0.0,0.0,0.0,0.0,0.0,0.0,0.0,0.0,0.0,0.0,0.0,0.0,0.0,0.0,0.0,0.0,0.0,0.0,0.0,0.0,0.0,0.0,0.0,0.0,0.0,0.0,0.0,0.0,0.0,0.0,0.0,0.0,0.0,0.0,0.0,0.0,0.0,0.0,0.0,0.0,0.0,0.0,0.0,0.0,0.0,0.0,0.0,0.0,0.0,0.0,0.0,0.0,0.0,0.0,0.0,0.0,0.0,0.0,0.0,0.0,0.0,0.0,0.0,0.0,0.0,0.0,0.0,0.0,0.0,0.0,0.0,0.0,0.0,0.0,0.0,0.0,0.0,0.0,0.0,0.0,0.0,0.0,0.0,0.0,0.0,0.0,0.0,0.0,0.0,0.0,0.0,0.0,0.0,0.0,0.0,0.0,0.0,0.0,0.0,0.0,0.0,0.0,0.0,0.0,0.0,0.0,0.0,0.0,0.0,0.0,0.0,0.0,0.0,0.0,0.0,0.0,0.0,0.0,0.0,0.0,0.0,0.0,0.0,0.0,0.0,0.0,0.0,0.0,0.0,0.0,0.0,0.0,0.0,0.0,0.0,0.0,0.0,0.0,0.0,0.0,0.0,0.0,0.0,0.0,0.0,0.0,0.0,0.0,0.0,0.0,0.0,0.0,0.0,0.0,0.0,0.0,0.0,0.0,0.0,0.0,0.0,0.0,0.0,0.0,0.0,0.0,0.0,0.0,0.0,0.0,0.0,0.0,0.0,0.0,0.0,0.0,0.0,0.0,0.0,0.0,0.0,0.0,0.0,0.0,0.0,0.0,0.0,0.0,0.0,0.0,0.0,0.0,0.0,0.0,0.0,0.0,0.0,0.0,0.0,0.0,0.0,0.0,0.0,0.0,0.0,0.0,0.0,0.0,0.0,0.0,0.0,0.0,0.0,0.0,0.0,0.0,0.0,0.0,0.0,0.0,0.0,0.0,0.0,0.0,0.0,0.0,0.0,0.0,0.0,0.0,0.0,0.0,0.0,0.0,0.0,0.0,0.0,0.0,0.0,0.0,0.0,0.0,0.0,0.0,0.0,0.0,0.0,0.0,0.0,0.0,0.0,0.0,0.0,0.0,0.0,0.0,0.0,0.0,0.0,0.0,0.0,0.0,0.0,0.0,0.0,0.0,0.0,0.0,0.0,0.0,0.0,0.0,0.0,0.0,0.0,0.0,0.0,0.0,0.0,0.0,0.0,0.0,0.0,0.0,0.0,0.0,0.0,0.0,0.0,0.0,0.0,0.0,0.0,0.0,0.0,0.0,0.0,0.0,0.0,0.0,0.0,0.0,0.0,0.0,0.0,0.0,0.0,0.0,0.0,0.0,0.0,0.0,0.0,0.0,0.0,0.0,0.0,0.0,0.0,0.0,0.0,0.0,0.0,0.0,0.0,0.0,0.0,0.0,0.0,0.0,0.0,0.0,0.0,0.0,0.0,0.0,0.0,0.0,0.0,0.0,0.0,0.0,0.0,0.0,0.0,0.0,0.0,0.0,0.0,0.0,0.0,0.0,0.0,0.0,0.0,0.0,0.0,0.0,0.0,0.0,0.0,0.0,0.0,0.0,0.0,0.0,0.0,0.0,0.0,0.0,0.0,0.0,0.0,0.0,0.0,0.0,0.0,0.0,0.0,0.0,0.0,0.0,0.0,0.0,0.0,0.0,0.0,0.0,0.0,0.0,0.0,0.0,0.0,0.0,0.0,0.0,0.0,0.0,0.0,0.0,0.0,0.0,0.0,0.0,0.0,0.0,0.0,0.0,0.0,0.0,0.0,0.0,0.0,0.0,0.0,0.0,0.0,0.0,0.0,0.0,0.0,0.0,0.0,0.0,0.0,0.0,0.0,0.0,0.0,0.0,0.0,0.0,0.0,0.0,0.0,0.0,0.0,0.0,0.0,0.0,0.0,0.0,0.0,0.0,0.0,0.0,0.0,0.0,0.0,0.0,0.0,0.0,0.0,0.0,0.0,0.0,0.0,0.0,0.0,0.0,0.0,0.0,0.0,0.0,0.0,0.0,0.0,0.0,0.0,0.0,0.0,0.0,0.0,0.0,0.0,0.0,0.0,0.0,0.0,0.0,0.0,0.0,0.0,0.0,0.0,0.0,0.0,0.0,0.0,0.0,0.0,0.0,0.0,0.0,0.0,0.0,0.0,0.0,0.0,0.0,0.0,0.0,0.0,0.0,0.0,0.0,0.0,0.0,0.0,0.0,0.0,0.0,0.0,0.0,0.0,0.0,0.0,0.0,0.0,0.0,0.0,0.0,0.0,0.0,0.0,0.0,0.0,0.0,0.0,0.0,0.0,0.0,0.0,0.0,0.0,0.0,0.0,0.0,0.0,0.0,0.0,0.0,0.0,0.0,0.0,0.0,0.0,0.0,0.0,0.0,0.0,0.0,0.0,0.0,0.0,0.0,0.0,0.0,0.0,0.0,0.0,0.0,0.0,0.0,0.0,0.0,0.0,0.0,0.0,0.0,0.0,0.0,0.0,0.0,0.0,0.0,0.0,0.0,0.0,0.0,0.0,0.0,0.0,0.0,0.0,0.0,0.0,0.0,0.0,0.0,0.0,0.0,0.0,0.0,0.0,0.0,0.0,0.0,0.0,0.0,0.0,0.0,0.0,0.0,0.0,0.0,0.0,0.0,0.0,0.0,0.0,0.0,0.0,0.0,0.0,0.0,0.0,0.0,0.0,0.0,0.0,0.0,0.0,0.0,0.0,0.0,0.0,0.0,0.0,0.0,0.0,0.0,0.0,0.0,0.0,0.0,0.0,0.0,0.0,0.0,0.0,0.0,0.0,0.0,0.0,0.0,0.0,0.0,0.0,0.0,-0.7965,0.0,0.0,0.0,0.0,0.0,0.0,0.0,0.0,0.0,0.0,0.0,0.0,0.0,0.0,0.0,0.0,0.0,0.0,0.0,0.0,0.0,0.0,0.0,0.0,0.0,0.0,0.0,0.0,0.0,0.0,0.0,0.0,0.0,0.0,0.0,0.0,0.0,0.0,0.0,0.0,0.0,0.0,0.0,0.0,0.0,0.0,0.0,0.0,0.0,0.0,0.0,0.0,0.0,0.0,0.0,0.0,0.0,0.0,0.0,0.0,0.0,0.0,0.0,0.0,0.0,0.0,0.0,0.0,0.0,0.0,0.0,0.0,0.0,0.0,0.0,0.0,0.0,0.0,0.0,0.0,0.0,0.0,0.0,0.0,0.0,0.0,0.0,0.0,0.0,0.0,0.0,0.0,0.0,0.0,0.0,0.0,0.0,0.0,0.0,0.0,0.0,0.0,0.0,0.0,0.0,0.0,0.0,0.0,0.0,0.0,-0.5467,-0.5812,-0.6527,-0.7275,-0.7974,0.0,0.0,0.0,0.0,0.0,0.0,0.0,0.0,0.0,0.0,0.0,0.0,0.0,0.0,0.0,0.0,0.0,0.0,0.0,0.0,0.0,0.0,0.0,0.0,0.0,0.0,0.0,0.0,0.0,0.0,0.0,0.0,0.0,0.0,0.0,0.0,0.0,0.0,0.0,0.0,0.0,0.0,0.0,0.0,0.0,0.0,0.0,0.0,0.0,0.0,0.0,0.0,0.0,0.0,0.0,0.0,0.0,0.0,0.0,0.0,0.0,0.0,0.0,0.0,0.0,0.0,0.0,0.0,0.0,0.0,0.0,0.0,0.0,0.0,0.0,0.0,0.0,0.0,0.0,0.0,0.0,0.0,0.0,0.0,0.0,0.0,0.0,0.0,0.0,0.0,0.0,0.0,0.0,0.0,0.0,0.0,0.0,0.0,0.0,0.0,0.0,0.0,0.0,0.0,0.0,0.0,0.0,0.0,0.0,0.0,0.0,0.0,-0.6757,-0.7479,-0.8171,0.0,0.0,0.0,0.0,0.0,0.0,0.0,0.0,0.0,0.0,0.0,0.0,0.0,0.0,0.0,0.0,0.0,0.0,0.0,0.0,0.0,0.0,0.0,0.0,0.0,0.0,0.0,0.0,0.0,0.0,0.0,0.0,0.0,0.0,0.0,0.0,0.0,0.0,0.0,0.0,0.0,0.0,0.0,0.0,0.0,0.0,0.0,0.0,0.0,0.0,0.0,0.0,0.0,0.0,0.0,0.0,0.0,0.0,0.0,0.0,0.0,0.0,0.0,0.0,0.0,0.0,0.0,0.0,0.0,0.0,0.0,0.0,0.0,0.0,0.0,0.0,0.0,0.0,0.0,0.0,0.0,0.0,0.0,0.0,0.0,0.0,0.0,0.0,0.0,0.0,0.0,0.0,0.0,0.0,0.0,0.0,0.0,0.0,0.0,0.0,0.0,0.0,0.0,0.0,0.0,0.0,0.0,0.0,0.0,0.0,-0.6707,-0.6728,-0.7479,0.0,-0.8766,0.0,0.0,0.0,0.0,0.0,0.0,0.0,0.0,0.0,0.0,0.0,0.0,0.0,0.0,0.0,0.0,0.0,0.0,0.0,0.0,0.0,0.0,0.0,0.0,0.0,0.0,0.0,0.0,0.0,0.0,0.0,0.0,0.0,0.0,0.0,0.0,0.0,0.0,0.0,0.0,0.0,0.0,0.0,0.0,0.0,0.0,0.0,0.0,0.0,0.0,0.0,0.0,0.0,0.0,0.0,0.0,0.0,0.0,0.0,0.0,0.0,0.0,0.0,0.0,0.0,0.0,0.0,0.0,0.0,0.0,0.0,0.0,0.0,0.0,0.0,0.0,0.0,0.0,0.0,0.0,0.0,0.0,0.0,0.0,0.0,0.0,0.0,0.0,0.0,0.0,0.0,0.0,0.0,0.0,0.0,0.0,0.0,0.0,0.0,0.0,0.0,0.0,0.0,0.0,0.0,0.0,0.0,0.0,0.0,0.0,0.0,-0.7467,-0.8185,-0.8662,0.0,0.0,0.0,0.0,0.0,0.0,0.0,0.0,0.0,0.0,0.0,0.0,0.0,0.0,0.0,0.0,0.0,0.0,0.0,0.0,0.0,0.0,0.0,0.0,0.0,0.0,0.0,0.0,0.0,0.0,0.0,0.0,0.0,0.0,0.0,0.0,0.0,0.0,0.0,0.0,0.0,0.0,0.0,0.0,0.0,0.0,0.0,0.0,0.0,0.0,0.0,0.0,0.0,0.0,0.0,0.0,0.0,0.0,0.0,0.0,0.0,0.0,0.0,0.0,0.0,0.0,0.0,0.0,0.0,0.0,0.0,0.0,0.0,0.0,0.0,0.0,0.0,0.0,0.0,0.0,0.0,0.0,0.0,0.0,0.0,0.0,0.0,0.0,0.0,0.0,0.0,0.0,0.0,0.0,0.0,0.0,0.0,0.0,0.0,0.0,0.0,0.0,0.0,0.0,0.0,0.0,0.0,0.0,0.0,0.0,-0.8116,0.0,-0.819,-0.8653,-0.8886,-0.8769,0.0,0.0,0.0,0.0,0.0,0.0,0.0,0.0,0.0,0.0,0.0,0.0,0.0,0.0,0.0,0.0,0.0,0.0,0.0,0.0,0.0,0.0,0.0,0.0,0.0,0.0,0.0,0.0,0.0,0.0,0.0,0.0,0.0,0.0,0.0,0.0,0.0,0.0,0.0,0.0,0.0,0.0,0.0,0.0,0.0,0.0,0.0,0.0,0.0,0.0,0.0,0.0,0.0,0.0,0.0,0.0,0.0,0.0,0.0,0.0,0.0,0.0,0.0,0.0,0.0,0.0,0.0,0.0,0.0,0.0,0.0,0.0,0.0,0.0,0.0,0.0,0.0,0.0,0.0,0.0,0.0,0.0,0.0,0.0,0.0,0.0,0.0,0.0,0.0,0.0,0.0,0.0,0.0,0.0,0.0,0.0,0.0,0.0,0.0,0.0,0.0,0.0,0.0,0.0,0.0,0.0,0.0,0.0,0.0,-0.8841,-0.8863,-0.8824,-0.8829,-0.8788,0.0,0.0,0.0,0.0,0.0,0.0,0.0,0.0,0.0,0.0,0.0,0.0,0.0,0.0,0.0,0.0,0.0,0.0,0.0,0.0,0.0,0.0,0.0,0.0,0.0,0.0,0.0,0.0,0.0,0.0,0.0,0.0,0.0,0.0,0.0,0.0,0.0,0.0,0.0,0.0,0.0,0.0,0.0,0.0,0.0,0.0,0.0,0.0,0.0,0.0,0.0,0.0,0.0,0.0,0.0,0.0,0.0,0.0,0.0,0.0,0.0,0.0,0.0,0.0,0.0,0.0,0.0,0.0,0.0,0.0,0.0,0.0,0.0,0.0,0.0,0.0,0.0,0.0,0.0,0.0,0.0,0.0,0.0,0.0,0.0,0.0,0.0,0.0,0.0,0.0,0.0,0.0,0.0,0.0,0.0,0.0,0.0,0.0,0.0,0.0,0.0,0.0,0.0,0.0,0.0,0.0,0.0,0.0,0.0,-0.8834,-0.8828,-0.8816,-0.8776,-0.8793,-0.8763,0.0,0.0,0.0,0.0,0.0,0.0,0.0,0.0,0.0,0.0,0.0,0.0,0.0,0.0,0.0,0.0,0.0,0.0,0.0,0.0,0.0,0.0,0.0,0.0,0.0,0.0,0.0,0.0,0.0,0.0,0.0,0.0,0.0,0.0,0.0,0.0,0.0,0.0,0.0,0.0,0.0,0.0,0.0,0.0,0.0,0.0,0.0,0.0,0.0,0.0,0.0,0.0,0.0,0.0,0.0,0.0,0.0,0.0,0.0,0.0,0.0,0.0,0.0,0.0,0.0,0.0,0.0,0.0,0.0,0.0,0.0,0.0,0.0,0.0,0.0,0.0,0.0,0.0,0.0,0.0,0.0,0.0,0.0,0.0,0.0,0.0,0.0,0.0,0.0,0.0,0.0,0.0,0.0,0.0,0.0,0.0,0.0,0.0,0.0,0.0,0.0,0.0,0.0,0.0,0.0,0.0,0.0,0.0,0.0,-0.8787,0.0,-0.8781,0.0,-0.8776,-0.8757,0.0,0.0,0.0,0.0,0.0,0.0,0.0,0.0,0.0,0.0,0.0,0.0,0.0,0.0,0.0,0.0,0.0,0.0,0.0,0.0,0.0,0.0,0.0,0.0,0.0,0.0,0.0,0.0,0.0,0.0,0.0,0.0,0.0,0.0,0.0,0.0,0.0,0.0,0.0,0.0,0.0,0.0,0.0,0.0,0.0,0.0,0.0,0.0,0.0,0.0,0.0,0.0,0.0,0.0,0.0,0.0,0.0,0.0,0.0,0.0,0.0,0.0,0.0,0.0,0.0,0.0,0.0,0.0,0.0,0.0,0.0,0.0,0.0,0.0,0.0,0.0,0.0,0.0,0.0,0.0,0.0,0.0,0.0,0.0,0.0,0.0,0.0,0.0,0.0,0.0,0.0,0.0,0.0,0.0,0.0,0.0,0.0,0.0,0.0,0.0,0.0,0.0,0.0,0.0,0.0,0.0,0.0,0.0,-0.8756,-0.882,-0.8837,-0.8849,-0.8811,-0.8811,-0.8776,0.0,0.0,0.0,0.0,0.0,0.0,0.0,0.0,0.0,0.0,0.0,0.0,0.0,0.0,0.0,0.0,0.0,0.0,0.0,0.0,0.0,0.0,0.0,0.0,0.0,0.0,0.0,0.0,0.0,0.0,0.0,0.0,0.0,0.0,0.0,0.0,0.0,0.0,0.0,0.0,0.0,0.0,0.0,0.0,0.0,0.0,0.0,0.0,0.0,0.0,0.0,0.0,0.0,0.0,0.0,0.0,0.0,0.0,0.0,0.0,0.0,0.0,0.0,0.0,0.0,0.0,0.0,0.0,0.0,0.0,0.0,0.0,0.0,0.0,0.0,0.0,0.0,0.0,0.0,0.0,0.0,0.0,0.0,0.0,0.0,0.0,0.0,0.0,0.0,0.0,0.0,0.0,0.0,0.0,0.0,0.0,0.0,0.0,0.0,0.0,0.0,0.0,0.0,0.0,0.0,0.0,0.0,0.0,0.0,-0.9494,-0.9494,-0.9506,-0.9536,-0.9065,-0.8787,0.0,0.0,0.0,0.0,0.0,0.0,0.0,0.0,0.0,0.0,0.0,0.0,0.0,0.0,0.0,0.0,0.0,0.0,0.0,0.0,0.0,0.0,0.0,0.0,0.0,0.0,0.0,0.0,0.0,0.0,0.0,0.0,0.0,0.0,0.0,0.0,0.0,0.0,0.0,0.0,0.0,0.0,0.0,0.0,0.0,0.0,0.0,0.0,0.0,0.0,0.0,0.0,0.0,0.0,0.0,0.0,0.0,0.0,0.0,0.0,0.0,0.0,0.0,0.0,0.0,0.0,0.0,0.0,0.0,0.0,0.0,0.0,0.0,0.0,0.0,0.0,0.0,0.0,0.0,0.0,0.0,0.0,0.0,0.0,0.0,0.0,0.0,0.0,0.0,0.0,0.0,0.0,0.0,0.0,0.0,0.0,0.0,0.0,0.0,0.0,0.0,0.0,0.0,0.0,0.0,0.0,0.0,0.0,0.0,-1.0944,-1.0487,-1.0236,-1.0288,-0.9556,-0.9174,-0.9174,0.0,0.0,0.0,0.0,0.0,0.0,0.0,0.0,0.0,0.0,0.0,0.0,0.0,0.0,0.0,0.0,0.0,0.0,0.0,0.0,0.0,0.0,0.0,0.0,0.0,0.0,0.0,0.0,0.0,0.0,0.0,0.0,0.0,0.0,0.0,0.0,0.0,0.0,0.0,0.0,0.0,0.0,0.0,0.0,0.0,0.0,0.0,0.0,0.0,0.0,0.0,0.0,0.0,0.0,0.0,0.0,0.0,0.0,0.0,0.0,0.0,0.0,0.0,0.0,0.0,0.0,0.0,0.0,0.0,0.0,0.0,0.0,0.0,0.0,0.0,0.0,0.0,0.0,0.0,0.0,0.0,0.0,0.0,0.0,0.0,0.0,0.0,0.0,0.0,0.0,0.0,0.0,0.0,0.0,0.0,0.0,0.0,0.0,0.0,0.0,0.0,0.0,0.0,0.0,0.0,0.0,0.0,0.0,-1.3032,-1.1844,-1.1208,-1.1165,-1.0369,-0.9912,0.0,0.0,0.0,0.0,0.0,0.0,0.0,0.0,0.0,0.0,0.0,0.0,0.0,0.0,0.0,0.0,0.0,0.0,0.0,0.0,0.0,0.0,0.0,0.0,0.0,0.0,0.0,0.0,0.0,0.0,0.0,0.0,0.0,0.0,0.0,0.0,0.0,0.0,0.0,0.0,0.0,0.0,0.0,0.0,0.0,0.0,0.0,0.0,0.0,0.0,0.0,0.0,0.0,0.0,0.0,0.0,0.0,0.0,0.0,0.0,0.0,0.0,0.0,0.0,0.0,0.0,0.0,0.0,0.0,0.0,0.0,0.0,0.0,0.0,0.0,0.0,0.0,0.0,0.0,0.0,0.0,0.0,0.0,0.0,0.0,0.0,0.0,0.0,0.0,0.0,0.0,0.0,0.0,0.0,0.0,0.0,0.0,0.0,0.0,0.0,0.0,0.0,0.0,0.0,0.0,0.0,0.0,0.0,0.0,-1.3622,-1.4359,-1.4509,-1.3986,-1.2271,-1.1088,0.0,0.0,0.0,0.0,0.0,0.0,0.0,0.0,0.0,0.0,0.0,0.0,0.0,0.0,0.0,0.0,0.0,0.0,0.0,0.0,0.0,0.0,0.0,0.0,0.0,0.0,0.0,0.0,0.0,0.0,0.0,0.0,0.0,0.0,0.0,0.0,0.0,0.0,0.0,0.0,0.0,0.0,0.0,0.0,0.0,0.0,0.0,0.0,0.0,0.0,0.0,0.0,0.0,0.0,0.0,0.0,0.0,0.0,0.0,0.0,0.0,0.0,0.0,0.0,0.0,0.0,0.0,0.0,0.0,0.0,0.0,0.0,0.0,0.0,0.0,0.0,0.0,0.0,0.0,0.0,0.0,0.0,0.0,0.0,0.0,0.0,0.0,0.0,0.0,0.0,0.0,0.0,0.0,0.0,0.0,0.0,0.0,0.0,0.0,0.0,0.0,0.0,0.0,0.0,0.0,0.0,0.0,0.0,-1.3445,-1.4832,-1.6301,-1.7146,-1.733,-1.4337,-1.2197,0.0,0.0,0.0,0.0,0.0,0.0,0.0,0.0,0.0,0.0,0.0,0.0,0.0,0.0,0.0,0.0,0.0,0.0,0.0,0.0,0.0,0.0,0.0,0.0,0.0,0.0,0.0,0.0,0.0,0.0,0.0,0.0,0.0,0.0,0.0,0.0,0.0,0.0,0.0,0.0,0.0,0.0,0.0,0.0,0.0,0.0,0.0,0.0,0.0,0.0,0.0,0.0,0.0,0.0,0.0,0.0,0.0,0.0,0.0,0.0,0.0,0.0,0.0,0.0,0.0,0.0,0.0,0.0,0.0,0.0,0.0,0.0,0.0,0.0,0.0,0.0,0.0,0.0,0.0,0.0,0.0,0.0,0.0,0.0,0.0,0.0,0.0,0.0,0.0,0.0,0.0,0.0,0.0,0.0,0.0,0.0,0.0,0.0,0.0,0.0,0.0,0.0,0.0,0.0,0.0,0.0,0.0,0.0,-1.4857,-1.638,-1.7872,-1.9146,-2.0112,-1.6297,-1.3454,0.0,0.0,0.0,0.0,0.0,0.0,0.0,0.0,0.0,0.0,0.0,0.0,0.0,0.0,0.0,0.0,0.0,0.0,0.0,0.0,0.0,0.0,0.0,0.0,0.0,0.0,0.0,0.0,0.0,0.0,0.0,0.0,0.0,0.0,0.0,0.0,0.0,0.0,0.0,0.0,0.0,0.0,0.0,0.0,0.0,0.0,0.0,0.0,0.0,0.0,0.0,0.0,0.0,0.0,0.0,0.0,0.0,0.0,0.0,0.0,0.0,0.0,0.0,0.0,0.0,0.0,0.0,0.0,0.0,0.0,0.0,0.0,0.0,0.0,0.0,0.0,0.0,0.0,0.0,0.0,0.0,0.0,0.0,0.0,0.0,0.0,0.0,0.0,0.0,0.0,0.0,0.0,0.0,0.0,0.0,0.0,0.0,0.0,0.0,0.0,0.0,0.0,0.0,0.0,0.0,0.0,0.0,0.0,-1.579,-1.7822,-1.931,-1.9916,-1.9612,-1.7532,-1.5676,0.0,0.0,0.0,0.0,0.0,0.0,0.0,0.0,0.0,0.0,0.0,0.0,0.0,0.0,0.0,0.0,0.0,0.0,0.0,0.0,0.0,0.0,0.0,0.0,0.0,0.0,0.0,0.0,0.0,0.0,0.0,0.0,0.0,0.0,0.0,0.0,0.0,0.0,0.0,0.0,0.0,0.0,0.0,0.0,0.0,0.0,0.0,0.0,-0.7453,0.0,0.0,0.0,0.0,0.0,0.0,0.0,0.0,0.0,0.0,0.0,0.0,0.0,0.0,0.0,0.0,0.0,0.0,0.0,0.0,0.0,0.0,0.0,0.0,0.0,0.0,0.0,0.0,0.0,0.0,0.0,0.0,0.0,0.0,0.0,0.0,0.0,0.0,0.0,0.0,0.0,0.0,0.0,0.0,0.0,0.0,0.0,0.0,0.0,0.0,0.0,0.0,0.0,0.0,0.0,0.0,0.0,0.0,0.0,-1.6834,-1.8378,-2.0165,-2.0905,-2.0435,-1.895,-1.7079,0.0,0.0,0.0,0.0,0.0,0.0,0.0,0.0,0.0,0.0,0.0,0.0,0.0,0.0,0.0,0.0,0.0,0.0,0.0,0.0,0.0,0.0,0.0,0.0,0.0,0.0,0.0,0.0,0.0,0.0,0.0,0.0,0.0,0.0,0.0,0.0,0.0,0.0,0.0,0.0,0.0,0.0,0.0,0.0,0.0,0.0,0.0,0.0,0.0,0.0,0.0,0.0,0.0,0.0,0.0,0.0,0.0,0.0,0.0,0.0,0.0,0.0,0.0,0.0,0.0,0.0,0.0,0.0,0.0,0.0,0.0,0.0,0.0,0.0,0.0,0.0,0.0,0.0,0.0,0.0,0.0,0.0,0.0,0.0,0.0,0.0,0.0,0.0,0.0,0.0,0.0,0.0,0.0,0.0,0.0,0.0,0.0,0.0,0.0,0.0,0.0,0.0,0.0,0.0,0.0,0.0,0.0,-1.5452,-1.7716,-1.8647,-2.0693,-2.1718,-2.1526,-1.997,-1.7753,-1.4822,0.0,0.0,0.0,0.0,0.0,0.0,0.0,0.0,0.0,0.0,0.0,0.0,0.0,0.0,0.0,0.0,0.0,0.0,0.0,0.0,0.0,0.0,0.0,0.0,0.0,0.0,0.0,0.0,0.0,0.0,0.0,0.0,0.0,0.0,0.0,0.0,0.0,0.0,-0.7758,-0.8284,0.0,0.0,0.0,0.0,0.0,0.0,0.0,0.0,-0.8078,0.0,0.0,0.0,0.0,0.0,0.0,0.0,0.0,0.0,0.0,0.0,0.0,0.0,0.0,0.0,0.0,0.0,0.0,0.0,0.0,0.0,0.0,0.0,0.0,0.0,0.0,0.0,0.0,0.0,0.0,0.0,0.0,0.0,0.0,0.0,0.0,0.0,0.0,0.0,0.0,0.0,0.0,0.0,0.0,0.0,0.0,0.0,0.0,0.0,0.0,0.0,0.0,0.0,0.0,0.0,0.0,-1.2399,-1.5574,-1.7816,-1.9069,-2.0869,-2.1499,-2.0839,-1.9247,-1.7237,-1.4894,0.0,0.0,0.0,0.0,0.0,0.0,0.0,0.0,0.0,0.0,0.0,0.0,0.0,0.0,0.0,0.0,0.0,0.0,0.0,0.0,0.0,0.0,0.0,0.0,0.0,0.0,0.0,0.0,0.0,0.0,0.0,0.0,0.0,0.0,0.0,0.0,0.0,0.0,0.0,-0.8996,-0.9413,0.0,0.0,0.0,0.0,0.0,0.0,0.0,0.0,-0.8706,0.0,0.0,0.0,0.0,0.0,0.0,0.0,0.0,0.0,0.0,0.0,0.0,0.0,0.0,0.0,0.0,0.0,0.0,0.0,0.0,0.0,0.0,0.0,0.0,0.0,0.0,0.0,0.0,0.0,0.0,0.0,0.0,0.0,0.0,0.0,0.0,0.0,0.0,0.0,0.0,0.0,0.0,0.0,0.0,0.0,0.0,0.0,0.0,0.0,0.0,0.0,0.0,0.0,0.0,0.0,-1.2598,-1.5695,-1.7896,-1.904,-2.0502,-2.0968,-2.0283,-1.872,-1.684,0.0,0.0,0.0,0.0,0.0,0.0,0.0,0.0,0.0,0.0,0.0,0.0,0.0,0.0,0.0,0.0,0.0,0.0,0.0,0.0,0.0,0.0,0.0,0.0,0.0,0.0,0.0,0.0,0.0,0.0,0.0,0.0,0.0,0.0,0.0,0.0,0.0,0.0,0.0,0.0,-1.0525,-1.0793,-1.1081,0.0,0.0,0.0,0.0,0.0,0.0,-1.0112,-0.9646,0.0,0.0,0.0,0.0,0.0,0.0,0.0,0.0,0.0,0.0,0.0,0.0,0.0,0.0,0.0,0.0,0.0,0.0,0.0,0.0,0.0,0.0,0.0,0.0,0.0,0.0,0.0,0.0,0.0,0.0,0.0,0.0,0.0,0.0,0.0,0.0,0.0,0.0,0.0,0.0,0.0,0.0,0.0,0.0,0.0,0.0,0.0,0.0,0.0,0.0,0.0,0.0,0.0,0.0,0.0,-1.2691,-1.5854,-1.7939,-1.8797,-1.9988,-2.0305,-1.9653,-1.8045,-1.6127,0.0,0.0,0.0,0.0,0.0,0.0,0.0,0.0,0.0,0.0,0.0,0.0,0.0,0.0,0.0,0.0,0.0,0.0,0.0,0.0,0.0,0.0,0.0,0.0,0.0,0.0,0.0,0.0,0.0,0.0,0.0,0.0,0.0,0.0,0.0,0.0,0.0,0.0,0.0,0.0,0.0,-1.2235,-1.2639,-1.2327,0.0,0.0,0.0,0.0,-1.126,-1.1278,0.0,0.0,0.0,0.0,0.0,0.0,0.0,0.0,0.0,0.0,0.0,0.0,0.0,0.0,0.0,0.0,0.0,0.0,0.0,0.0,0.0,0.0,0.0,0.0,0.0,0.0,0.0,0.0,0.0,0.0,0.0,0.0,0.0,0.0,0.0,0.0,0.0,0.0,0.0,0.0,0.0,0.0,0.0,0.0,0.0,0.0,0.0,0.0,0.0,0.0,0.0,0.0,0.0,0.0,0.0,0.0,-1.3086,-1.6095,-1.7942,-1.8468,-1.9467,-1.9638,-1.8834,-1.6784,-1.4635,0.0,0.0,0.0,0.0,0.0,0.0,0.0,0.0,0.0,0.0,0.0,0.0,0.0,0.0,0.0,0.0,0.0,0.0,0.0,0.0,0.0,0.0,0.0,0.0,0.0,0.0,0.0,0.0,0.0,0.0,0.0,0.0,0.0,0.0,0.0,0.0,0.0,0.0,0.0,0.0,0.0,-1.3367,-1.3381,-1.3727,-1.372,0.0,0.0,-1.37,-1.2934,-1.3406,0.0,0.0,0.0,0.0,0.0,0.0,0.0,0.0,0.0,0.0,0.0,0.0,0.0,0.0,0.0,0.0,0.0,0.0,0.0,0.0,0.0,0.0,0.0,0.0,0.0,0.0,0.0,0.0,0.0,0.0,0.0,0.0,0.0,0.0,0.0,0.0,0.0,0.0,0.0,0.0,0.0,0.0,0.0,0.0,0.0,0.0,0.0,0.0,0.0,0.0,0.0,0.0,0.0,0.0,0.0,-1.2121,-1.3172,-1.6236,-1.7821,-1.7744,-1.8827,-1.8858,-1.7758,-1.6025,-1.4105,0.0,0.0,0.0,0.0,0.0,0.0,0.0,0.0,0.0,0.0,0.0,0.0,0.0,0.0,0.0,0.0,0.0,0.0,0.0,0.0,0.0,0.0,0.0,0.0,0.0,0.0,0.0,0.0,0.0,0.0,0.0,0.0,0.0,0.0,0.0,0.0,0.0,0.0,0.0,0.0,0.0,0.0,-1.511,-1.5285,0.0,0.0,0.0,-1.4739,-1.4251,0.0,0.0,0.0,0.0,0.0,0.0,0.0,0.0,0.0,0.0,0.0,0.0,0.0,0.0,0.0,0.0,0.0,0.0,0.0,0.0,0.0,0.0,0.0,0.0,0.0,0.0,0.0,0.0,0.0,0.0,0.0,0.0,0.0,0.0,0.0,0.0,0.0,0.0,0.0,0.0,0.0,0.0,0.0,0.0,0.0,0.0,0.0,0.0,0.0,0.0,0.0,0.0,0.0,0.0,0.0,0.0,0.0,-1.3375,-1.6407,-1.773,-1.724,-1.8218,-1.8216,-1.703,-1.5473,0.0,0.0,0.0,0.0,0.0,0.0,0.0,0.0,0.0,0.0,0.0,0.0,0.0,0.0,0.0,0.0,0.0,0.0,0.0,0.0,0.0,0.0,0.0,0.0,0.0,0.0,0.0,-0.5955,0.0,0.0,0.0,0.0,0.0,0.0,0.0,0.0,0.0,0.0,0.0,0.0,0.0,0.0,-1.5404,-1.6581,-1.657,-1.6331,0.0,0.0,-1.5723,-1.5176,-1.4787,-1.4012,0.0,0.0,0.0,0.0,0.0,0.0,0.0,0.0,0.0,0.0,0.0,0.0,0.0,0.0,0.0,0.0,0.0,0.0,0.0,0.0,0.0,0.0,0.0,0.0,0.0,0.0,0.0,0.0,0.0,0.0,0.0,0.0,0.0,0.0,0.0,0.0,0.0,0.0,0.0,0.0,0.0,0.0,0.0,0.0,0.0,0.0,0.0,0.0,0.0,0.0,0.0,0.0,0.0,0.0,0.0,-1.405,-1.6591,-1.7667,-1.7165,-1.7792,-1.7776,-1.6985,-1.5034,-1.3299,0.0,0.0,0.0,0.0,0.0,0.0,0.0,0.0,0.0,0.0,0.0,0.0,0.0,0.0,0.0,0.0,0.0,0.0,0.0,0.0,0.0,0.0,0.0,0.0,0.0,0.0,0.0,0.0,0.0,0.0,0.0,0.0,0.0,0.0,0.0,0.0,0.0,0.0,0.0,0.0,0.0,-1.634,-1.7302,-1.7408,-1.7156,0.0,0.0,-1.6802,-1.5475,-1.6218,-1.6068,-1.3433,0.0,0.0,0.0,0.0,0.0,0.0,0.0,0.0,0.0,0.0,0.0,0.0,0.0,0.0,0.0,0.0,0.0,0.0,0.0,0.0,0.0,0.0,0.0,0.0,0.0,0.0,0.0,0.0,0.0,0.0,0.0,0.0,0.0,0.0,0.0,0.0,0.0,0.0,0.0,0.0,0.0,0.0,0.0,0.0,0.0,0.0,0.0,0.0,0.0,0.0,0.0,0.0,0.0,-1.2715,-1.4587,-1.6892,-1.7991,-1.7792,-1.7897,-1.7636,-1.6894,-1.5131,-1.3535,0.0,0.0,0.0,0.0,0.0,0.0,0.0,0.0,0.0,0.0,0.0,0.0,0.0,0.0,0.0,0.0,0.0,0.0,0.0,0.0,0.0,0.0,0.0,0.0,0.0,0.0,0.0,0.0,-0.6967,-0.7206,-0.7304,0.0,0.0,0.0,0.0,0.0,0.0,0.0,0.0,0.0,0.0,-1.7167,-1.8049,-1.8136,0.0,0.0,-1.7534,-1.705,-1.6711,-1.6449,-1.5705,-1.3979,-1.3179,0.0,0.0,0.0,0.0,0.0,0.0,0.0,0.0,0.0,0.0,0.0,0.0,0.0,0.0,0.0,0.0,0.0,0.0,0.0,0.0,0.0,0.0,0.0,0.0,0.0,0.0,0.0,0.0,0.0,0.0,0.0,0.0,0.0,0.0,0.0,0.0,0.0,0.0,0.0,0.0,0.0,0.0,0.0,0.0,0.0,0.0,0.0,0.0,0.0,0.0,0.0,0.0,-1.2719,-1.4791,-1.6879,-1.7971,-1.7987,-1.804,-1.7641,-1.6681,-1.5374,-1.4007,0.0,0.0,0.0,0.0,0.0,0.0,0.0,0.0,0.0,0.0,0.0,0.0,0.0,0.0,0.0,0.0,0.0,0.0,0.0,0.0,0.0,0.0,0.0,0.0,0.0,0.0,0.0,0.0,-0.6987,-0.7085,-0.7131,0.0,0.0,0.0,0.0,0.0,0.0,0.0,0.0,0.0,0.0,-1.7483,-1.8418,-1.838,-1.8372,-1.86,-1.7787,-1.718,-1.731,-1.6592,-1.5671,-1.4644,0.0,0.0,0.0,0.0,0.0,0.0,0.0,0.0,0.0,0.0,0.0,0.0,0.0,0.0,0.0,0.0,0.0,0.0,0.0,0.0,0.0,0.0,0.0,0.0,0.0,0.0,0.0,-0.6322,0.0,0.0,-0.6054,0.0,0.0,0.0,0.0,0.0,0.0,0.0,0.0,0.0,0.0,0.0,0.0,0.0,0.0,0.0,0.0,0.0,0.0,0.0,0.0,0.0,0.0,-1.2378,-1.4604,-1.6508,-1.7466,-1.7563,-1.8142,-1.7811,-1.6476,-1.568,-1.4645,-1.3274,0.0,0.0,0.0,0.0,0.0,0.0,0.0,0.0,0.0,0.0,0.0,0.0,0.0,0.0,0.0,0.0,0.0,0.0,0.0,0.0,0.0,0.0,0.0,0.0,0.0,0.0,-0.6698,-0.6891,-0.7006,0.0,0.0,0.0,0.0,0.0,0.0,0.0,0.0,0.0,0.0,-1.6766,-1.7211,-1.8349,-1.8042,-1.7788,-1.7841,-1.7639,-1.7365,-1.6989,-1.6791,-1.6376,0.0,0.0,0.0,0.0,0.0,0.0,0.0,0.0,0.0,0.0,0.0,0.0,0.0,0.0,0.0,0.0,0.0,0.0,0.0,0.0,0.0,0.0,0.0,0.0,0.0,0.0,0.0,-0.9342,-0.8837,0.0,0.0,0.0,0.0,0.0,0.0,0.0,0.0,0.0,0.0,0.0,-1.3224,-1.3315,0.0,0.0,0.0,0.0,0.0,0.0,0.0,0.0,0.0,0.0,0.0,0.0,-1.3362,-1.5067,-1.7047,-1.8285,-1.8753,-1.8384,-1.7754,-1.6895,-1.6017,-1.4748,-1.3023,0.0,0.0,0.0,0.0,0.0,0.0,0.0,0.0,0.0,0.0,0.0,0.0,0.0,0.0,0.0,0.0,0.0,0.0,0.0,0.0,0.0,0.0,0.0,0.0,0.0,-0.6542,0.0,0.0,0.0,0.0,0.0,0.0,0.0,0.0,0.0,0.0,0.0,-1.5709,-1.6881,-1.7446,-1.792,-1.8428,-1.8082,-1.7841,0.0,0.0,0.0,0.0,0.0,0.0,0.0,0.0,0.0,0.0,0.0,0.0,0.0,0.0,-1.1493,-1.0883,-1.0788,-1.0805,-1.0794,0.0,0.0,0.0,0.0,0.0,0.0,0.0,0.0,0.0,0.0,0.0,0.0,0.0,0.0,-1.0969,0.0,-1.018,0.0,0.0,0.0,0.0,0.0,0.0,0.0,0.0,-1.3642,-1.4362,-1.4792,-1.5033,-1.5171,0.0,-1.5272,-1.4166,0.0,0.0,0.0,0.0,0.0,0.0,0.0,0.0,-1.3969,-1.5542,-1.7338,-1.8553,-1.9132,-1.8566,-1.7916,-1.7287,-1.6242,-1.484,-1.3036,-1.1777,-1.0501,0.0,0.0,0.0,0.0,0.0,0.0,0.0,0.0,0.0,0.0,0.0,0.0,0.0,0.0,0.0,0.0,0.0,0.0,0.0,0.0,0.0,0.0,0.0,-0.6715,0.0,0.0,0.0,0.0,0.0,0.0,0.0,0.0,0.0,-1.4073,-1.5461,-1.6813,-1.7747,-1.8038,-1.8289,-1.8666,0.0,0.0,0.0,0.0,0.0,0.0,0.0,-1.7337,-1.6734,-1.6559,-1.6241,-1.5413,-1.489,-1.4572,-1.4561,0.0,0.0,-1.2645,-1.2407,-1.2457,-1.2446,-1.2522,-1.2548,-1.256,-1.2605,-1.2785,0.0,0.0,0.0,0.0,0.0,0.0,0.0,0.0,-1.296,-1.2307,0.0,-1.1637,0.0,0.0,0.0,0.0,0.0,-1.2101,0.0,0.0,-1.5578,-1.6208,-1.58,-1.6277,-1.6546,-1.6637,-1.6624,-1.6292,-1.5594,-1.3846,0.0,0.0,0.0,0.0,0.0,0.0,-1.4184,-1.6015,-1.7375,-1.8276,-1.8789,-1.8721,-1.8323,-1.7557,-1.6333,-1.4953,-1.3412,-1.2646,-1.1597,-1.0123,-0.8844,0.0,0.0,0.0,0.0,0.0,0.0,0.0,0.0,0.0,0.0,0.0,0.0,0.0,0.0,0.0,0.0,0.0,0.0,0.0,0.0,-0.6827,0.0,0.0,0.0,0.0,0.0,0.0,0.0,0.0,0.0,0.0,-1.5817,-1.6692,-1.7776,-1.8903,0.0,0.0,0.0,0.0,-1.8482,-1.915,-1.9165,-1.8992,-1.8701,-1.874,-1.8577,-1.8047,0.0,0.0,-1.7339,-1.6873,-1.653,-1.6575,-1.6495,-1.5931,-1.3819,-1.3553,-1.3581,-1.3547,-1.3597,-1.365,-1.3693,-1.3739,-1.3877,-1.4514,0.0,0.0,0.0,0.0,-1.4296,-1.5011,-1.6069,-1.5363,-1.478,-1.4267,-1.3674,0.0,0.0,0.0,0.0,0.0,0.0,-1.3937,-1.5137,-1.5787,-1.6314,-1.6765,-1.6917,-1.7202,-1.759,-1.7583,-1.7687,-1.7831,-1.6912,-1.5044,-1.2395,0.0,0.0,0.0,0.0,-1.5652,-1.673,-1.7949,-1.8636,-1.8789,-1.8779,-1.8271,-1.7277,-1.6062,-1.5029,-1.4187,-1.3003,-1.2015,-1.1238,-0.9912,0.0,0.0,0.0,0.0,0.0,0.0,0.0,0.0,0.0,0.0,0.0,0.0,0.0,0.0,0.0,0.0,0.0,0.0,0.0,-0.6801,-0.7309,-0.7829,0.0,0.0,0.0,0.0,0.0,0.0,0.0,0.0,0.0,-1.7867,-1.8073,-1.8287,0.0,0.0,-1.8457,-1.8657,-1.8679,-1.8731,-1.8852,-1.9006,0.0,-1.8482,-1.8412,-1.8261,-1.7738,-1.7472,-1.7265,-1.6994,-1.6759,-1.6598,-1.6598,-1.6598,-1.6367,-1.5828,-1.5406,-1.5085,-1.4764,-1.465,-1.4809,-1.5154,-1.5246,-1.528,-1.7061,-1.6722,-1.5061,-1.4739,-1.5351,-1.5453,-1.61,-1.7053,-1.6475,-1.6146,-1.5979,-1.5579,-1.4764,-1.3631,-1.367,0.0,0.0,0.0,-1.5437,-1.6533,-1.6629,-1.6914,-1.7415,-1.742,-1.7547,-1.787,-1.7875,-1.8121,-1.8553,-1.821,-1.6916,-1.4746,0.0,0.0,-1.4356,-1.5686,-1.6718,-1.7397,-1.8372,-1.8874,-1.8889,-1.8664,-1.8026,-1.6927,-1.5992,-1.5171,-1.4438,-1.3344,-1.2474,-1.1837,-1.0785,-0.9671,0.0,0.0,0.0,0.0,0.0,0.0,0.0,0.0,0.0,0.0,0.0,-0.7427,0.0,0.0,0.0,0.0,-0.7039,-0.7194,-0.8157,-0.8775,0.0,0.0,0.0,0.0,0.0,0.0,0.0,-1.5826,-1.7385,-1.8635,-1.9317,-1.9458,-1.9409,-1.9196,-1.897,-1.8819,-1.8869,0.0,-1.8797,-1.894,-1.9124,-1.91,-1.8709,-1.8709,-1.8623,-1.8313,-1.7936,-1.7694,-1.7604,-1.7387,-1.7194,-1.7194,-1.7194,-1.7137,-1.6956,-1.6683,-1.6326,-1.582,-1.5693,-1.5831,-1.6117,-1.6187,-1.6187,-1.9253,-1.9906,-1.6934,-1.5754,-1.588,-1.6106,-1.6486,-1.6894,-1.6846,-1.681,-1.6786,-1.7219,-1.6859,-1.5857,-1.5934,0.0,-1.6794,-1.6922,-1.7248,-1.7786,-1.7786,-1.7786,-1.7786,-1.7733,-1.7741,-1.7795,-1.775,-1.7869,-1.8232,-1.8248,-1.7988,-1.7418,-1.6595,-1.6135,-1.6106,-1.6732,-1.7386,-1.7981,-1.8602,-1.8903,-1.8884,-1.8439,-1.7657,-1.6685,-1.6066,-1.5317,-1.4361,-1.3636,-1.2906,-1.2102,-1.1495,-1.0675,-0.9575,0.0,0.0,0.0,0.0,0.0,0.0,0.0,0.0,0.0,0.0,0.0,0.0,0.0,0.0,0.0,-0.8109,0.0,-1.0053,-1.0808,0.0,0.0,0.0,-1.3564,-1.4609,-1.5673,-1.6724,-1.7739,0.0,0.0,-2.0272,-2.0701,-2.0835,-2.0333,-1.9768,-1.9466,-1.9596,-1.9113,-1.8914,-1.9587,-1.957,-1.944,-1.9225,-1.9188,-1.9127,-1.9101,-1.9011,-1.8658,-1.862,-1.8336,-1.81,-1.8015,-1.81,-1.7962,-1.7519,-1.7415,-1.7289,-1.6818,-1.6621,-1.6587,-1.6644,-1.6692,-1.6731,-1.8659,-1.9094,-1.8325,-1.866,-1.9754,-1.9797,-1.966,-1.9328,-1.8962,-1.8558,-1.8118,-1.7836,-1.7567,-1.7312,-1.7335,-1.7396,-1.7542,-1.7566,-1.7663,-1.7786,-1.7786,-1.7786,-1.7798,-1.7794,-1.8037,-1.8402,-1.7991,-1.8062,-1.8534,-1.814,-1.784,-1.769,-1.7462,-1.7164,-1.6794,-1.6922,-1.7351,-1.7999,-1.8157,-1.8181,-1.8101,-1.7962,-1.7558,-1.6922,-1.6003,-1.5202,-1.4542,-1.3537,-1.2869,-1.2608,-1.2081,-1.1479,-1.0723,-0.9675,0.0,0.0,0.0,0.0,0.0,0.0,0.0,0.0,0.0,-0.9317,-0.9443,0.0,-0.9911,0.0,-0.9564,-1.027,-1.1819,-1.2143,0.0,0.0,-1.4787,-1.5531,-1.6592,-1.7579,-1.8506,-1.9342,-2.0079,-2.0624,-2.0993,-2.1133,-2.111,-2.0789,-2.064,-2.0788,-2.1203,-2.0787,-2.0627,-2.1071,-2.0782,-2.0272,-1.9514,-1.8834,-1.846,-1.841,-1.834,-1.8275,-1.8286,-1.8193,-1.8111,-1.8084,-1.8084,-1.8054,-1.7939,-1.7928,-1.7974,-1.7893,-1.7252,-1.6724,-1.7105,-1.7286,-1.7375,-1.9584,-2.002,-2.027,-2.0839,-2.1576,-2.0733,-2.0335,-2.0234,-1.9978,-1.9818,-1.9666,-1.9125,-1.8854,-1.8867,-1.8684,-1.8598,-1.8623,-1.866,-1.8685,-1.8685,-1.8685,-1.8685,-1.8672,-1.8449,-1.8507,-1.8805,-1.8257,-1.8248,-1.8711,-1.8405,-1.8113,-1.7895,-1.7881,-1.7547,-1.6903,-1.7182,-1.7542,-1.7908,-1.7908,-1.7781,-1.7523,-1.7537,-1.731,-1.6756,-1.5748,-1.5038,-1.4741,-1.3593,-1.296,-1.2925,-1.2558,-1.2089,-1.1475,-1.0606,-0.9857,0.0,0.0,0.0,0.0,0.0,0.0,0.0,0.0,0.0,0.0,0.0,-1.1532,-1.1389,-1.1744,-1.2633,-1.4177,-1.4585,-1.5289,-1.6643,-1.7039,-1.7543,-1.8374,-1.9138,-1.9857,-2.0539,-2.1029,-2.1404,-2.1662,-2.171,-2.1637,-2.1485,-2.1506,-2.1438,-2.1145,-2.0832,-2.0787,-2.1075,-2.0819,-2.0392,-1.9752,-1.9255,-1.8912,-1.8889,-1.8772,-1.8688,-1.8677,-1.848,-1.8317,-1.8329,-1.8317,-1.8329,-1.8329,-1.8317,-1.8383,-1.8367,-1.7967,-1.7659,-1.7856,-1.7979,-1.807,-2.1169,-2.1687,-2.2033,-2.2221,-2.2054,-2.0436,-2.0058,-2.0566,-2.0553,-2.0773,-2.1128,-2.0594,-2.0357,-2.032,-1.9986,-1.9854,-1.9854,-1.9897,-1.9911,-1.9911,-1.9836,-1.9798,-1.9786,-1.9334,-1.9096,-1.9083,-1.8568,-1.8494,-1.8843,-1.8779,-1.8504,-1.8046,-1.7969,-1.7552,-1.6845,-1.735,-1.7659,-1.7659,-1.7646,-1.7475,-1.7115,-1.7115,-1.6913,-1.6471,-1.5517,-1.5016,-1.4972,-1.385,-1.3243,-1.327,-1.305,-1.266,-1.2154,-1.1496,-1.0888,0.0,-0.9794,0.0,0.0,0.0,0.0,0.0,0.0,0.0,0.0,-1.2802,-1.3215,-1.36,-1.4237,-1.5222,-1.6776,-1.7339,-1.8049,-1.9086,-1.9191,-1.9408,-1.9953,-2.0482,-2.1,-2.1464,-2.1909,-2.2197,-2.2173,-2.2197,-2.2185,-2.213,-2.2125,-2.177,-2.079,-2.0553,-2.0594,-2.0511,-2.0393,-2.0335,-2.01,-1.9983,-1.9884,-1.9878,-1.9661,-1.9505,-1.9477,-1.914,-1.8799,-1.8728,-1.8728,-1.8693,-1.861,-1.8587,-1.8587,-1.8614,-1.8566,-1.8516,-1.854,-1.8566,-1.8679,-2.2157,-2.2347,-2.1838,-2.1644,-2.1619,-2.1277,-2.1425,-2.1909,-2.1922,-2.1722,-2.1437,-2.1297,-2.1247,-2.1234,-2.1162,-2.1152,-2.1127,-2.0702,-2.0528,-2.0515,-2.005,-1.9798,-1.9798,-1.9698,-1.966,-1.9623,-1.9096,-1.8894,-1.8955,-1.8537,-1.8259,-1.8145,-1.7726,-1.7425,-1.7257,0.0,0.0,0.0,-1.6799,-1.6689,-1.6637,-1.6629,-1.6573,-1.6497,-1.5894,0.0,-1.5505,-1.4494,-1.4038,-1.4272,-1.3765,0.0,0.0,0.0,0.0,0.0,0.0,0.0,0.0,0.0,0.0,0.0,-1.2669,-1.3155,-1.3007,-1.3839,-1.4822,-1.5791,-1.6441,-1.7435,-1.9011,-1.8879,-1.9119,-2.0157,-2.0286,-2.0514,-2.1043,-2.156,-2.1945,-2.2029,-2.2125,-2.2197,-2.2197,-2.2197,-2.2197,-2.2197,-2.2197,-2.2113,-2.1848,-2.1611,-2.1788,-2.2188,-2.1434,-2.0776,-2.0704,-2.0399,-2.0252,-2.0123,-2.01,-2.0063,-2.0052,-1.9969,-1.9722,-1.934,-1.9246,-1.9105,-1.872,-1.8587,-1.8676,-1.8744,-1.8771,-1.8718,-1.8614,-1.8679,-1.8759,-2.2753,-2.2841,-2.2766,-2.256,0.0,-2.2611,-2.2573,-2.2322,-2.2322,-2.2309,-2.2284,-2.202,-2.1895,-2.1882,-2.1606,-2.1481,-2.1468,-2.1204,-2.0943,-2.0679,-2.039,-2.0075,-1.9798,-1.9798,-1.9798,-1.9786,-1.9535,-1.9396,-1.9371,-1.912,-1.8869,-1.8581,-1.8306,-1.8066,-1.78,-1.7225,-1.6832,-1.6599,-1.6522,-1.6513,-1.6513,-1.6513,-1.6513,-1.6488,-1.5982,0.0,0.0,0.0,0.0,0.0,0.0,0.0,0.0,0.0,0.0,-1.2872,-1.2351,-1.2278,-1.2789,-1.2798,-1.2936,-1.3211,-1.4,-1.4528,-1.4623,-1.5271,-1.6153,-1.7242,-1.7804,-1.8518,-1.9514,-1.9333,-1.9627,-2.0686,-2.0845,-2.1096,-2.1704,-2.2029,-2.2185,-2.2197,-2.2197,-2.2197,-2.2197,-2.2197,-2.2197,-2.2197,-2.2197,-2.2197,-2.2197,-2.2135,-2.2204,-2.25,-2.1957,-2.1398,-2.1386,-2.1209,-2.1008,-2.105,-2.0908,-2.0813,-2.0801,-2.0575,-2.0284,-2.0046,-1.9987,-1.9808,-1.9337,-1.9194,-1.9137,-1.8964,-1.8893,-1.8893,-1.8801,-1.8839,-1.8893,-2.3606,-2.3586,-2.3921,-2.3745,-2.3236,-2.3745,-2.3404,-2.2476,0.0,0.0,0.0,-2.2631,-2.2418,-2.2422,-2.1983,-2.1782,-2.1769,-2.1681,-2.1421,-2.0981,-2.0779,-2.044,-1.9949,-1.9849,-1.9798,-1.9798,-1.9798,-1.9798,-1.9798,-1.9837,-1.9597,-1.9196,-1.9095,-1.8792,-1.8251,-1.772,-1.7194,-1.6706,-1.6559,-1.6513,-1.6513,-1.6513,-1.6513,-1.6513,-1.6061,-1.5831,-1.5852,-1.5336,-1.5026,-1.5015,-1.4418,-1.4052,-1.394,-1.3437,-1.3161,-1.3118,-1.3011,-1.326,-1.3893,-1.387,-1.4088,-1.4761,-1.5092,-1.5517,-1.6026,-1.6499,-1.7158,-1.8107,-1.8652,-1.9158,-1.9629,-1.9576,-1.9924,-2.0899,-2.106,-2.1388,-2.1913,-2.2123,-2.2197,-2.2197,-2.2216,-2.2216,-2.2197,-2.2228,-2.2216,-2.2197,-2.2197,-2.2197,-2.2197,-2.2197,-2.2185,-2.2216,-2.2032,-2.1932,-2.1956,-2.192,-2.1968,-2.1849,-2.1685,-2.1548,-2.1476,-2.1187,-2.0899,-2.0737,-2.0713,-2.0485,-2.0069,-1.9937,-1.9768,-1.936,-1.9191,-1.9146,-1.9146,-1.9059,-1.8999,-2.5531,-2.52,-2.4659,-2.4111,-2.3628,-2.3705,-2.3535,-2.3208,-2.2581,-2.2594,-2.3095,-2.3032,-2.2982,-2.2982,-2.2907,-2.2869,-2.2844,-2.2393,-2.2146,-2.2033,-2.1131,-2.0654,-2.0541,-2.0063,-1.9798,-1.9798,-1.9798,-1.9798,-1.9798,-1.9901,-1.9888,-1.9661,-1.9445,-1.907,-1.8531,-1.789,-1.754,-1.7451,-1.6804,-1.6513,-1.6513,-1.6513,-1.6513,-1.65,-1.6425,-1.6375,-1.6396,-1.5869,-1.5566,-1.5483,-1.4863,-1.4419,-1.4167,-1.3856,-1.3797,-1.3948,-1.3484,-1.3586,-1.4494,-1.4135,-1.4262,-1.51,-1.5269,-1.5365,-1.5529,-1.6674,-1.7593,-1.8096,-1.9037,-1.9831,-2.0217,-2.0275,-2.0299,-2.0505,-2.1008,-2.1336,-2.1262,-2.1788,-2.2092,-2.2092,-2.2309,-2.2235,-2.2092,-2.2204,-2.2235,-2.2185,-2.2154,-2.2197,-2.2197,-2.2197,-2.2197,-2.2197,-2.2166,-2.2166,-2.2135,-2.2166,-2.2123,-2.2154,-2.2094,-2.2017,-2.2017,-2.1933,-2.1716,-2.1356,-2.1296,-2.1079,-2.0598,-2.0461,-2.0418,-2.0261,-1.9949,-1.97,-1.964,-1.9287,-1.8999,-2.6506,-2.6335,-2.598,-2.5557,-2.5036,-2.4407,-2.4073,-2.3929,-2.3329,-2.3042,-2.3095,-2.3095,-2.3095,-2.3095,-2.3095,-2.3168,-2.3245,-2.3005,-2.274,-2.2441,-2.2033,-2.1614,-2.123,-2.0726,-2.0525,-2.05,-2.0181,-2.0016,-2.0016,-2.008,-2.008,-2.0029,-1.9888,-1.9566,-1.9052,-1.8665,-1.8327,-1.801,-1.7027,-1.6513,-1.6513,-1.6513,-1.6513,-1.6513,-1.6513,-1.638,-1.6129,-1.5896,-1.5613,-1.5333,-1.48,-1.4428,-1.4316,-1.3905,-1.3878,-1.4216,-1.3983,-1.4105,-1.4824,-1.4878,-1.5065,-1.5495,-1.5966,-1.6179,-1.6171,-1.6972,-1.7898,-1.8786,-1.9084,-1.9243,-1.9575,-1.9386,-1.932,-1.9639,-1.9922,-2.0215,-2.056,-2.0805,-2.1051,-2.104,-2.1103,-2.1146,-2.1083,-2.142,-2.1683,-2.162,-2.1882,-2.2166,-2.2166,-2.2197,-2.2197,-2.2197,-2.2197,-2.2197,-2.2197,-2.2197,-2.2197,-2.2197,-2.2197,-2.2197,-2.2197,-2.2166,-2.2058,-2.1897,-2.1825,-2.162,-2.1139,-2.1043,-2.0935,-2.0634,-2.0454,-2.0165,-1.9841,-1.9131,-1.8652,-2.6726,-2.6726,-2.6739,-2.6506,-2.6082,-2.5205,-2.4727,-2.4542,-2.4114,-2.3684,-2.3251,-2.3102,-2.3008,-2.2896,-2.2909,-2.2969,-2.3133,-2.312,-2.2907,-2.2548,-2.2472,-2.2141,-2.1644,-2.127,-2.1111,-2.1074,-2.0629,-2.0399,-2.0361,-2.0259,-2.0195,-2.0182,-2.0054,-1.9775,-1.9407,-1.8995,-1.8598,-1.815,-1.7057,-1.649,-1.6523,-1.6414,-1.6286,-1.6197,-1.6163,-1.601,-1.5668,-1.5645,-1.5423,-1.4971,-1.4581,-1.4404,-1.4348,-1.3981,-1.3958,-1.4397,-1.4469,-1.4666,-1.5121,-1.5587,-1.5846,-1.5866,-1.6562,-1.6988,-1.7031,-1.7425,-1.8114,-1.8985,-1.8818,-1.8725,-1.8916,-1.863,-1.8438,-1.8921,-1.9121,-1.9474,-1.9911,-2.0096,-2.0193,-2.0161,-2.0182,-2.0258,-2.0226,-2.057,-2.0965,-2.1198,-2.1726,-2.2123,-2.1999,-2.1956,-2.1925,-2.1831,-2.1968,-2.2197,-2.2197,-2.2197,-2.2197,-2.2197,-2.203,-2.1894,-2.1862,-2.1831,-2.1831,-2.1765,-2.1901,-2.1704,-2.1414,-2.1318,-2.1055,-2.0592,-2.0281,-2.0001,-1.9345,-1.867,-1.8137,-2.6013,-2.6,-2.6013,-2.5975,-2.5889,-2.5778,-2.5357,-2.4789,-2.4716,-2.4287,-2.3631,-2.3119,-2.2681,-2.2314,-2.2309,-2.234,-2.2371,-2.2321,-2.2316,-2.2195,-2.1687,-2.1391,-2.1408,-2.1247,-2.1185,-2.1179,-2.1044,-2.0897,-2.0728,-2.036,-2.0195,-2.0118,-1.9604,-1.9371,-1.9274,-1.8257,-1.7662,-1.7578,-1.6804,-1.6465,-1.6557,-1.6103,-1.5661,-1.5233,-1.5255,-1.521,-1.5211,-1.5176,-1.496,-1.4512,-1.4452,-1.4368,-1.4303,-1.4242,-1.4449,-1.4894,-1.4945,-1.5142,-1.5625,-1.6081,-1.633,-1.6381,-1.6748,-1.7183,-1.7575,-1.8061,-1.8204,-1.8248,-1.8545,-1.876,-1.8798,-1.8875,-1.8875,-1.8798,-1.9308,-1.9813,-1.9693,-2.0183,-2.0495,-2.0399,-2.0279,-2.0441,-2.002,-2.0215,-2.0582,-2.1092,-2.1611,-2.1832,-2.1386,-2.1221,-2.104,-2.0752,-2.1305,-2.2018,-2.2061,-2.2154,-2.1999,-2.203,-2.1588,-2.1293,-2.1135,-2.0816,-2.0452,-2.1146,-2.1198,-2.1141,-2.1118,-2.1086,-2.0871,-2.034,-1.9839,-1.9221,-1.8375,-1.8027,-1.7851,-2.6115,-2.6268,-2.5761,-2.5346,-2.5099,-2.5639,-2.5517,-2.4917,-2.4917,-2.4583,-2.3966,-2.3154,-2.2701,-2.2599,-2.233,-2.2247,-2.2309,-2.2309,-2.234,-2.2316,-2.2153,-2.2037,-2.194,-2.1668,-2.1555,-2.1506,-2.1157,-2.0817,-2.0441,-1.9995,-1.972,-1.9694,-1.9434,-1.9277,-1.9109,-1.8512,-1.8131,-1.7972,-1.7235,-1.6767,-1.6522,-1.6293,-1.6067,-1.5896,-1.5873,-1.5715,-1.5483,-1.547,-1.5249,-1.4804,-1.4764,-1.4738,-1.4723,-1.4707,-1.4925,-1.537,-1.5697,-1.5925,-1.6084,-1.6309,-1.6498,-1.6717,-1.7161,-1.7544,-1.7923,-1.8375,-1.8565,-1.8497,-1.8639,-1.8751,-1.8674,-1.8674,-1.8707,-1.8674,-1.8908,-1.9042,-1.8975,-1.9208,-1.933,-1.9297,-1.9243,-1.9243,-1.9152,-1.9584,-2.0275,-2.0996,-2.1395,-2.1225,-2.0896,-2.0673,-2.0399,-2.0258,-2.0656,-2.088,-2.0976,-2.0944,-2.0987,-2.0912,-2.0709,-2.0516,-2.0452,-2.0355,-2.0226,-2.0495,-2.0495,-2.0516,-2.0505,-2.0516,-2.0387,-1.9955,-1.964,-1.9077,-1.8329,-1.7932,-1.7474,-2.6089,-2.6201,-2.5505,-2.4873,-2.4396,-2.5123,-2.5194,-2.4802,-2.4767,-2.4578,-2.4213,-2.3283,-2.2875,-2.2755,-2.2202,-2.1987,-2.2068,-2.208,-2.2068,-2.2068,-2.2156,-2.2168,-2.2051,-2.1928,-2.1842,-2.1757,-2.1369,-2.0872,-2.0318,-1.9753,-1.9497,-1.9458,-1.9192,-1.8948,-1.8735,-1.8471,-1.8178,-1.7961,-1.7451,-1.7049,-1.6737,-1.6561,-1.6343,-1.6058,-1.6025,-1.5847,-1.5521,-1.5496,-1.5351,-1.5023,-1.5023,-1.5059,-1.5173,-1.5183,-1.539,-1.5863,-1.6187,-1.6402,-1.6384,-1.6487,-1.6694,-1.7006,-1.7533,-1.7977,-1.8221,-1.8609,-1.8854,-1.8865,-1.8875,-1.8808,-1.8717,-1.8684,-1.8684,-1.864,-1.8674,-1.8674,-1.8707,-1.865,-1.8707,-1.8593,-1.8805,-1.8644,-1.8774,-1.9451,-2.0296,-2.0866,-2.0993,-2.0753,-2.0586,-2.0252,-1.9941,-1.9721,-1.9613,-1.9748,-1.9998,-2.0226,-2.0096,-2.0042,-2.0031,-1.9802,-1.977,-1.9704,-1.9704,-1.9639,-1.9737,-1.9802,-1.9802,-1.9802,-1.9682,-1.952,-1.921,-1.8753,-1.8107,-1.7765,-1.7252,-2.572,-2.5678,-2.5133,-2.4676,-2.4236,-2.4298,-2.4298,-2.4298,-2.4273,-2.4238,-2.4135,-2.3592,-2.3121,-2.2683,-2.1816,-2.1265,-2.1296,-2.1316,-2.1316,-2.1328,-2.1328,-2.1296,-2.1285,-2.1678,-2.1904,-2.1839,-2.168,-2.1277,-2.064,-1.9985,-1.9681,-1.9641,-1.8764,-1.8197,-1.8139,-1.7689,-1.7301,-1.7329,-1.7234,-1.7168,-1.7135,-1.689,-1.6275,-1.539,-1.5133,-1.519,-1.5091,-1.507,-1.5054,-1.5044,-1.5085,-1.5235,-1.5597,-1.5659,-1.5866,-1.6299,-1.6402,-1.6413,-1.6446,-1.6758,-1.7027,-1.7151,-1.7854,-1.8361,-1.8422,-1.8794,-1.9054,-1.9065,-1.9075,-1.9031,-1.9093,-1.9029,-1.9029,-1.9093,-1.9062,-1.9073,-1.9062,-1.9081,-1.8985,-1.8933,-1.9182,-1.9419,-1.9527,-2.0134,-2.0374,-2.0579,-2.0942,-2.104,-2.0413,-1.9986,-1.9485,-1.8894,-1.8591,-1.8573,-1.9737,-1.977,-1.9868,-1.977,-1.9287,-1.9077,-1.8811,-1.8687,-1.8754,-1.8821,-1.8977,-1.9077,-1.9034,-1.8944,-1.8787,-1.86,-1.8442,-1.8061,-1.7932,-1.7606,-1.7233,-2.5571,-2.531,-2.5017,-2.4659,-2.434,-2.4228,-2.4189,-2.4189,-2.4189,-2.4189,-2.4108,-2.3637,-2.3304,-2.3121,-2.2444,-2.1811,-2.1247,-2.1201,-2.1201,-2.1201,-2.1201,-2.1201,-2.1221,-2.138,-2.1463,-2.1459,-2.1432,-2.111,-2.0515,-1.9954,-1.9709,-1.9587,-1.8963,-1.8542,-1.8272,-1.779,-1.7423,-1.7228,-1.7228,-1.7228,-1.7228,-1.7106,-1.6811,-1.6438,-1.607,-1.5877,-1.5915,-1.5915,-1.5915,-1.5887,-1.5905,-1.5987,-1.6115,-1.6153,-1.6226,-1.6413,-1.6653,-1.6779,-1.6831,-1.7203,-1.7585,-1.7895,-1.8175,-1.8559,-1.8808,-1.9005,-1.9098,-1.9098,-1.9098,-1.9202,-1.9419,-1.9285,-1.9233,-1.9482,-1.9544,-1.9544,-1.9544,-1.9544,-1.951,-1.9514,-1.9749,-2.0022,-2.0195,-2.0306,-2.0454,-2.0622,-2.0562,-2.0353,-2.0079,-1.9706,-1.9251,-1.8772,-1.8471,-1.8449,-1.8573,-1.8731,-1.8731,-1.8697,-1.8496,-1.8428,-1.8269,-1.8269,-1.8371,-1.8395,-1.8462,-1.8486,-1.8519,-1.8486,-1.8259,-1.8202,-1.8008,-1.7959,-1.7812,-1.7705,-1.751,-2.5978,-2.5571,-2.544,-2.507,-2.4563,-2.4457,-2.4338,-2.4212,-2.4189,-2.4189,-2.412,-2.3786,-2.3568,-2.3384,-2.3087,-2.2478,-2.1707,-2.1535,-2.1351,-2.1201,-2.1201,-2.1201,-2.1201,-2.1201,-2.1201,-2.1201,-2.1201,-2.1006,-2.0641,-2.0159,-1.993,-1.9884,-1.9401,-1.9063,-1.8861,-1.8521,-1.8165,-1.7829,-1.7728,-1.7645,-1.739,-1.7245,-1.7162,-1.7032,-1.663,-1.6431,-1.6516,-1.6431,-1.6402,-1.6402,-1.6402,-1.6402,-1.6402,-1.6402,-1.6475,-1.6612,-1.6841,-1.7089,-1.7265,-1.7688,-1.8061,-1.8383,-1.8559,-1.8787,-1.9067,-1.9098,-1.9098,-1.9119,-1.9274,-1.9482,-1.9679,-1.9637,-1.9644,-1.9958,-1.9975,-2.001,-2.001,-2.001,-2.0048,-2.0224,-2.0365,-2.061,-2.0802,-2.0722,-2.0759,-2.0915,-2.0504,-2.0223,-2.0116,-1.9766,-1.9414,-1.9046,-1.8754,-1.851,-1.8444,-1.8428,-1.8353,-1.8255,-1.8236,-1.8076,-1.8008,-1.8008,-1.8008,-1.8008,-1.8008,-1.8008,-1.8008,-1.8008,-1.8008,-1.8008,-1.8008,-1.7978,-1.7949,-1.7978,-1.7773,-2.6881,-2.6485,-2.649,-2.5853,-2.502,-2.4875,-2.4613,-2.4292,-2.4212,-2.4189,-2.4177,-2.4154,-2.389,-2.3522,-2.3442,-2.3109,-2.2616,-2.2203,-2.1732,-2.1316,-2.1224,-2.1201,-2.1201,-2.1201,-2.1201,-2.1201,-2.1201,-2.1201,-2.1109,-2.0653,-2.0423,-2.0331,-1.993,-1.97,-1.9688,-1.9556,-1.9338,-1.8925,-1.8794,-1.8453,-1.7801,-1.7478,-1.7257,-1.6953,-1.6688,-1.666,-1.6835,-1.6576,-1.6402,-1.6402,-1.6402,-1.6384,-1.6454,-1.6464,-1.6591,-1.6955,-1.7058,-1.7275,-1.7688,-1.8143,-1.8392,-1.8538,-1.8839,-1.9046,-1.9077,-1.9098,-1.9119,-1.9233,-1.9502,-1.9793,-1.9927,-2.0162,-2.0343,-2.0395,-2.0431,-2.0431,-2.0431,-2.0395,-2.0596,-2.0928,-2.1036,-2.1199,-2.1425,-2.1392,-2.1231,-2.0982,-2.0857,-2.0691,-2.0478,-2.0146,-1.9951,-1.9679,-1.928,-1.887,-1.8568,-1.8295,-1.8174,-1.8047,-1.8052,-1.8008,-1.8008,-1.8008,-1.8008,-1.8008,-1.8008,-1.8008,-1.8008,-1.8008,-1.8008,-1.8008,-1.8008,-1.8008,-1.8008,-1.8008,-1.8008,-2.7139,-2.6944,-2.6651,-2.6329,-2.5927,-2.5233,-2.482,-2.4648,-2.4349,-2.42,-2.4189,-2.4189,-2.4097,-2.3994,-2.3959,-2.3684,-2.3213,-2.2972,-2.2479,-2.1766,-2.1342,-2.1224,-2.1213,-2.1213,-2.1201,-2.1201,-2.1201,-2.1201,-2.1167,-2.1029,-2.096,-2.0868,-2.0423,-2.0205,-2.0171,-1.9872,-1.9574,-1.9441,-1.919,-1.8872,-1.8632,-1.8328,-1.8132,-1.8013,-1.7786,-1.7677,-1.7705,-1.689,-1.6423,-1.6423,-1.6402,-1.6519,-1.6738,-1.681,-1.7017,-1.7451,-1.7781,-1.7999,-1.8185,-1.8621,-1.887,-1.8911,-1.9025,-1.9088,-1.9098,-1.9098,-1.9243,-1.9492,-1.973,-1.999,-2.0555,-2.0803,-2.086,-2.086,-2.0897,-2.0897,-2.086,-2.086,-2.0912,-2.1114,-2.1383,-2.1604,-2.1642,-2.1617,-2.1436,-2.1167,-2.1022,-2.0867,-2.0624,-2.0478,-2.0215,-1.9941,-1.958,-1.929,-1.9062,-1.8715,-1.8451,-1.8217,-1.8115,-1.8018,-1.8008,-1.8008,-1.8008,-1.8008,-1.8008,-1.8008,-1.8008,-1.8008,-1.8008,-1.8008,-1.8008,-1.8008,-1.8008,-1.794,-1.7828,-2.719,-2.7144,-2.6887,-2.6622,-2.6455,-2.5739,-2.5383,-2.5153,-2.4682,-2.4464,-2.4441,-2.4269,-2.4189,-2.4189,-2.4189,-2.4016,-2.3682,-2.351,-2.3063,-2.2399,-2.1743,-2.15,-2.141,-2.127,-2.1201,-2.1201,-2.1201,-2.1201,-2.1201,-2.1201,-2.1201,-2.1121,-2.0868,-2.0699,-2.0676,-2.04,-2.0171,-1.9968,-1.972,-1.9449,-1.9153,-1.8819,-1.8577,-1.8425,-1.8161,-1.8007,-1.7934,-1.725,-1.6881,-1.6881,-1.6881,-1.7036,-1.7244,-1.7285,-1.7471,-1.7916,-1.8206,-1.8465,-1.8662,-1.8922,-1.9098,-1.9098,-1.9098,-1.9098,-1.9098,-1.9098,-1.9305,-1.9699,-1.9924,-2.0307,-2.0948,-2.129,-2.1362,-2.1373,-2.1362,-2.1373,-2.1373,-2.1373,-2.1373,-2.1455,-2.1631,-2.1776,-2.1769,-2.1693,-2.155,-2.1369,-2.1138,-2.0945,-2.077,-2.0644,-2.04,-2.0166,-1.9932,-1.9717,-1.9531,-1.9209,-1.8838,-1.849,-1.8208,-1.8105,-1.8008,-1.8008,-1.8008,-1.8008,-1.8008,-1.8008,-1.8008,-1.8008,-1.8008,-1.8008,-1.8008,-1.8008,-1.7974,-1.7579,-1.7432,-2.719,-2.719,-2.7179,-2.6944,-2.6605,-2.6444,-2.6117,-2.5704,-2.5187,-2.4935,-2.4797,-2.4476,-2.4246,-2.4212,-2.4189,-2.4154,-2.4072,-2.3562,-2.3322,-2.2934,-2.2253,-2.172,-2.178,-2.1468,-2.1305,-2.1201,-2.1201,-2.1201,-2.1201,-2.1201,-2.1201,-2.119,-2.1155,-2.1178,-2.1109,-2.1167,-2.0868,-2.0504,-2.0385,-1.9984,-1.9392,-1.8973,-1.8657,-1.8391,-1.8082,-1.7957,-1.7916,-1.7854,-1.774,-1.7688,-1.7585,-1.7606,-1.7709,-1.773,-1.7926,-1.8371,-1.8423,-1.8596,-1.8928,-1.88,-1.8865,-1.8831,-1.8831,-1.9031,-1.8965,-1.8923,-1.9148,-1.9667,-1.9976,-2.0405,-2.0886,-2.1234,-2.1486,-2.1711,-2.1687,-2.1735,-2.1787,-2.1728,-2.1725,-2.1745,-2.1807,-2.1807,-2.1807,-2.1769,-2.1655,-2.1474,-2.1282,-2.1089,-2.0848,-2.0693,-2.0615,-2.0449,-2.0205,-2.0117,-1.9932,-1.9609,-1.9258,-1.9007,-1.8588,-1.8232,-1.8037,-1.8008,-1.8008,-1.8008,-1.8008,-1.8008,-1.8008,-1.8008,-1.8008,-1.8008,-1.8008,-1.8008,-1.7691,-1.7226,-1.6837,-2.719,-2.719,-2.719,-2.7151,-2.6967,-2.6674,-2.6404,-2.6209,-2.5688,-2.5139,-2.4883,-2.4774,-2.44,-2.4223,-2.4164,-2.4189,-2.3925,-2.3374,-2.3099,-2.2901,-2.1786,-2.1565,-2.181,-2.1768,-2.1493,-2.1206,-2.1152,-2.1201,-2.1201,-2.1169,-2.1169,-2.1201,-2.1169,-2.1201,-2.1201,-2.1169,-2.1144,-2.0954,-2.0667,-2.0484,-2.016,-1.9639,-1.934,-1.9243,-1.8844,-1.8682,-1.8713,-1.8756,-1.8371,-1.775,-1.7709,-1.7885,-1.8175,-1.8216,-1.8392,-1.8754,-1.8537,-1.8388,-1.8398,-1.8124,-1.792,-1.7852,-1.7954,-1.8022,-1.8448,-1.8385,-1.8738,-1.9304,-1.9593,-1.9742,-2.0149,-2.0372,-2.0644,-2.1088,-2.1443,-2.1731,-2.1769,-2.1807,-2.1807,-2.1807,-2.1807,-2.1807,-2.1807,-2.1769,-2.1655,-2.1397,-2.1244,-2.1089,-2.0848,-2.0693,-2.0615,-2.0615,-2.0488,-2.0468,-2.0341,-1.998,-1.9717,-1.9524,-1.9036,-1.8398,-1.8184,-1.8008,-1.8008,-1.8008,-1.8008,-1.8008,-1.8008,-1.8008,-1.8008,-1.794,-1.7613,-1.7398,-1.701,-1.6585,-1.6167,-2.6082,-2.6071,-2.6071,-2.6071,-2.6038,-2.5763,-2.5653,-2.5554,-2.5084,-2.4682,-2.4353,-2.3985,-2.3699,-2.3446,-2.3264,-2.3176,-2.3128,-2.2718,-2.2483,-2.2376,-2.1701,-2.1326,-2.125,-2.1169,-2.0962,-2.061,-2.0861,-2.0673,-2.0475,-2.086,-2.086,-2.0463,-2.0892,-2.1031,-2.0743,-2.1063,-2.1201,-2.1158,-2.0967,-2.0807,-2.0571,-2.0085,-1.9584,-1.932,-1.8965,-1.8774,-1.8764,-1.8965,-1.8828,-1.8402,-1.8309,-1.8413,-1.8652,-1.8704,-1.8828,-1.9065,-1.8607,-1.8303,-1.8212,-1.7759,-1.7407,-1.7407,-1.7407,-1.7684,-1.8035,-1.8094,-1.8435,-1.9215,-1.925,-1.9449,-1.98,-1.9894,-2.006,-2.0421,-2.0808,-2.1213,-2.1683,-2.1807,-2.1807,-2.1769,-2.1807,-2.1807,-2.1769,-2.1769,-2.1617,-2.1436,-2.1282,-2.1051,-2.0809,-2.0693,-2.0489,-2.0372,-2.0411,-2.0362,-2.0294,-2.0062,-1.9639,-1.9495,-1.9094,-1.8485,-1.8106,-1.79,-1.7915,-1.7881,-1.7949,-1.794,-1.7828,-1.7759,-1.7759,-1.7545,-1.7113,-1.6689,-1.6341,-1.5816,-1.5392,-2.4488,-2.4488,-2.4488,-2.4488,-2.4573,-2.4531,-2.4649,-2.4437,-2.4158,-2.3878,-2.3649,-2.2936,-2.2814,-2.2462,-2.2426,-2.1963,-2.1973,-2.1797,-2.1565,-2.1451,-2.1197,-2.0897,-2.027,-2.0518,-2.0309,-2.0048,-2.0386,-2.0062,-1.9828,-2.0488,-2.0248,-1.9726,-2.0366,-2.0528,-2.0172,-2.0571,-2.0903,-2.0796,-2.0656,-2.0463,-2.0172,-1.977,-1.9276,-1.8777,-1.8385,-1.8202,-1.8303,-1.8573,-1.8747,-1.8888,-1.8975,-1.8903,-1.8934,-1.8954,-1.8854,-1.8687,-1.8259,-1.7954,-1.7998,-1.7407,-1.7178,-1.7146,-1.72,-1.7514,-1.7825,-1.7923,-1.8221,-1.8986,-1.9078,-1.9166,-1.9457,-1.9668,-1.9747,-1.9874,-1.9904,-2.0489,-2.1242,-2.1606,-2.1617,-2.1606,-2.1568,-2.1606,-2.1617,-2.1568,-2.1405,-2.0508,-2.043,-2.0118,-1.9923,-1.9726,-1.9726,-1.9844,-1.9923,-2.0118,-2.0118,-2.008,-1.963,-1.9269,-1.8854,-1.8322,-1.7825,-1.7624,-1.7687,-1.7661,-1.7201,-1.7157,-1.7295,-1.7295,-1.726,-1.6941,-1.6332,-1.6018,-1.5737,-1.5002,-1.4474,-2.4488,-2.4488,-2.4488,-2.4488,-2.4488,-2.4488,-2.4488,-2.4435,-2.4342,-2.3905,-2.368,-2.3433,-2.3114,-2.2806,-2.2295,-2.2265,-2.1949,-2.1209,-2.0459,-1.9835,-1.9844,-1.9739,-1.9697,-2.025,-2.0462,-2.015,-2.0153,-1.9951,-1.9699,-1.9633,-1.9655,-1.9183,-1.9327,-1.9408,-1.933,-1.9452,-1.9464,-1.9464,-1.9398,-1.9365,-1.9199,-1.8834,-1.8465,-1.8138,-1.7774,-1.7613,-1.7588,-1.7716,-1.775,-1.7862,-1.8221,-1.8444,-1.8448,-1.809,-1.7886,-1.7759,-1.7358,-1.7038,-1.6899,-1.6658,-1.6316,-1.6606,-1.674,-1.6963,-1.7705,-1.7665,-1.7896,-1.8336,-1.8355,-1.843,-1.8559,-1.8944,-1.9143,-1.9253,-1.9559,-1.9904,-2.0255,-2.0333,-2.0421,-2.0411,-2.0411,-2.0333,-2.0333,-2.0138,-1.9943,-1.959,-1.9304,-1.8908,-1.8838,-1.8847,-1.8966,-1.9116,-1.9116,-1.9204,-1.9204,-1.9234,-1.904,-1.8818,-1.8513,-1.7948,-1.7439,-1.7207,-1.7225,-1.6794,-1.614,-1.6271,-1.6664,-1.6455,-1.6315,-1.5913,-1.5587,-1.5278,-1.4859,-1.415,-1.3876,-2.3193,-2.3202,-2.3202,-2.3193,-2.3202,-2.3202,-2.3193,-2.3202,-2.3159,-2.3032,-2.2797,-2.2601,-2.2324,-2.21,-2.168,-2.1406,-2.1043,-2.028,-1.9539,-1.9112,-1.9033,-1.9042,-1.9054,-1.9511,-1.9716,-1.9451,-1.9725,-1.9442,-1.8932,-1.9162,-1.9178,-1.8449,-1.8705,-1.8841,-1.8614,-1.8687,-1.879,-1.879,-1.87,-1.86,-1.8365,-1.8162,-1.7696,-1.7432,-1.7123,-1.7028,-1.7028,-1.7304,-1.7373,-1.7464,-1.7666,-1.7918,-1.8061,-1.7681,-1.7358,-1.7125,-1.7031,-1.6883,-1.6777,-1.6587,-1.6422,-1.6539,-1.6619,-1.6975,-1.7415,-1.7527,-1.7709,-1.8,-1.8063,-1.8031,-1.804,-1.8241,-1.8523,-1.8594,-1.8816,-1.9006,-1.9085,-1.9511,-1.9894,-1.9894,-1.9972,-1.9855,-1.962,-1.9225,-1.8979,-1.8859,-1.874,-1.8421,-1.835,-1.8359,-1.8278,-1.8318,-1.8198,-1.8198,-1.8198,-1.8221,-1.8266,-1.821,-1.8171,-1.7501,-1.6842,-1.6695,-1.6641,-1.6128,-1.5623,-1.5745,-1.5983,-1.571,-1.5428,-1.5207,-1.4887,-1.4502,-1.415,-1.384,-1.3666,-2.1687,-2.1687,-2.1687,-2.1687,-2.1687,-2.1776,-2.182,-2.1776,-2.1687,-2.1882,-2.1676,-2.1337,-2.1497,-2.1204,-2.0906,-2.0374,-1.9893,-1.9511,-1.9137,-1.882,-1.878,-1.878,-1.8803,-1.8859,-1.8804,-1.8524,-1.9057,-1.872,-1.8321,-1.8638,-1.8636,-1.7833,-1.8277,-1.8392,-1.8093,-1.817,-1.8311,-1.8281,-1.8232,-1.8108,-1.789,-1.7811,-1.7367,-1.6962,-1.6759,-1.6768,-1.6812,-1.7078,-1.7313,-1.7346,-1.7234,-1.7421,-1.7642,-1.7527,-1.7186,-1.6863,-1.6973,-1.7071,-1.7032,-1.6939,-1.6876,-1.697,-1.7004,-1.7184,-1.7505,-1.7634,-1.7771,-1.7886,-1.7991,-1.7991,-1.7991,-1.8072,-1.8072,-1.8072,-1.8031,-1.7991,-1.8193,-1.9006,-1.9353,-1.9471,-1.9274,-1.9085,-1.8877,-1.8559,-1.835,-1.8141,-1.802,-1.7859,-1.7747,-1.7594,-1.7399,-1.7196,-1.7033,-1.6952,-1.6952,-1.7074,-1.7123,-1.7269,-1.7382,-1.6943,-1.6222,-1.6039,-1.5861,-1.5671,-1.5373,-1.5361,-1.5185,-1.4903,-1.4689,-1.451,-1.433,-1.4049,-1.3768,-1.3521,-1.3492,-2.1687,-2.1687,-2.1687,-2.1687,-2.1687,-2.1687,-2.1687,-2.1687,-2.1687,-2.1687,-2.1678,-2.1623,-2.1549,-2.1458,-2.12,-2.0537,-1.9869,-1.9466,-1.9138,-1.8771,-1.8678,-1.866,-1.862,-1.862,-1.855,-1.8541,-1.8699,-1.8455,-1.8118,-1.8204,-1.8134,-1.7667,-1.7711,-1.7712,-1.7694,-1.7659,-1.7697,-1.7688,-1.7606,-1.7469,-1.7396,-1.7258,-1.7111,-1.6833,-1.6807,-1.6833,-1.6848,-1.6919,-1.6991,-1.6991,-1.6977,-1.7139,-1.7356,-1.7222,-1.697,-1.6802,-1.6922,-1.705,-1.7047,-1.6985,-1.7107,-1.7287,-1.7381,-1.7543,-1.7769,-1.792,-1.7897,-1.7931,-1.7991,-1.7991,-1.7991,-1.7991,-1.7991,-1.7991,-1.7991,-1.7991,-1.808,-1.8273,-1.8465,-1.8496,-1.8385,-1.8264,-1.8014,-1.7723,-1.7318,-1.6992,-1.6747,-1.6591,-1.6476,-1.6278,-1.6079,-1.5873,-1.5707,-1.5707,-1.5707,-1.5831,-1.5906,-1.6064,-1.6173,-1.6173,-1.5613,-1.5279,-1.5085,-1.5096,-1.4779,-1.4452,-1.4248,-1.4162,-1.4057,-1.3941,-1.3804,-1.3666,-1.3557,-1.3492,-1.3492,-2.1687,-2.1687,-2.1687,-2.1687,-2.1687,-2.1687,-2.1687,-2.1687,-2.1687,-2.1687,-2.1687,-2.1687,-2.1687,-2.1632,-2.1513,-2.0916,-2.0171,-1.9425,-1.9047,-1.869,-1.8467,-1.8331,-1.8379,-1.8379,-1.8282,-1.8233,-1.8264,-1.8284,-1.8052,-1.8035,-1.7913,-1.7791,-1.76,-1.747,-1.7418,-1.729,-1.7226,-1.72,-1.7125,-1.7087,-1.7078,-1.6935,-1.6935,-1.6935,-1.6935,-1.6918,-1.6918,-1.6918,-1.691,-1.6944,-1.7107,-1.7218,-1.7295,-1.7381,-1.7265,-1.7038,-1.709,-1.7201,-1.7261,-1.7355,-1.7612,-1.7723,-1.7749,-1.7834,-1.794,-1.7983,-1.7991,-1.7991,-1.7991,-1.7991,-1.7991,-1.7991,-1.7991,-1.7991,-1.7991,-1.7991,-1.7991,-1.7991,-1.791,-1.7789,-1.7749,-1.7627,-1.718,-1.6771,-1.6245,-1.588,-1.5548,-1.5472,-1.5431,-1.5389,-1.5389,-1.5431,-1.5431,-1.5431,-1.5431,-1.5431,-1.5389,-1.5389,-1.5389,-1.5389,-1.5401,-1.5226,-1.4992,-1.4828,-1.4394,-1.4033,-1.3881,-1.3969,-1.3697,-1.3492,-1.3521,-1.3557,-1.3521,-1.3492,-1.3492,-2.1687,-2.1687,-2.1687,-2.1687,-2.1687,-2.1687,-2.1687,-2.1687,-2.1687,-2.1687,-2.1687,-2.1687,-2.1687,-2.1687,-2.1587,-2.1219,-2.0447,-1.9577,-1.919,-1.8757,-1.8509,-1.828,-1.8168,-1.8094,-1.8134,-1.8072,-1.808,-1.7991,-1.8029,-1.8029,-1.8014,-1.7934,-1.7672,-1.7586,-1.7574,-1.742,-1.7167,-1.7141,-1.715,-1.715,-1.7103,-1.7103,-1.7103,-1.7111,-1.7103,-1.7145,-1.7235,-1.7205,-1.7197,-1.7256,-1.7424,-1.7543,-1.7526,-1.7769,-1.7795,-1.7535,-1.7526,-1.7569,-1.7655,-1.7792,-1.7889,-1.7923,-1.7974,-1.7991,-1.7991,-1.7991,-1.7991,-1.7991,-1.7991,-1.7991,-1.7991,-1.7991,-1.7991,-1.7991,-1.7991,-1.7991,-1.7991,-1.7951,-1.7789,-1.7635,-1.7392,-1.7025,-1.6656,-1.6451,-1.6087,-1.5756,-1.5472,-1.5472,-1.5389,-1.5389,-1.5389,-1.5389,-1.5431,-1.5431,-1.5431,-1.5431,-1.5389,-1.5389,-1.5389,-1.5389,-1.5389,-1.5394,-1.5119,-1.4907,-1.4608,-1.4326,-1.407,-1.3836,-1.3682,-1.3587,-1.3528,-1.3492,-1.3492,-1.3492,-1.3492,-2.1687,-2.1687,-2.1687,-2.1687,-2.1687,-2.1687,-2.1687,-2.1687,-2.1687,-2.1687,-2.1687,-2.1687,-2.1687,-2.1687,-2.1642,-2.1193,-2.0632,-2.0192,-1.9678,-1.9153,-1.8973,-1.8768,-1.8562,-1.8519,-1.8331,-1.8168,-1.8042,-1.7991,-1.7991,-1.7991,-1.7991,-1.7957,-1.794,-1.7914,-1.7877,-1.7743,-1.7871,-1.7846,-1.7829,-1.782,-1.7803,-1.7795,-1.7786,-1.7795,-1.7795,-1.7769,-1.7726,-1.7718,-1.7743,-1.7786,-1.7854,-1.7914,-1.7931,-1.7948,-1.7983,-1.7923,-1.7931,-1.7931,-1.7914,-1.7957,-1.7991,-1.7991,-1.7991,-1.7991,-1.7991,-1.7991,-1.7991,-1.7991,-1.7991,-1.7991,-1.7991,-1.7991,-1.7991,-1.7991,-1.7991,-1.7991,-1.7991,-1.7991,-1.7789,-1.7351,-1.7106,-1.6656,-1.6211,-1.6128,-1.5963,-1.5639,-1.5389,-1.5389,-1.5389,-1.5389,-1.5389,-1.5389,-1.5389,-1.5389,-1.5389,-1.5389,-1.5389,-1.5389,-1.5389,-1.5389,-1.5389,-1.5389,-1.5389,-1.5155,-1.4863,-1.4596,-1.4289,-1.4033,-1.3814,-1.3667,-1.3579,-1.3528,-1.3492,-1.3492,-1.3492,-2.1687,-2.1687,-2.1687,-2.1687,-2.1687,-2.1687,-2.1687,-2.1687,-2.1687,-2.1687,-2.1687,-2.1687,-2.1651,-2.1517,-2.1374,-2.106,-2.0615,-2.0245,-1.9886,-1.9505,-1.9299,-1.9144,-1.9007,-1.8896,-1.8716,-1.8434,-1.8314,-1.8203,-1.8085,-1.8017,-1.7991,-1.7991,-1.7991,-1.7974,-1.7991,-1.7991,-1.7983,-1.7974,-1.7983,-1.7991,-1.7991,-1.7991,-1.7991,-1.7991,-1.7991,-1.7991,-1.7991,-1.7991,-1.7991,-1.7991,-1.7991,-1.7991,-1.7991,-1.7991,-1.7991,-1.7991,-1.7991,-1.7983,-1.7983,-1.7991,-1.7991,-1.7991,-1.7991,-1.7991,-1.7991,-1.7991,-1.7991,-1.7991,-1.7991,-1.7991,-1.7991,-1.7991,-1.7991,-1.7991,-1.7991,-1.7991,-1.7991,-1.7951,-1.7789,-1.731,-1.6779,-1.6376,-1.5963,-1.5797,-1.5714,-1.5597,-1.5389,-1.5389,-1.5389,-1.5389,-1.5389,-1.5389,-1.5389,-1.5389,-1.5389,-1.5389,-1.5389,-1.5389,-1.5389,-1.5389,-1.5389,-1.5389,-1.5389,-1.5389,-1.5206,-1.4911,-1.4545,-1.4238,-1.3989,-1.3806,-1.3631,-1.3572,-1.3521,-1.3492,-1.3492,-2.1687,-2.1687,-2.1687,-2.1687,-2.1687,-2.1687,-2.1687,-2.1687,-2.1687,-2.1687,-2.1696,-2.1651,-2.1517,-2.1284,-2.1096,-2.0943,-2.0673,-2.0179,-1.9942,-1.9761,-1.9607,-1.9436,-1.9341,-1.929,-1.911,-1.8733,-1.8733,-1.8622,-1.8425,-1.8254,-1.8168,-1.8008,-1.7991,-1.7991,-1.7991,-1.7991,-1.7991,-1.7991,-1.7991,-1.7991,-1.7991,-1.7991,-1.7991,-1.7991,-1.7991,-1.7991,-1.7991,-1.7991,-1.7991,-1.7991,-1.7991,-1.7991,-1.7991,-1.7991,-1.7991,-1.7991,-1.7991,-1.7991,-1.7991,-1.7991,-1.7991,-1.7991,-1.7991,-1.7991,-1.7991,-1.7991,-1.7991,-1.7991,-1.7991,-1.7991,-1.7991,-1.7991,-1.7991,-1.7991,-1.7991,-1.7991,-1.7991,-1.7878,-1.7635,-1.7066,-1.6574,-1.6121,-1.5797,-1.5555,-1.5431,-1.5431,-1.5389,-1.5389,-1.5389,-1.5389,-1.5389,-1.5389,-1.5389,-1.5389,-1.5389,-1.5389,-1.5389,-1.5389,-1.5389,-1.5389,-1.5389,-1.5389,-1.5389,-1.5389,-1.5389,-1.5243,-1.4915,-1.4553,-1.4165,-1.396,-1.377,-1.3631,-1.3558,-1.3528,-1.3492,-2.1687,-2.1687,-2.1687,-2.1687,-2.1687,-2.1687,-2.1687,-2.1687,-2.1687,-2.1687,-2.1651,-2.1517,-2.1284,-2.1051,-2.0952,-2.0862,-2.0699,-2.0628,-2.0387,-2.0243,-2.0189,-1.9941,-1.9795,-1.965,-1.9513,-1.9187,-1.9127,-1.9102,-1.8982,-1.8648,-1.8382,-1.8051,-1.8051,-1.8017,-1.7991,-1.7991,-1.7991,-1.7991,-1.7991,-1.7991,-1.7991,-1.7991,-1.7991,-1.7991,-1.7991,-1.7991,-1.7991,-1.7991,-1.7991,-1.7991,-1.7991,-1.7991,-1.7991,-1.7991,-1.7991,-1.7991,-1.7991,-1.8017,-1.8059,-1.8025,-1.7991,-1.7991,-1.8025,-1.8076,-1.8094,-1.8034,-1.8008,-1.8094,-1.8194,-1.8111,-1.8068,-1.8017,-1.822,-1.8237,-1.8263,-1.8136,-1.8021,-1.7765,-1.7441,-1.682,-1.6409,-1.6079,-1.5673,-1.5472,-1.5389,-1.5389,-1.5389,-1.5389,-1.5389,-1.5389,-1.5389,-1.5389,-1.5389,-1.5389,-1.5389,-1.5389,-1.5389,-1.5389,-1.5389,-1.5389,-1.5389,-1.5389,-1.5389,-1.5389,-1.5389,-1.536,-1.5316,-1.4977,-1.4589,-1.4172,-1.3923,-1.385,-1.3718,-1.3645,-1.3572,-2.1463,-2.1687,-2.1562,-2.1562,-2.1687,-2.1687,-2.1687,-2.1687,-2.1687,-2.1607,-2.1517,-2.1239,-2.1015,-2.0871,-2.0789,-2.069,-2.0473,-2.0473,-2.0382,-2.0337,-2.0249,-2.0198,-2.0086,-2.0009,-1.9889,-1.9598,-1.9513,-1.9358,-1.9179,-1.9067,-1.893,-1.8674,-1.8282,-1.8034,-1.7991,-1.8068,-1.8042,-1.8017,-1.8017,-1.8008,-1.7991,-1.7991,-1.7991,-1.7991,-1.7991,-1.7991,-1.7991,-1.7991,-1.7991,-1.8017,-1.8034,-1.8059,-1.8076,-1.8068,-1.8059,-1.8059,-1.8068,-1.8153,-1.8297,-1.8162,-1.8,-1.8059,-1.8188,-1.8333,-1.8333,-1.8374,-1.8528,-1.8579,-1.8494,-1.8434,-1.8708,-1.8742,-1.8776,-1.8682,-1.8562,-1.8425,-1.8216,-1.7993,-1.7516,-1.7036,-1.6627,-1.6245,-1.5839,-1.5431,-1.5389,-1.5389,-1.5389,-1.5389,-1.5389,-1.5389,-1.5389,-1.5389,-1.5389,-1.5389,-1.5389,-1.5389,-1.5389,-1.5389,-1.5389,-1.5389,-1.5389,-1.5389,-1.5389,-1.5389,-1.5389,-1.5374,-1.5338,-1.5272,-1.5021,-1.4575,-1.4311,-1.415,-1.4034,-1.3814,-1.3637,-2.1186,-2.1463,-2.1329,-2.1428,-2.1696,-2.1651,-2.1616,-2.1607,-2.1508,-2.1374,-2.1159,-2.097,-2.0781,-2.0654,-2.0564,-2.0518,-2.0337,-2.0337,-2.0292,-2.0292,-2.0292,-2.0292,-2.0292,-2.024,-2.0121,-1.9932,-1.9881,-1.9744,-1.959,-1.9418,-1.9333,-1.9119,-1.8742,-1.8494,-1.8417,-1.8365,-1.8331,-1.8237,-1.8331,-1.8374,-1.84,-1.8408,-1.8417,-1.8425,-1.8451,-1.8459,-1.8468,-1.8485,-1.8459,-1.8451,-1.8434,-1.8408,-1.8391,-1.8374,-1.8374,-1.8365,-1.84,-1.8502,-1.8596,-1.8571,-1.8382,-1.8511,-1.8622,-1.8742,-1.8751,-1.8759,-1.8879,-1.9025,-1.8896,-1.8888,-1.9196,-1.9085,-1.905,-1.8939,-1.887,-1.8759,-1.8641,-1.8372,-1.782,-1.7267,-1.6831,-1.6346,-1.5925,-1.5562,-1.544,-1.5425,-1.5389,-1.5389,-1.5389,-1.5389,-1.5389,-1.5389,-1.5389,-1.5389,-1.5389,-1.5389,-1.5389,-1.5389,-1.5389,-1.5389,-1.5389,-1.5389,-1.5389,-1.5389,-1.5389,-1.5389,-1.5367,-1.5323,-1.5155,-1.4922,-1.4684,-1.4384,-1.4159,-1.3947,-1.3591,-2.0988,-2.0997,-2.1042,-2.1275,-2.1597,-2.1472,-2.1392,-2.1338,-2.1141,-2.0961,-2.0789,-2.069,-2.0555,-2.0382,-2.0382,-2.0337,-2.0337,-2.0292,-2.0292,-2.0292,-2.0292,-2.0292,-2.0292,-2.0275,-2.0249,-2.0283,-2.0206,-2.0146,-2.0155,-1.9864,-1.9744,-1.965,-1.935,-1.9119,-1.9136,-1.9127,-1.8939,-1.8691,-1.8973,-1.899,-1.8999,-1.8982,-1.8965,-1.8956,-1.8956,-1.893,-1.8922,-1.8922,-1.8913,-1.8922,-1.8939,-1.8948,-1.8965,-1.8982,-1.899,-1.9016,-1.9042,-1.9093,-1.9187,-1.9144,-1.9016,-1.8973,-1.9042,-1.9144,-1.9196,-1.9213,-1.9273,-1.9401,-1.923,-1.9187,-1.9222,-1.9247,-1.9307,-1.9307,-1.9256,-1.9153,-1.9025,-1.8795,-1.8253,-1.7728,-1.7079,-1.646,-1.6044,-1.5709,-1.5584,-1.5476,-1.5411,-1.5396,-1.5403,-1.5389,-1.5389,-1.5389,-1.5389,-1.5389,-1.5389,-1.5389,-1.5389,-1.5389,-1.5389,-1.5389,-1.5389,-1.5389,-1.5389,-1.5389,-1.5389,-1.5389,-1.5389,-1.5382,-1.5228,-1.5075,-1.4838,-1.4589,-1.4337,-1.4009,-1.3666,-2.0727,-2.0988,-2.0871,-2.0961,-2.1221,-2.1141,-2.1141,-2.1105,-2.0925,-2.0744,-2.0654,-2.0518,-2.0382,-2.0337,-2.0292,-2.0292,-2.0292,-2.0292,-2.0292,-2.0292,-2.0292,-2.0292,-2.0292,-2.0292,-2.0292,-2.0292,-2.0292,-2.0292,-2.0257,-2.0103,-2.0103,-2.0043,-1.9783,-1.9641,-1.9307,-1.9213,-1.9119,-1.9016,-1.911,-1.9162,-1.9187,-1.9204,-1.9222,-1.923,-1.9239,-1.9247,-1.9299,-1.9316,-1.9273,-1.9178,-1.9143,-1.9126,-1.9118,-1.9118,-1.9179,-1.9213,-1.9204,-1.9307,-1.9303,-1.927,-1.9043,-1.9148,-1.9236,-1.9311,-1.9503,-1.9547,-1.9667,-1.9664,-1.936,-1.9447,-1.9864,-1.987,-1.9905,-1.9898,-1.9812,-1.9615,-1.94,-1.9153,-1.8777,-1.828,-1.769,-1.6916,-1.6379,-1.6066,-1.5891,-1.5782,-1.5738,-1.5506,-1.5455,-1.5411,-1.5389,-1.5389,-1.5389,-1.5389,-1.5389,-1.5389,-1.5389,-1.5389,-1.5389,-1.5389,-1.5389,-1.5347,-1.5305,-1.5257,-1.5347,-1.5389,-1.518,-1.5041,-1.5311,-1.524,-1.4777,-1.4633,-1.4561,-1.4203,-1.3772,-2.0464,-2.0736,-2.06,-2.0654,-2.0772,-2.0862,-2.0871,-2.0727,-2.06,-2.0564,-2.0518,-2.0382,-2.0292,-2.0292,-2.0292,-2.0292,-2.0292,-2.0292,-2.0292,-2.0292,-2.0292,-2.0292,-2.0292,-2.0238,-2.0292,-2.0292,-2.0292,-2.0292,-2.0292,-2.0292,-2.0266,-2.0212,-1.9957,-1.9401,-1.9198,-1.9308,-1.9521,-1.9495,-1.9521,-1.9685,-1.9632,-1.9615,-1.9607,-1.9615,-1.9607,-1.9642,-1.9616,-1.9512,-1.9363,-1.9171,-1.8996,-1.8855,-1.8767,-1.8872,-1.8968,-1.9065,-1.909,-1.8985,-1.8696,-1.8506,-1.8297,-1.8382,-1.8771,-1.8852,-1.8868,-1.8635,-1.8776,-1.8878,-1.904,-1.9105,-1.9227,-1.9401,-1.9376,-1.931,-1.9472,-1.9228,-1.9259,-1.8982,-1.9109,-1.8671,-1.8049,-1.7305,-1.6551,-1.6477,-1.6235,-1.6133,-1.603,-1.5733,-1.5472,-1.5484,-1.5376,-1.5305,-1.5305,-1.5305,-1.5347,-1.5389,-1.5389,-1.5389,-1.5305,-1.5222,-1.5257,-1.5173,-1.5124,-1.4999,-1.4706,-1.4538,-1.458,-1.4608,-1.4594,-1.4594,-1.4413,-1.4421,-1.4673,-1.4206,-1.358,-2.0201,-2.0201,-2.0192,-2.0147,-2.0192,-2.0275,-2.0329,-2.0246,-2.0292,-2.0292,-2.0238,-2.0147,-1.9957,-2.0011,-2.0056,-1.9957,-1.9866,-1.9911,-1.9866,-1.9911,-1.9637,-1.982,-1.9866,-1.9866,-1.9637,-1.9866,-1.9911,-1.9538,-2.0056,-1.9729,-1.9729,-1.9774,-1.9072,-1.873,-1.8827,-1.9097,-1.9306,-1.9186,-1.9244,-1.9344,-1.9298,-1.9805,-1.9619,-1.9566,-1.9627,-1.9627,-1.9591,-1.9554,-1.9216,-1.8959,-1.8662,-1.8126,-1.7964,-1.8265,-1.8549,-1.8718,-1.867,-1.8203,-1.7741,-1.7561,-1.7274,-1.7298,-1.7155,-1.7228,-1.7531,-1.7757,-1.7887,-1.7864,-1.7857,-1.7656,-1.7569,-1.7669,-1.7716,-1.7979,-1.8349,-1.8433,-1.867,-1.8806,-1.9125,-1.8808,-1.8128,-1.7319,-1.6382,-1.6109,-1.6062,-1.5878,-1.5683,-1.556,-1.5409,-1.5565,-1.5436,-1.5124,-1.5124,-1.5173,-1.5173,-1.4922,-1.4838,-1.4671,-1.4838,-1.479,-1.4873,-1.479,-1.4531,-1.4237,-1.3815,-1.3688,-1.3942,-1.3864,-1.3646,-1.3652,-1.3857,-1.3999,-1.4171,-1.3697,-1.3088,-1.818,-1.818,-1.8133,-1.818,-1.818,-1.8272,-1.8596,-1.9255,-1.992,-1.9965,-1.9209,-1.9255,-1.8934,-1.818,-1.818,-1.8226,-1.8226,-1.8141,-1.8133,-1.8226,-1.8511,-1.828,-1.8226,-1.8365,-1.8234,-1.8272,-1.8272,-1.8411,-1.8226,-1.8272,-1.8272,-1.7987,-1.7948,-1.7809,-1.7855,-1.7994,-1.8003,-1.811,-1.8234,-1.8442,-1.8603,-1.8934,-1.8788,-1.865,-1.9026,-1.8934,-1.8557,-1.8419,-1.8087,-1.7855,-1.7716,-1.7436,-1.7475,-1.7623,-1.7716,-1.7716,-1.7708,-1.7569,-1.7242,-1.6633,-1.6217,-1.6075,-1.5704,-1.6217,-1.6727,-1.7102,-1.7055,-1.6915,-1.6868,-1.6774,-1.6727,-1.6774,-1.6727,-1.6868,-1.7188,-1.7375,-1.7561,-1.7755,-1.8041,-1.7817,-1.7152,-1.6746,-1.5846,-1.5603,-1.5544,-1.5425,-1.5338,-1.5263,-1.5167,-1.5273,-1.5177,-1.4867,-1.4657,-1.4615,-1.4243,-1.3948,-1.3948,-1.3942,-1.4153,-1.4237,-1.4068,-1.3942,-1.3773,-1.3476,-1.3137,-1.3179,-1.3483,-1.327,-1.2973,-1.327,-1.3525,-1.3561,-1.3519,-1.3088,-1.2705,-1.7289,-1.7289,-1.7289,-1.7063,-1.6828,-1.7149,-1.7483,-1.7809,-1.8696,-1.8742,-1.8234,-1.8226,-1.7863,-1.7475,-1.7429,-1.7429,-1.7429,-1.7522,-1.7475,-1.7522,-1.7196,-1.7429,-1.7336,-1.7242,-1.7429,-1.7289,-1.7289,-1.7569,-1.7196,-1.7289,-1.7382,-1.7382,-1.7016,-1.6734,-1.664,-1.6358,-1.6075,-1.6438,-1.6774,-1.7149,-1.7522,-1.7855,-1.7623,-1.7475,-1.7994,-1.7716,-1.7336,-1.7196,-1.7055,-1.6781,-1.6734,-1.6452,-1.6405,-1.6405,-1.6687,-1.6687,-1.6687,-1.6405,-1.5934,-1.5514,-1.5276,-1.5092,-1.4675,-1.5051,-1.5466,-1.5839,-1.5839,-1.5839,-1.5934,-1.6028,-1.6075,-1.6075,-1.5927,-1.5832,-1.6015,-1.6243,-1.6344,-1.6398,-1.6398,-1.6304,-1.6008,-1.5724,-1.5345,-1.5146,-1.5086,-1.5186,-1.513,-1.5,-1.4774,-1.4597,-1.4489,-1.4243,-1.4041,-1.3899,-1.3496,-1.3284,-1.3387,-1.3508,-1.3652,-1.3652,-1.3355,-1.3094,-1.2924,-1.2711,-1.2454,-1.2589,-1.2631,-1.2546,-1.2375,-1.2674,-1.2759,-1.2589,-1.2583,-1.2625,-1.2283,-1.7008,-1.7008,-1.7055,-1.6452,-1.5893,-1.6586,-1.6499,-1.5846,-1.6687,-1.7102,-1.7156,-1.7203,-1.7063,-1.664,-1.6633,-1.664,-1.6593,-1.6586,-1.6546,-1.7008,-1.664,-1.6593,-1.664,-1.6962,-1.6499,-1.6821,-1.6868,-1.6445,-1.6828,-1.6687,-1.6539,-1.7008,-1.617,-1.5704,-1.5561,-1.5092,-1.4908,-1.5092,-1.5893,-1.6546,-1.6781,-1.7016,-1.7156,-1.6962,-1.7055,-1.7063,-1.6969,-1.6828,-1.664,-1.6035,-1.5561,-1.5235,-1.514,-1.5188,-1.5561,-1.5704,-1.5656,-1.5371,-1.4997,-1.4675,-1.4532,-1.4442,-1.4346,-1.449,-1.4765,-1.4956,-1.5003,-1.5003,-1.5099,-1.5146,-1.514,-1.514,-1.5038,-1.4997,-1.5086,-1.508,-1.5026,-1.508,-1.5032,-1.4937,-1.4841,-1.4567,-1.4472,-1.4244,-1.4196,-1.4567,-1.4626,-1.442,-1.4297,-1.3985,-1.3856,-1.3693,-1.3623,-1.343,-1.3095,-1.2934,-1.2997,-1.3126,-1.3107,-1.2973,-1.2625,-1.2369,-1.2069,-1.1989,-1.1903,-1.165,-1.1607,-1.1693,-1.178,-1.1736,-1.1736,-1.1483,-1.1564,-1.1946,-1.1897,-1.5003,-1.5051,-1.5003,-1.486,-1.4669,-1.4908,-1.4908,-1.4675,-1.486,-1.552,-1.6075,-1.6123,-1.5751,-1.5324,-1.5283,-1.5283,-1.5235,-1.5466,-1.5099,-1.5188,-1.5235,-1.5473,-1.5146,-1.5425,-1.5235,-1.4997,-1.4997,-1.5235,-1.533,-1.5235,-1.5092,-1.5099,-1.4771,-1.4813,-1.4813,-1.4346,-1.4346,-1.4388,-1.4813,-1.5378,-1.5378,-1.5751,-1.594,-1.5656,-1.5561,-1.5697,-1.5561,-1.5146,-1.4956,-1.4669,-1.4669,-1.4484,-1.4346,-1.458,-1.4621,-1.4669,-1.4765,-1.458,-1.4442,-1.4298,-1.4298,-1.4298,-1.4298,-1.4298,-1.4346,-1.4298,-1.4298,-1.4298,-1.4298,-1.4298,-1.4298,-1.4298,-1.425,-1.425,-1.4208,-1.4004,-1.3854,-1.3806,-1.3806,-1.3757,-1.3661,-1.3619,-1.3522,-1.348,-1.3383,-1.3335,-1.3286,-1.323,-1.3301,-1.3145,-1.3309,-1.3201,-1.3225,-1.3046,-1.269,-1.2514,-1.2604,-1.2368,-1.2241,-1.2086,-1.1914,-1.1817,-1.1688,-1.1521,-1.1354,-1.1311,-1.1311,-1.1354,-1.1354,-1.1311,-1.1311,-1.1311,-1.1311,-1.1564,-1.1521,-1.4298,-1.4298,-1.4298,-1.4298,-1.4298,-1.4298,-1.4298,-1.4298,-1.4298,-1.4621,-1.5099,-1.5092,-1.4813,-1.4292,-1.4298,-1.4298,-1.4298,-1.4346,-1.449,-1.4394,-1.4298,-1.4442,-1.4298,-1.4298,-1.4442,-1.4346,-1.4298,-1.4394,-1.4298,-1.4346,-1.4442,-1.4298,-1.4298,-1.4298,-1.4298,-1.4298,-1.4298,-1.4298,-1.4298,-1.4298,-1.4298,-1.4771,-1.4956,-1.4627,-1.4675,-1.4717,-1.4627,-1.4298,-1.4298,-1.4346,-1.4394,-1.4394,-1.4298,-1.4394,-1.4346,-1.4346,-1.4394,-1.4298,-1.4298,-1.4298,-1.4298,-1.4298,-1.4298,-1.4298,-1.4298,-1.4298,-1.4298,-1.4298,-1.4298,-1.4298,-1.4298,-1.4298,-1.4298,-1.425,-1.4064,-1.3877,-1.3534,-1.3286,-1.3238,-1.319,-1.3141,-1.3141,-1.3098,-1.3098,-1.3001,-1.3001,-1.2856,-1.2807,-1.2748,-1.271,-1.2775,-1.2819,-1.2881,-1.2734,-1.2366,-1.222,-1.2181,-1.1852,-1.1661,-1.1598,-1.1679,-1.1462,-1.1311,-1.1311,-1.1311,-1.1311,-1.1311,-1.1311,-1.1311,-1.1311,-1.1311,-1.1311,-1.1311,-1.1311,-1.1311,-1.4298,-1.4298,-1.4298,-1.4298,-1.4298,-1.4298,-1.4298,-1.4298,-1.4298,-1.4298,-1.4394,-1.4394,-1.4298,-1.4298,-1.4298,-1.4298,-1.4298,-1.4298,-1.4298,-1.4298,-1.4298,-1.4298,-1.4298,-1.4298,-1.4298,-1.4298,-1.4298,-1.4298,-1.4298,-1.4298,-1.4298,-1.4298,-1.4298,-1.4298,-1.4298,-1.4298,-1.4298,-1.4298,-1.4298,-1.4298,-1.4298,-1.4298,-1.4346,-1.4346,-1.4298,-1.4298,-1.4298,-1.4298,-1.4298,-1.4298,-1.4298,-1.4298,-1.4298,-1.4298,-1.4298,-1.4298,-1.4298,-1.4298,-1.4298,-1.4298,-1.4298,-1.4298,-1.4298,-1.4298,-1.4298,-1.4298,-1.4298,-1.4298,-1.4298,-1.4298,-1.4298,-1.4298,-1.4298,-1.4202,-1.3973,-1.369,-1.3298,-1.291,-1.2861,-1.2813,-1.2807,-1.2807,-1.2807,-1.2807,-1.2807,-1.2807,-1.2807,-1.2807,-1.2802,-1.2775,-1.2785,-1.2777,-1.2731,-1.2488,-1.2235,-1.2154,-1.2143,-1.2067,-1.1903,-1.1671,-1.1434,-1.137,-1.1327,-1.1311,-1.1311,-1.1311,-1.1311,-1.1311,-1.1311,-1.1311,-1.1311,-1.1311,-1.1311,-1.1311,-1.1311,-1.4298,-1.4298,-1.4298,-1.4298,-1.4298,-1.4298,-1.4298,-1.4298,-1.4298,-1.4298,-1.4298,-1.4298,-1.4298,-1.4298,-1.4298,-1.4298,-1.4298,-1.4298,-1.4298,-1.4298,-1.4298,-1.4298,-1.4298,-1.4298,-1.4298,-1.4298,-1.4298,-1.4298,-1.4298,-1.4298,-1.4298,-1.4298,-1.4298,-1.4298,-1.4298,-1.4298,-1.4298,-1.4298,-1.4298,-1.4298,-1.4298,-1.4298,-1.4298,-1.4298,-1.4298,-1.4298,-1.4298,-1.4298,-1.4298,-1.4298,-1.4298,-1.4298,-1.4298,-1.4298,-1.4298,-1.4298,-1.4298,-1.4298,-1.4298,-1.4298,-1.4298,-1.4298,-1.4298,-1.4298,-1.4298,-1.4298,-1.4298,-1.4298,-1.4298,-1.4298,-1.4298,-1.4298,-1.4298,-1.416,-1.3925,-1.3539,-1.3147,-1.2958,-1.2861,-1.2813,-1.2807,-1.2807,-1.2807,-1.2807,-1.2807,-1.2807,-1.2807,-1.2807,-1.2807,-1.2807,-1.2807,-1.2743,-1.2667,-1.2721,-1.2672,-1.2398,-1.2328,-1.2258,-1.2145,-1.1908,-1.1677,-1.1402,-1.1354,-1.1386,-1.1337,-1.1311,-1.1311,-1.1311,-1.1311,-1.1311,-1.1311,-1.1311,-1.1311,-1.1311,-1.1311]},{"header":{"parameterUnit":"m.s-1","parameterCategory":1,"la1":31.0,"la2":29.5877,"lo1":-88.7671,"lo2":-86.6584,"dy":0.0162,"dx":0.0185,"nx":115,"ny":88,"refTime":"2024-08-24T06:00:00:Z","depth":0,"parameterNumber":3,"parameterNumberName":"V-component_of_WINDS"},"data":[0.0,0.0,0.0,0.0,0.0,0.0,0.0,0.0,0.0,0.0,0.0,0.0,0.0,0.0,0.0,0.0,0.0,0.0,0.0,0.0,0.0,0.0,0.0,0.0,0.0,0.0,0.0,0.0,0.0,0.0,0.0,0.0,0.0,0.0,0.0,0.0,0.0,0.0,0.0,0.0,0.0,0.0,0.0,0.0,0.0,0.0,0.0,0.0,0.0,0.0,0.0,0.0,0.0,0.0,0.0,0.0,0.0,0.0,0.0,0.0,0.0,0.0,0.0,0.0,0.0,0.0,0.0,0.0,0.0,0.0,0.0,0.0,0.0,0.0,0.0,0.0,0.0,0.0,0.0,0.0,0.0,0.0,0.0,0.0,0.0,0.0,0.0,0.0,0.0,0.0,0.0,0.0,0.0,0.0,0.0,0.0,0.0,0.0,0.0,0.0,0.0,0.0,0.0,0.0,0.0,0.0,0.0,0.0,0.0,0.0,0.0,0.0,0.0,0.0,0.0,0.0,0.0,0.0,0.0,0.0,0.0,0.0,0.0,0.0,0.0,0.0,0.0,0.0,0.0,0.0,0.0,0.0,0.0,0.0,0.0,0.0,0.0,0.0,0.0,0.0,0.0,0.0,0.0,0.0,0.0,0.0,0.0,0.0,0.0,0.0,0.0,0.0,0.0,0.0,0.0,0.0,0.0,0.0,0.0,0.0,0.0,0.0,0.0,0.0,0.0,0.0,0.0,0.0,0.0,0.0,0.0,0.0,0.0,0.0,0.0,0.0,0.0,0.0,0.0,0.0,0.0,0.0,0.0,0.0,0.0,0.0,0.0,0.0,0.0,0.0,0.0,0.0,0.0,0.0,0.0,0.0,0.0,0.0,0.0,0.0,0.0,0.0,0.0,0.0,0.0,0.0,0.0,0.0,0.0,0.0,0.0,0.0,0.0,0.0,0.0,0.0,0.0,0.0,0.0,0.0,0.0,0.0,0.0,0.0,0.0,0.0,0.0,0.0,0.0,0.0,0.0,0.0,0.0,0.0,0.0,0.0,0.0,0.0,0.0,0.0,0.0,0.0,0.0,0.0,0.0,0.0,0.0,0.0,0.0,0.0,0.0,0.0,0.0,0.0,0.0,0.0,0.0,0.0,0.0,0.0,0.0,0.0,0.0,0.0,0.0,0.0,0.0,0.0,0.0,0.0,0.0,0.0,0.0,0.0,0.0,0.0,0.0,0.0,0.0,0.0,0.0,0.0,0.0,0.0,0.0,0.0,0.0,0.0,0.0,0.0,0.0,0.0,0.0,0.0,0.0,0.0,0.0,0.0,0.0,0.0,0.0,0.0,0.0,0.0,0.0,0.0,0.0,0.0,0.0,0.0,0.0,0.0,0.0,0.0,0.0,0.0,0.0,0.0,0.0,0.0,0.0,0.0,0.0,0.0,0.0,0.0,0.0,0.0,0.0,0.0,0.0,0.0,0.0,0.0,0.0,0.0,0.0,0.0,0.0,0.0,0.0,0.0,0.0,0.0,0.0,0.0,0.0,0.0,0.0,0.0,0.0,0.0,0.0,0.0,0.0,0.0,0.0,0.0,0.0,0.0,0.0,0.0,0.0,0.0,0.0,0.0,0.0,0.0,0.0,0.0,0.0,0.0,0.0,0.0,0.0,0.0,0.0,0.0,0.0,0.0,0.0,0.0,0.0,0.0,0.0,0.0,0.0,0.0,0.0,0.0,0.0,0.0,0.0,0.0,0.0,0.0,0.0,0.0,0.0,0.0,0.0,0.0,0.0,0.0,0.0,0.0,0.0,0.0,0.0,0.0,0.0,0.0,0.0,0.0,0.0,0.0,0.0,0.0,0.0,0.0,0.0,0.0,0.0,0.0,0.0,0.0,0.0,0.0,0.0,0.0,0.0,0.0,0.0,0.0,0.0,0.0,0.0,0.0,0.0,0.0,0.0,0.0,0.0,0.0,0.0,0.0,0.0,0.0,0.0,0.0,0.0,0.0,0.0,0.0,0.0,0.0,0.0,0.0,0.0,0.0,0.0,0.0,0.0,0.0,0.0,0.0,0.0,0.0,0.0,0.0,0.0,0.0,0.0,0.0,0.0,0.0,0.0,0.0,0.0,0.0,0.0,0.0,0.0,0.0,0.0,0.0,0.0,0.0,0.0,0.0,0.0,0.0,0.0,0.0,0.0,0.0,0.0,0.0,0.0,0.0,0.0,0.0,0.0,0.0,0.0,0.0,0.0,0.0,0.0,0.0,0.0,0.0,0.0,0.0,0.0,0.0,0.0,0.0,0.0,0.0,0.0,0.0,0.0,0.0,0.0,0.0,0.0,0.0,0.0,0.0,0.0,0.0,0.0,0.0,0.0,0.0,0.0,0.0,0.0,0.0,0.0,0.0,0.0,0.0,0.0,0.0,0.0,0.0,0.0,0.0,0.0,0.0,0.0,0.0,0.0,0.0,0.0,0.0,0.0,0.0,0.0,0.0,0.0,0.0,0.0,0.0,0.0,0.0,0.0,0.0,0.0,0.0,0.0,0.0,0.0,0.0,0.0,0.0,0.0,0.0,0.0,0.0,0.0,0.0,0.0,0.0,0.0,0.0,0.0,0.0,0.0,0.0,0.0,0.0,0.0,0.0,0.0,0.0,0.0,0.0,0.0,0.0,0.0,0.0,0.0,0.0,0.0,0.0,0.0,0.0,0.0,0.0,0.0,0.0,0.0,0.0,0.0,0.0,0.0,0.0,0.0,0.0,0.0,0.0,0.0,0.0,0.0,0.0,0.0,0.0,0.0,0.0,0.0,0.0,0.0,0.0,0.0,0.0,0.0,0.0,0.0,0.0,0.0,0.0,0.0,0.0,0.0,0.0,0.0,0.0,0.0,0.0,0.0,0.0,0.0,0.0,0.0,0.0,0.0,0.0,0.0,0.0,0.0,0.0,0.0,0.0,0.0,0.0,0.0,0.0,0.0,0.0,0.0,0.0,0.0,0.0,0.0,0.0,0.0,0.0,0.0,0.0,0.0,0.0,0.0,0.0,0.0,0.0,0.0,0.0,0.0,0.0,0.0,0.0,0.0,0.0,0.0,0.0,0.0,0.0,0.0,0.0,0.0,0.0,0.0,0.0,0.0,0.0,0.0,0.0,0.0,0.0,0.0,0.0,0.0,0.0,0.0,0.0,0.0,0.0,0.0,0.0,0.0,0.0,0.0,0.0,0.0,0.0,0.0,0.0,0.0,0.0,0.0,0.0,0.0,0.0,0.0,0.0,0.0,0.0,0.0,0.0,0.0,0.0,0.0,0.0,0.0,0.0,0.0,0.0,0.0,0.0,0.0,0.0,0.0,0.0,0.0,0.0,0.0,0.0,0.0,0.0,0.0,0.0,0.0,0.0,0.0,0.0,0.0,0.0,0.0,0.0,0.0,0.0,0.0,0.0,0.0,0.0,0.0,0.0,0.0,0.0,0.0,0.0,0.0,0.0,0.0,0.0,0.0,0.0,0.0,0.0,0.0,0.0,0.0,0.0,0.0,0.0,0.0,0.0,0.0,0.0,0.0,0.0,0.0,0.0,0.0,0.0,0.0,0.0,0.0,0.0,0.0,0.0,0.0,0.0,0.0,0.0,0.0,0.0,0.0,0.0,0.0,0.0,0.0,0.0,0.0,0.0,0.0,0.0,0.0,0.0,0.0,0.0,0.0,0.0,0.0,0.0,0.0,0.0,0.0,0.0,0.0,0.0,0.0,0.0,0.0,0.0,0.0,0.0,0.0,0.0,0.0,0.0,0.0,0.0,0.0,0.0,0.0,0.0,0.0,0.0,0.0,0.0,0.0,0.0,0.0,0.0,0.0,0.0,0.0,0.0,0.0,0.0,0.0,0.0,0.0,0.0,0.0,0.0,0.0,0.0,0.0,0.0,0.0,0.0,0.0,0.0,0.0,0.0,0.0,0.0,0.0,0.0,0.0,0.0,0.0,0.0,0.0,0.0,0.0,0.0,0.0,0.0,0.0,0.0,0.0,0.0,0.0,0.0,0.0,0.0,0.0,0.0,0.0,0.0,0.0,0.0,0.0,0.0,0.0,0.0,0.0,0.0,0.0,0.0,0.0,0.0,0.0,0.0,0.0,0.0,0.0,0.0,0.0,0.0,0.0,0.0,0.0,0.0,0.0,0.0,0.0,0.0,0.0,0.0,0.0,0.0,0.0,0.0,0.0,0.0,0.0,0.0,0.0,0.0,0.0,0.0,0.0,0.0,0.0,0.0,0.0,0.0,0.0,0.0,0.4113,0.0,0.0,0.0,0.0,0.0,0.0,0.0,0.0,0.0,0.0,0.0,0.0,0.0,0.0,0.0,0.0,0.0,0.0,0.0,0.0,0.0,0.0,0.0,0.0,0.0,0.0,0.0,0.0,0.0,0.0,0.0,0.0,0.0,0.0,0.0,0.0,0.0,0.0,0.0,0.0,0.0,0.0,0.0,0.0,0.0,0.0,0.0,0.0,0.0,0.0,0.0,0.0,0.0,0.0,0.0,0.0,0.0,0.0,0.0,0.0,0.0,0.0,0.0,0.0,0.0,0.0,0.0,0.0,0.0,0.0,0.0,0.0,0.0,0.0,0.0,0.0,0.0,0.0,0.0,0.0,0.0,0.0,0.0,0.0,0.0,0.0,0.0,0.0,0.0,0.0,0.0,0.0,0.0,0.0,0.0,0.0,0.0,0.0,0.0,0.0,0.0,0.0,0.0,0.0,0.0,0.0,0.0,0.0,0.0,0.0,0.2463,0.2695,0.3148,0.3617,0.4096,0.0,0.0,0.0,0.0,0.0,0.0,0.0,0.0,0.0,0.0,0.0,0.0,0.0,0.0,0.0,0.0,0.0,0.0,0.0,0.0,0.0,0.0,0.0,0.0,0.0,0.0,0.0,0.0,0.0,0.0,0.0,0.0,0.0,0.0,0.0,0.0,0.0,0.0,0.0,0.0,0.0,0.0,0.0,0.0,0.0,0.0,0.0,0.0,0.0,0.0,0.0,0.0,0.0,0.0,0.0,0.0,0.0,0.0,0.0,0.0,0.0,0.0,0.0,0.0,0.0,0.0,0.0,0.0,0.0,0.0,0.0,0.0,0.0,0.0,0.0,0.0,0.0,0.0,0.0,0.0,0.0,0.0,0.0,0.0,0.0,0.0,0.0,0.0,0.0,0.0,0.0,0.0,0.0,0.0,0.0,0.0,0.0,0.0,0.0,0.0,0.0,0.0,0.0,0.0,0.0,0.0,0.0,0.0,0.0,0.0,0.0,0.0,0.3387,0.3863,0.431,0.0,0.0,0.0,0.0,0.0,0.0,0.0,0.0,0.0,0.0,0.0,0.0,0.0,0.0,0.0,0.0,0.0,0.0,0.0,0.0,0.0,0.0,0.0,0.0,0.0,0.0,0.0,0.0,0.0,0.0,0.0,0.0,0.0,0.0,0.0,0.0,0.0,0.0,0.0,0.0,0.0,0.0,0.0,0.0,0.0,0.0,0.0,0.0,0.0,0.0,0.0,0.0,0.0,0.0,0.0,0.0,0.0,0.0,0.0,0.0,0.0,0.0,0.0,0.0,0.0,0.0,0.0,0.0,0.0,0.0,0.0,0.0,0.0,0.0,0.0,0.0,0.0,0.0,0.0,0.0,0.0,0.0,0.0,0.0,0.0,0.0,0.0,0.0,0.0,0.0,0.0,0.0,0.0,0.0,0.0,0.0,0.0,0.0,0.0,0.0,0.0,0.0,0.0,0.0,0.0,0.0,0.0,0.0,0.0,0.0,0.3528,0.353,0.3863,0.0,0.4972,0.0,0.0,0.0,0.0,0.0,0.0,0.0,0.0,0.0,0.0,0.0,0.0,0.0,0.0,0.0,0.0,0.0,0.0,0.0,0.0,0.0,0.0,0.0,0.0,0.0,0.0,0.0,0.0,0.0,0.0,0.0,0.0,0.0,0.0,0.0,0.0,0.0,0.0,0.0,0.0,0.0,0.0,0.0,0.0,0.0,0.0,0.0,0.0,0.0,0.0,0.0,0.0,0.0,0.0,0.0,0.0,0.0,0.0,0.0,0.0,0.0,0.0,0.0,0.0,0.0,0.0,0.0,0.0,0.0,0.0,0.0,0.0,0.0,0.0,0.0,0.0,0.0,0.0,0.0,0.0,0.0,0.0,0.0,0.0,0.0,0.0,0.0,0.0,0.0,0.0,0.0,0.0,0.0,0.0,0.0,0.0,0.0,0.0,0.0,0.0,0.0,0.0,0.0,0.0,0.0,0.0,0.0,0.0,0.0,0.0,0.0,0.4012,0.4409,0.4839,0.0,0.0,0.0,0.0,0.0,0.0,0.0,0.0,0.0,0.0,0.0,0.0,0.0,0.0,0.0,0.0,0.0,0.0,0.0,0.0,0.0,0.0,0.0,0.0,0.0,0.0,0.0,0.0,0.0,0.0,0.0,0.0,0.0,0.0,0.0,0.0,0.0,0.0,0.0,0.0,0.0,0.0,0.0,0.0,0.0,0.0,0.0,0.0,0.0,0.0,0.0,0.0,0.0,0.0,0.0,0.0,0.0,0.0,0.0,0.0,0.0,0.0,0.0,0.0,0.0,0.0,0.0,0.0,0.0,0.0,0.0,0.0,0.0,0.0,0.0,0.0,0.0,0.0,0.0,0.0,0.0,0.0,0.0,0.0,0.0,0.0,0.0,0.0,0.0,0.0,0.0,0.0,0.0,0.0,0.0,0.0,0.0,0.0,0.0,0.0,0.0,0.0,0.0,0.0,0.0,0.0,0.0,0.0,0.0,0.0,0.4615,0.0,0.4563,0.4895,0.5195,0.5427,0.0,0.0,0.0,0.0,0.0,0.0,0.0,0.0,0.0,0.0,0.0,0.0,0.0,0.0,0.0,0.0,0.0,0.0,0.0,0.0,0.0,0.0,0.0,0.0,0.0,0.0,0.0,0.0,0.0,0.0,0.0,0.0,0.0,0.0,0.0,0.0,0.0,0.0,0.0,0.0,0.0,0.0,0.0,0.0,0.0,0.0,0.0,0.0,0.0,0.0,0.0,0.0,0.0,0.0,0.0,0.0,0.0,0.0,0.0,0.0,0.0,0.0,0.0,0.0,0.0,0.0,0.0,0.0,0.0,0.0,0.0,0.0,0.0,0.0,0.0,0.0,0.0,0.0,0.0,0.0,0.0,0.0,0.0,0.0,0.0,0.0,0.0,0.0,0.0,0.0,0.0,0.0,0.0,0.0,0.0,0.0,0.0,0.0,0.0,0.0,0.0,0.0,0.0,0.0,0.0,0.0,0.0,0.0,0.0,0.5156,0.5156,0.5146,0.5253,0.5359,0.0,0.0,0.0,0.0,0.0,0.0,0.0,0.0,0.0,0.0,0.0,0.0,0.0,0.0,0.0,0.0,0.0,0.0,0.0,0.0,0.0,0.0,0.0,0.0,0.0,0.0,0.0,0.0,0.0,0.0,0.0,0.0,0.0,0.0,0.0,0.0,0.0,0.0,0.0,0.0,0.0,0.0,0.0,0.0,0.0,0.0,0.0,0.0,0.0,0.0,0.0,0.0,0.0,0.0,0.0,0.0,0.0,0.0,0.0,0.0,0.0,0.0,0.0,0.0,0.0,0.0,0.0,0.0,0.0,0.0,0.0,0.0,0.0,0.0,0.0,0.0,0.0,0.0,0.0,0.0,0.0,0.0,0.0,0.0,0.0,0.0,0.0,0.0,0.0,0.0,0.0,0.0,0.0,0.0,0.0,0.0,0.0,0.0,0.0,0.0,0.0,0.0,0.0,0.0,0.0,0.0,0.0,0.0,0.0,0.5321,0.5331,0.535,0.5378,0.5388,0.5436,0.0,0.0,0.0,0.0,0.0,0.0,0.0,0.0,0.0,0.0,0.0,0.0,0.0,0.0,0.0,0.0,0.0,0.0,0.0,0.0,0.0,0.0,0.0,0.0,0.0,0.0,0.0,0.0,0.0,0.0,0.0,0.0,0.0,0.0,0.0,0.0,0.0,0.0,0.0,0.0,0.0,0.0,0.0,0.0,0.0,0.0,0.0,0.0,0.0,0.0,0.0,0.0,0.0,0.0,0.0,0.0,0.0,0.0,0.0,0.0,0.0,0.0,0.0,0.0,0.0,0.0,0.0,0.0,0.0,0.0,0.0,0.0,0.0,0.0,0.0,0.0,0.0,0.0,0.0,0.0,0.0,0.0,0.0,0.0,0.0,0.0,0.0,0.0,0.0,0.0,0.0,0.0,0.0,0.0,0.0,0.0,0.0,0.0,0.0,0.0,0.0,0.0,0.0,0.0,0.0,0.0,0.0,0.0,0.0,0.5398,0.0,0.5407,0.0,0.5378,0.5446,0.0,0.0,0.0,0.0,0.0,0.0,0.0,0.0,0.0,0.0,0.0,0.0,0.0,0.0,0.0,0.0,0.0,0.0,0.0,0.0,0.0,0.0,0.0,0.0,0.0,0.0,0.0,0.0,0.0,0.0,0.0,0.0,0.0,0.0,0.0,0.0,0.0,0.0,0.0,0.0,0.0,0.0,0.0,0.0,0.0,0.0,0.0,0.0,0.0,0.0,0.0,0.0,0.0,0.0,0.0,0.0,0.0,0.0,0.0,0.0,0.0,0.0,0.0,0.0,0.0,0.0,0.0,0.0,0.0,0.0,0.0,0.0,0.0,0.0,0.0,0.0,0.0,0.0,0.0,0.0,0.0,0.0,0.0,0.0,0.0,0.0,0.0,0.0,0.0,0.0,0.0,0.0,0.0,0.0,0.0,0.0,0.0,0.0,0.0,0.0,0.0,0.0,0.0,0.0,0.0,0.0,0.0,0.0,0.5485,0.5418,0.5429,0.5409,0.532,0.532,0.5378,0.0,0.0,0.0,0.0,0.0,0.0,0.0,0.0,0.0,0.0,0.0,0.0,0.0,0.0,0.0,0.0,0.0,0.0,0.0,0.0,0.0,0.0,0.0,0.0,0.0,0.0,0.0,0.0,0.0,0.0,0.0,0.0,0.0,0.0,0.0,0.0,0.0,0.0,0.0,0.0,0.0,0.0,0.0,0.0,0.0,0.0,0.0,0.0,0.0,0.0,0.0,0.0,0.0,0.0,0.0,0.0,0.0,0.0,0.0,0.0,0.0,0.0,0.0,0.0,0.0,0.0,0.0,0.0,0.0,0.0,0.0,0.0,0.0,0.0,0.0,0.0,0.0,0.0,0.0,0.0,0.0,0.0,0.0,0.0,0.0,0.0,0.0,0.0,0.0,0.0,0.0,0.0,0.0,0.0,0.0,0.0,0.0,0.0,0.0,0.0,0.0,0.0,0.0,0.0,0.0,0.0,0.0,0.0,0.0,0.5889,0.5889,0.5868,0.5858,0.5542,0.5398,0.0,0.0,0.0,0.0,0.0,0.0,0.0,0.0,0.0,0.0,0.0,0.0,0.0,0.0,0.0,0.0,0.0,0.0,0.0,0.0,0.0,0.0,0.0,0.0,0.0,0.0,0.0,0.0,0.0,0.0,0.0,0.0,0.0,0.0,0.0,0.0,0.0,0.0,0.0,0.0,0.0,0.0,0.0,0.0,0.0,0.0,0.0,0.0,0.0,0.0,0.0,0.0,0.0,0.0,0.0,0.0,0.0,0.0,0.0,0.0,0.0,0.0,0.0,0.0,0.0,0.0,0.0,0.0,0.0,0.0,0.0,0.0,0.0,0.0,0.0,0.0,0.0,0.0,0.0,0.0,0.0,0.0,0.0,0.0,0.0,0.0,0.0,0.0,0.0,0.0,0.0,0.0,0.0,0.0,0.0,0.0,0.0,0.0,0.0,0.0,0.0,0.0,0.0,0.0,0.0,0.0,0.0,0.0,0.0,0.6922,0.6585,0.6396,0.6351,0.5899,0.5663,0.5663,0.0,0.0,0.0,0.0,0.0,0.0,0.0,0.0,0.0,0.0,0.0,0.0,0.0,0.0,0.0,0.0,0.0,0.0,0.0,0.0,0.0,0.0,0.0,0.0,0.0,0.0,0.0,0.0,0.0,0.0,0.0,0.0,0.0,0.0,0.0,0.0,0.0,0.0,0.0,0.0,0.0,0.0,0.0,0.0,0.0,0.0,0.0,0.0,0.0,0.0,0.0,0.0,0.0,0.0,0.0,0.0,0.0,0.0,0.0,0.0,0.0,0.0,0.0,0.0,0.0,0.0,0.0,0.0,0.0,0.0,0.0,0.0,0.0,0.0,0.0,0.0,0.0,0.0,0.0,0.0,0.0,0.0,0.0,0.0,0.0,0.0,0.0,0.0,0.0,0.0,0.0,0.0,0.0,0.0,0.0,0.0,0.0,0.0,0.0,0.0,0.0,0.0,0.0,0.0,0.0,0.0,0.0,0.0,0.8443,0.7582,0.7089,0.7011,0.6479,0.6178,0.0,0.0,0.0,0.0,0.0,0.0,0.0,0.0,0.0,0.0,0.0,0.0,0.0,0.0,0.0,0.0,0.0,0.0,0.0,0.0,0.0,0.0,0.0,0.0,0.0,0.0,0.0,0.0,0.0,0.0,0.0,0.0,0.0,0.0,0.0,0.0,0.0,0.0,0.0,0.0,0.0,0.0,0.0,0.0,0.0,0.0,0.0,0.0,0.0,0.0,0.0,0.0,0.0,0.0,0.0,0.0,0.0,0.0,0.0,0.0,0.0,0.0,0.0,0.0,0.0,0.0,0.0,0.0,0.0,0.0,0.0,0.0,0.0,0.0,0.0,0.0,0.0,0.0,0.0,0.0,0.0,0.0,0.0,0.0,0.0,0.0,0.0,0.0,0.0,0.0,0.0,0.0,0.0,0.0,0.0,0.0,0.0,0.0,0.0,0.0,0.0,0.0,0.0,0.0,0.0,0.0,0.0,0.0,0.0,0.9038,0.9482,0.9467,0.9017,0.7893,0.7132,0.0,0.0,0.0,0.0,0.0,0.0,0.0,0.0,0.0,0.0,0.0,0.0,0.0,0.0,0.0,0.0,0.0,0.0,0.0,0.0,0.0,0.0,0.0,0.0,0.0,0.0,0.0,0.0,0.0,0.0,0.0,0.0,0.0,0.0,0.0,0.0,0.0,0.0,0.0,0.0,0.0,0.0,0.0,0.0,0.0,0.0,0.0,0.0,0.0,0.0,0.0,0.0,0.0,0.0,0.0,0.0,0.0,0.0,0.0,0.0,0.0,0.0,0.0,0.0,0.0,0.0,0.0,0.0,0.0,0.0,0.0,0.0,0.0,0.0,0.0,0.0,0.0,0.0,0.0,0.0,0.0,0.0,0.0,0.0,0.0,0.0,0.0,0.0,0.0,0.0,0.0,0.0,0.0,0.0,0.0,0.0,0.0,0.0,0.0,0.0,0.0,0.0,0.0,0.0,0.0,0.0,0.0,0.0,0.8773,0.9794,1.0687,1.1215,1.1362,0.9444,0.8112,0.0,0.0,0.0,0.0,0.0,0.0,0.0,0.0,0.0,0.0,0.0,0.0,0.0,0.0,0.0,0.0,0.0,0.0,0.0,0.0,0.0,0.0,0.0,0.0,0.0,0.0,0.0,0.0,0.0,0.0,0.0,0.0,0.0,0.0,0.0,0.0,0.0,0.0,0.0,0.0,0.0,0.0,0.0,0.0,0.0,0.0,0.0,0.0,0.0,0.0,0.0,0.0,0.0,0.0,0.0,0.0,0.0,0.0,0.0,0.0,0.0,0.0,0.0,0.0,0.0,0.0,0.0,0.0,0.0,0.0,0.0,0.0,0.0,0.0,0.0,0.0,0.0,0.0,0.0,0.0,0.0,0.0,0.0,0.0,0.0,0.0,0.0,0.0,0.0,0.0,0.0,0.0,0.0,0.0,0.0,0.0,0.0,0.0,0.0,0.0,0.0,0.0,0.0,0.0,0.0,0.0,0.0,0.0,0.9648,1.0637,1.1496,1.2404,1.3281,1.0941,0.9182,0.0,0.0,0.0,0.0,0.0,0.0,0.0,0.0,0.0,0.0,0.0,0.0,0.0,0.0,0.0,0.0,0.0,0.0,0.0,0.0,0.0,0.0,0.0,0.0,0.0,0.0,0.0,0.0,0.0,0.0,0.0,0.0,0.0,0.0,0.0,0.0,0.0,0.0,0.0,0.0,0.0,0.0,0.0,0.0,0.0,0.0,0.0,0.0,0.0,0.0,0.0,0.0,0.0,0.0,0.0,0.0,0.0,0.0,0.0,0.0,0.0,0.0,0.0,0.0,0.0,0.0,0.0,0.0,0.0,0.0,0.0,0.0,0.0,0.0,0.0,0.0,0.0,0.0,0.0,0.0,0.0,0.0,0.0,0.0,0.0,0.0,0.0,0.0,0.0,0.0,0.0,0.0,0.0,0.0,0.0,0.0,0.0,0.0,0.0,0.0,0.0,0.0,0.0,0.0,0.0,0.0,0.0,0.0,1.0328,1.1574,1.251,1.2903,1.2797,1.1659,1.0673,0.0,0.0,0.0,0.0,0.0,0.0,0.0,0.0,0.0,0.0,0.0,0.0,0.0,0.0,0.0,0.0,0.0,0.0,0.0,0.0,0.0,0.0,0.0,0.0,0.0,0.0,0.0,0.0,0.0,0.0,0.0,0.0,0.0,0.0,0.0,0.0,0.0,0.0,0.0,0.0,0.0,0.0,0.0,0.0,0.0,0.0,0.0,0.0,0.8296,0.0,0.0,0.0,0.0,0.0,0.0,0.0,0.0,0.0,0.0,0.0,0.0,0.0,0.0,0.0,0.0,0.0,0.0,0.0,0.0,0.0,0.0,0.0,0.0,0.0,0.0,0.0,0.0,0.0,0.0,0.0,0.0,0.0,0.0,0.0,0.0,0.0,0.0,0.0,0.0,0.0,0.0,0.0,0.0,0.0,0.0,0.0,0.0,0.0,0.0,0.0,0.0,0.0,0.0,0.0,0.0,0.0,0.0,0.0,1.0906,1.1793,1.2877,1.335,1.3144,1.2454,1.1493,0.0,0.0,0.0,0.0,0.0,0.0,0.0,0.0,0.0,0.0,0.0,0.0,0.0,0.0,0.0,0.0,0.0,0.0,0.0,0.0,0.0,0.0,0.0,0.0,0.0,0.0,0.0,0.0,0.0,0.0,0.0,0.0,0.0,0.0,0.0,0.0,0.0,0.0,0.0,0.0,0.0,0.0,0.0,0.0,0.0,0.0,0.0,0.0,0.0,0.0,0.0,0.0,0.0,0.0,0.0,0.0,0.0,0.0,0.0,0.0,0.0,0.0,0.0,0.0,0.0,0.0,0.0,0.0,0.0,0.0,0.0,0.0,0.0,0.0,0.0,0.0,0.0,0.0,0.0,0.0,0.0,0.0,0.0,0.0,0.0,0.0,0.0,0.0,0.0,0.0,0.0,0.0,0.0,0.0,0.0,0.0,0.0,0.0,0.0,0.0,0.0,0.0,0.0,0.0,0.0,0.0,0.0,1.0059,1.1341,1.1879,1.2993,1.3637,1.3648,1.2999,1.189,1.033,0.0,0.0,0.0,0.0,0.0,0.0,0.0,0.0,0.0,0.0,0.0,0.0,0.0,0.0,0.0,0.0,0.0,0.0,0.0,0.0,0.0,0.0,0.0,0.0,0.0,0.0,0.0,0.0,0.0,0.0,0.0,0.0,0.0,0.0,0.0,0.0,0.0,0.0,0.7,0.7525,0.0,0.0,0.0,0.0,0.0,0.0,0.0,0.0,0.8758,0.0,0.0,0.0,0.0,0.0,0.0,0.0,0.0,0.0,0.0,0.0,0.0,0.0,0.0,0.0,0.0,0.0,0.0,0.0,0.0,0.0,0.0,0.0,0.0,0.0,0.0,0.0,0.0,0.0,0.0,0.0,0.0,0.0,0.0,0.0,0.0,0.0,0.0,0.0,0.0,0.0,0.0,0.0,0.0,0.0,0.0,0.0,0.0,0.0,0.0,0.0,0.0,0.0,0.0,0.0,0.0,0.8885,1.0406,1.1653,1.2592,1.3263,1.3434,1.3053,1.2499,1.1572,1.026,0.0,0.0,0.0,0.0,0.0,0.0,0.0,0.0,0.0,0.0,0.0,0.0,0.0,0.0,0.0,0.0,0.0,0.0,0.0,0.0,0.0,0.0,0.0,0.0,0.0,0.0,0.0,0.0,0.0,0.0,0.0,0.0,0.0,0.0,0.0,0.0,0.0,0.0,0.0,0.8047,0.8402,0.0,0.0,0.0,0.0,0.0,0.0,0.0,0.0,0.948,0.0,0.0,0.0,0.0,0.0,0.0,0.0,0.0,0.0,0.0,0.0,0.0,0.0,0.0,0.0,0.0,0.0,0.0,0.0,0.0,0.0,0.0,0.0,0.0,0.0,0.0,0.0,0.0,0.0,0.0,0.0,0.0,0.0,0.0,0.0,0.0,0.0,0.0,0.0,0.0,0.0,0.0,0.0,0.0,0.0,0.0,0.0,0.0,0.0,0.0,0.0,0.0,0.0,0.0,0.0,0.9111,1.1092,1.2444,1.3055,1.3927,1.411,1.3553,1.2866,1.1874,0.0,0.0,0.0,0.0,0.0,0.0,0.0,0.0,0.0,0.0,0.0,0.0,0.0,0.0,0.0,0.0,0.0,0.0,0.0,0.0,0.0,0.0,0.0,0.0,0.0,0.0,0.0,0.0,0.0,0.0,0.0,0.0,0.0,0.0,0.0,0.0,0.0,0.0,0.0,0.0,0.9149,0.9465,0.9847,0.0,0.0,0.0,0.0,0.0,0.0,1.0679,1.0367,0.0,0.0,0.0,0.0,0.0,0.0,0.0,0.0,0.0,0.0,0.0,0.0,0.0,0.0,0.0,0.0,0.0,0.0,0.0,0.0,0.0,0.0,0.0,0.0,0.0,0.0,0.0,0.0,0.0,0.0,0.0,0.0,0.0,0.0,0.0,0.0,0.0,0.0,0.0,0.0,0.0,0.0,0.0,0.0,0.0,0.0,0.0,0.0,0.0,0.0,0.0,0.0,0.0,0.0,0.0,0.9348,1.1705,1.3123,1.347,1.4389,1.4618,1.4019,1.311,1.196,0.0,0.0,0.0,0.0,0.0,0.0,0.0,0.0,0.0,0.0,0.0,0.0,0.0,0.0,0.0,0.0,0.0,0.0,0.0,0.0,0.0,0.0,0.0,0.0,0.0,0.0,0.0,0.0,0.0,0.0,0.0,0.0,0.0,0.0,0.0,0.0,0.0,0.0,0.0,0.0,0.0,1.0635,1.1182,1.1003,0.0,0.0,0.0,0.0,1.1635,1.1781,0.0,0.0,0.0,0.0,0.0,0.0,0.0,0.0,0.0,0.0,0.0,0.0,0.0,0.0,0.0,0.0,0.0,0.0,0.0,0.0,0.0,0.0,0.0,0.0,0.0,0.0,0.0,0.0,0.0,0.0,0.0,0.0,0.0,0.0,0.0,0.0,0.0,0.0,0.0,0.0,0.0,0.0,0.0,0.0,0.0,0.0,0.0,0.0,0.0,0.0,0.0,0.0,0.0,0.0,0.0,0.0,1.0247,1.1937,1.3185,1.3885,1.4111,1.404,1.3652,1.2419,1.1053,0.0,0.0,0.0,0.0,0.0,0.0,0.0,0.0,0.0,0.0,0.0,0.0,0.0,0.0,0.0,0.0,0.0,0.0,0.0,0.0,0.0,0.0,0.0,0.0,0.0,0.0,0.0,0.0,0.0,0.0,0.0,0.0,0.0,0.0,0.0,0.0,0.0,0.0,0.0,0.0,0.0,1.1595,1.1787,1.2279,1.2462,0.0,0.0,1.2887,1.3629,1.4096,0.0,0.0,0.0,0.0,0.0,0.0,0.0,0.0,0.0,0.0,0.0,0.0,0.0,0.0,0.0,0.0,0.0,0.0,0.0,0.0,0.0,0.0,0.0,0.0,0.0,0.0,0.0,0.0,0.0,0.0,0.0,0.0,0.0,0.0,0.0,0.0,0.0,0.0,0.0,0.0,0.0,0.0,0.0,0.0,0.0,0.0,0.0,0.0,0.0,0.0,0.0,0.0,0.0,0.0,0.0,0.9642,1.0454,1.2656,1.3799,1.3739,1.4446,1.447,1.3657,1.2577,1.132,0.0,0.0,0.0,0.0,0.0,0.0,0.0,0.0,0.0,0.0,0.0,0.0,0.0,0.0,0.0,0.0,0.0,0.0,0.0,0.0,0.0,0.0,0.0,0.0,0.0,0.0,0.0,0.0,0.0,0.0,0.0,0.0,0.0,0.0,0.0,0.0,0.0,0.0,0.0,0.0,0.0,0.0,1.3193,1.3702,0.0,0.0,0.0,1.4484,1.5017,0.0,0.0,0.0,0.0,0.0,0.0,0.0,0.0,0.0,0.0,0.0,0.0,0.0,0.0,0.0,0.0,0.0,0.0,0.0,0.0,0.0,0.0,0.0,0.0,0.0,0.0,0.0,0.0,0.0,0.0,0.0,0.0,0.0,0.0,0.0,0.0,0.0,0.0,0.0,0.0,0.0,0.0,0.0,0.0,0.0,0.0,0.0,0.0,0.0,0.0,0.0,0.0,0.0,0.0,0.0,0.0,0.0,1.0639,1.3257,1.4262,1.3591,1.4589,1.4685,1.3729,1.2642,0.0,0.0,0.0,0.0,0.0,0.0,0.0,0.0,0.0,0.0,0.0,0.0,0.0,0.0,0.0,0.0,0.0,0.0,0.0,0.0,0.0,0.0,0.0,0.0,0.0,0.0,0.0,0.6087,0.0,0.0,0.0,0.0,0.0,0.0,0.0,0.0,0.0,0.0,0.0,0.0,0.0,0.0,1.3509,1.4477,1.5018,1.5363,0.0,0.0,1.593,1.6239,1.6279,1.5768,0.0,0.0,0.0,0.0,0.0,0.0,0.0,0.0,0.0,0.0,0.0,0.0,0.0,0.0,0.0,0.0,0.0,0.0,0.0,0.0,0.0,0.0,0.0,0.0,0.0,0.0,0.0,0.0,0.0,0.0,0.0,0.0,0.0,0.0,0.0,0.0,0.0,0.0,0.0,0.0,0.0,0.0,0.0,0.0,0.0,0.0,0.0,0.0,0.0,0.0,0.0,0.0,0.0,0.0,0.0,1.1201,1.3495,1.4339,1.3654,1.4152,1.4267,1.3785,1.2283,1.1011,0.0,0.0,0.0,0.0,0.0,0.0,0.0,0.0,0.0,0.0,0.0,0.0,0.0,0.0,0.0,0.0,0.0,0.0,0.0,0.0,0.0,0.0,0.0,0.0,0.0,0.0,0.0,0.0,0.0,0.0,0.0,0.0,0.0,0.0,0.0,0.0,0.0,0.0,0.0,0.0,0.0,1.4777,1.5107,1.6127,1.6676,0.0,0.0,1.7061,1.7263,1.8171,1.8121,1.6009,0.0,0.0,0.0,0.0,0.0,0.0,0.0,0.0,0.0,0.0,0.0,0.0,0.0,0.0,0.0,0.0,0.0,0.0,0.0,0.0,0.0,0.0,0.0,0.0,0.0,0.0,0.0,0.0,0.0,0.0,0.0,0.0,0.0,0.0,0.0,0.0,0.0,0.0,0.0,0.0,0.0,0.0,0.0,0.0,0.0,0.0,0.0,0.0,0.0,0.0,0.0,0.0,0.0,1.0552,1.1812,1.3558,1.4311,1.4058,1.4396,1.4377,1.3927,1.2838,1.1818,0.0,0.0,0.0,0.0,0.0,0.0,0.0,0.0,0.0,0.0,0.0,0.0,0.0,0.0,0.0,0.0,0.0,0.0,0.0,0.0,0.0,0.0,0.0,0.0,0.0,0.0,0.0,0.0,0.7309,0.7349,0.7225,0.0,0.0,0.0,0.0,0.0,0.0,0.0,0.0,0.0,0.0,1.5289,1.5586,1.6692,0.0,0.0,1.7765,1.8364,1.8277,1.8592,1.8308,1.6622,1.5916,0.0,0.0,0.0,0.0,0.0,0.0,0.0,0.0,0.0,0.0,0.0,0.0,0.0,0.0,0.0,0.0,0.0,0.0,0.0,0.0,0.0,0.0,0.0,0.0,0.0,0.0,0.0,0.0,0.0,0.0,0.0,0.0,0.0,0.0,0.0,0.0,0.0,0.0,0.0,0.0,0.0,0.0,0.0,0.0,0.0,0.0,0.0,0.0,0.0,0.0,0.0,0.0,1.0791,1.2302,1.3822,1.4585,1.4533,1.4871,1.477,1.4121,1.3424,1.2612,0.0,0.0,0.0,0.0,0.0,0.0,0.0,0.0,0.0,0.0,0.0,0.0,0.0,0.0,0.0,0.0,0.0,0.0,0.0,0.0,0.0,0.0,0.0,0.0,0.0,0.0,0.0,0.0,0.7558,0.7466,0.7368,0.0,0.0,0.0,0.0,0.0,0.0,0.0,0.0,0.0,0.0,1.6161,1.6439,1.7404,1.7975,1.7767,1.85,1.9039,1.8974,1.8961,1.8593,1.7568,0.0,0.0,0.0,0.0,0.0,0.0,0.0,0.0,0.0,0.0,0.0,0.0,0.0,0.0,0.0,0.0,0.0,0.0,0.0,0.0,0.0,0.0,0.0,0.0,0.0,0.0,0.0,0.8147,0.0,0.0,0.8468,0.0,0.0,0.0,0.0,0.0,0.0,0.0,0.0,0.0,0.0,0.0,0.0,0.0,0.0,0.0,0.0,0.0,0.0,0.0,0.0,0.0,0.0,1.1268,1.2583,1.4382,1.5216,1.5133,1.5598,1.5414,1.4449,1.3934,1.3187,1.2111,0.0,0.0,0.0,0.0,0.0,0.0,0.0,0.0,0.0,0.0,0.0,0.0,0.0,0.0,0.0,0.0,0.0,0.0,0.0,0.0,0.0,0.0,0.0,0.0,0.0,0.0,0.779,0.762,0.7513,0.0,0.0,0.0,0.0,0.0,0.0,0.0,0.0,0.0,0.0,1.6876,1.759,1.7719,1.8279,1.8581,1.8475,1.8669,1.895,1.9288,1.9487,1.943,0.0,0.0,0.0,0.0,0.0,0.0,0.0,0.0,0.0,0.0,0.0,0.0,0.0,0.0,0.0,0.0,0.0,0.0,0.0,0.0,0.0,0.0,0.0,0.0,0.0,0.0,0.0,1.1384,1.0508,0.0,0.0,0.0,0.0,0.0,0.0,0.0,0.0,0.0,0.0,0.0,1.4027,1.394,0.0,0.0,0.0,0.0,0.0,0.0,0.0,0.0,0.0,0.0,0.0,0.0,1.2217,1.3359,1.4983,1.6,1.6266,1.6301,1.5951,1.5212,1.487,1.3996,1.2494,0.0,0.0,0.0,0.0,0.0,0.0,0.0,0.0,0.0,0.0,0.0,0.0,0.0,0.0,0.0,0.0,0.0,0.0,0.0,0.0,0.0,0.0,0.0,0.0,0.0,0.7972,0.0,0.0,0.0,0.0,0.0,0.0,0.0,0.0,0.0,0.0,0.0,1.5916,1.6734,1.7522,1.796,1.7834,1.824,1.8475,0.0,0.0,0.0,0.0,0.0,0.0,0.0,0.0,0.0,0.0,0.0,0.0,0.0,0.0,1.6606,1.5651,1.5479,1.5467,1.5451,0.0,0.0,0.0,0.0,0.0,0.0,0.0,0.0,0.0,0.0,0.0,0.0,0.0,0.0,1.3485,0.0,1.3089,0.0,0.0,0.0,0.0,0.0,0.0,0.0,0.0,1.5728,1.6162,1.6142,1.5945,1.5813,0.0,1.5305,1.3951,0.0,0.0,0.0,0.0,0.0,0.0,0.0,0.0,1.2856,1.4117,1.5508,1.6523,1.7076,1.6975,1.6671,1.6085,1.5514,1.452,1.3093,1.233,1.1385,0.0,0.0,0.0,0.0,0.0,0.0,0.0,0.0,0.0,0.0,0.0,0.0,0.0,0.0,0.0,0.0,0.0,0.0,0.0,0.0,0.0,0.0,0.0,0.8385,0.0,0.0,0.0,0.0,0.0,0.0,0.0,0.0,0.0,1.5158,1.6507,1.7756,1.8458,1.872,1.8857,1.8871,0.0,0.0,0.0,0.0,0.0,0.0,0.0,1.9944,1.9766,1.9735,1.9745,1.9683,1.9985,2.0242,2.0226,0.0,0.0,1.785,1.7516,1.7504,1.7488,1.7434,1.7391,1.7407,1.735,1.7557,0.0,0.0,0.0,0.0,0.0,0.0,0.0,0.0,1.622,1.5541,0.0,1.5098,0.0,0.0,0.0,0.0,0.0,1.5628,0.0,0.0,1.8772,1.9316,1.8663,1.8197,1.7978,1.7841,1.677,1.594,1.5257,1.3636,0.0,0.0,0.0,0.0,0.0,0.0,1.3227,1.4901,1.5991,1.6857,1.7482,1.7611,1.7464,1.6992,1.5842,1.4823,1.401,1.3444,1.2712,1.18,1.0681,0.0,0.0,0.0,0.0,0.0,0.0,0.0,0.0,0.0,0.0,0.0,0.0,0.0,0.0,0.0,0.0,0.0,0.0,0.0,0.0,0.8719,0.0,0.0,0.0,0.0,0.0,0.0,0.0,0.0,0.0,0.0,1.7375,1.8296,1.9527,2.072,0.0,0.0,0.0,0.0,2.0125,2.0625,2.0824,2.0955,2.1137,2.1181,2.1324,2.1699,0.0,0.0,2.2293,2.2648,2.2803,2.2866,2.2756,2.2079,1.9508,1.9001,1.8909,1.8862,1.8801,1.8787,1.8804,1.8867,1.9057,1.6807,0.0,0.0,0.0,0.0,1.7852,1.8455,1.9279,1.91,1.8416,1.7423,1.7423,0.0,0.0,0.0,0.0,0.0,0.0,1.7365,1.82,1.8648,1.8892,1.8991,1.8829,1.8569,1.8175,1.7854,1.7419,1.6847,1.5944,1.4308,1.2075,0.0,0.0,0.0,0.0,1.466,1.5566,1.6664,1.7302,1.7482,1.755,1.749,1.7277,1.6062,1.5462,1.5584,1.473,1.3882,1.3159,1.2078,0.0,0.0,0.0,0.0,0.0,0.0,0.0,0.0,0.0,0.0,0.0,0.0,0.0,0.0,0.0,0.0,0.0,0.0,0.0,0.8863,0.9483,1.0043,0.0,0.0,0.0,0.0,0.0,0.0,0.0,0.0,0.0,2.1059,2.0882,2.0852,0.0,0.0,2.1092,2.1228,2.0974,2.0849,2.1029,2.0969,0.0,2.1355,2.1415,2.157,2.2002,2.2213,2.2399,2.2655,2.2805,2.2898,2.2898,2.2898,2.2631,2.1936,2.1302,2.0811,2.0368,2.021,2.0383,2.0857,2.0984,2.1031,2.0333,2.0512,1.8641,1.8323,1.9084,1.9428,2.0061,2.0872,2.0712,2.0299,1.9732,1.9851,1.9198,1.8048,1.8018,0.0,0.0,0.0,1.9191,2.0011,1.9906,2.0023,2.0212,1.982,1.9445,1.9121,1.8632,1.8201,1.776,1.7356,1.6194,1.4365,0.0,0.0,1.3387,1.4595,1.5522,1.6082,1.6983,1.7447,1.7461,1.7672,1.7714,1.7566,1.6596,1.6163,1.6355,1.5521,1.48,1.4263,1.3408,1.2322,0.0,0.0,0.0,0.0,0.0,0.0,0.0,0.0,0.0,0.0,0.0,1.0607,0.0,0.0,0.0,0.0,0.9491,0.9546,1.0752,1.141,0.0,0.0,0.0,0.0,0.0,0.0,0.0,1.9327,2.1231,2.2758,2.3538,2.3396,2.3131,2.2877,2.2607,2.2428,2.2437,0.0,2.196,2.2274,2.2194,2.2215,2.2495,2.2495,2.2591,2.2868,2.3165,2.3375,2.3467,2.3604,2.372,2.372,2.372,2.3641,2.3338,2.2909,2.242,2.1774,2.1649,2.179,2.2234,2.228,2.228,2.3564,2.4418,2.0818,1.9411,1.9611,2.043,2.1101,2.1575,2.1563,2.1467,2.1486,2.204,2.1627,2.0526,2.0441,0.0,2.1256,2.1179,2.1443,2.2013,2.2013,2.2013,2.1963,2.0993,2.0498,2.0426,1.9286,1.8584,1.8311,1.8129,1.7754,1.7191,1.5852,1.5145,1.5118,1.5535,1.6036,1.6658,1.7195,1.7474,1.7494,1.7963,1.8165,1.801,1.7305,1.6826,1.663,1.5966,1.5483,1.518,1.4615,1.3694,1.2422,0.0,0.0,0.0,0.0,0.0,0.0,0.0,0.0,0.0,0.0,0.0,0.0,0.0,0.0,0.0,1.0934,0.0,1.3432,1.4085,0.0,0.0,0.0,1.6862,1.8202,1.9528,2.0837,2.2102,0.0,0.0,2.5202,2.5735,2.5902,2.5278,2.463,2.4146,2.4091,2.3603,2.3462,2.3973,2.4113,2.4167,2.4114,2.4069,2.3992,2.4013,2.4333,2.4482,2.4486,2.4724,2.497,2.491,2.497,2.478,2.4112,2.397,2.3796,2.3149,2.293,2.2882,2.2961,2.2975,2.2923,2.2485,2.3215,2.228,2.2838,2.434,2.4557,2.4441,2.4082,2.3574,2.3072,2.2574,2.2224,2.1889,2.1618,2.1599,2.1675,2.1808,2.1789,2.1861,2.2013,2.2013,2.2013,2.1979,2.173,2.1401,2.0984,2.0201,1.9582,1.9109,1.8621,1.8313,1.8159,1.7808,1.739,1.6904,1.6996,1.7313,1.7881,1.7999,1.8141,1.822,1.8358,1.8584,1.8877,1.7734,1.7296,1.7602,1.6532,1.5892,1.5851,1.5222,1.4528,1.3756,1.2467,0.0,0.0,0.0,0.0,0.0,0.0,0.0,0.0,0.0,1.3002,1.3392,0.0,1.361,0.0,1.2749,1.3415,1.5402,1.5719,0.0,0.0,1.8884,1.979,2.1142,2.2551,2.3686,2.4371,2.5356,2.622,2.675,2.6988,2.708,2.7032,2.6182,2.5387,2.4991,2.5161,2.5191,2.5,2.5266,2.5428,2.5203,2.4937,2.4778,2.4766,2.4842,2.4866,2.4882,2.4926,2.4985,2.5005,2.5005,2.4906,2.4748,2.4732,2.4626,2.4347,2.3582,2.3072,2.3544,2.3629,2.3588,2.3392,2.4071,2.4372,2.5168,2.6232,2.5432,2.5,2.4932,2.4561,2.4364,2.4286,2.3618,2.3335,2.3299,2.297,2.2813,2.2793,2.2737,2.2717,2.2717,2.2717,2.2717,2.2702,2.243,2.2154,2.1824,2.1188,2.0625,2.0153,1.9824,1.9509,1.9232,1.9218,1.8941,1.8446,1.8106,1.8086,1.8383,1.8383,1.8533,1.875,1.8765,1.8974,1.9361,1.8116,1.7568,1.7843,1.6637,1.5969,1.5997,1.5716,1.5266,1.4655,1.3698,1.2845,0.0,0.0,0.0,0.0,0.0,0.0,0.0,0.0,0.0,0.0,0.0,1.5763,1.5286,1.541,1.6353,1.8393,1.8794,1.9657,2.135,2.1858,2.2505,2.3517,2.4606,2.5531,2.6113,2.6796,2.7396,2.7789,2.785,2.7882,2.8,2.7465,2.6771,2.6054,2.613,2.6191,2.5909,2.6115,2.6277,2.6152,2.5963,2.5852,2.582,2.5543,2.5314,2.5298,2.5031,2.4811,2.4826,2.4811,2.4826,2.4826,2.4811,2.4786,2.4652,2.4171,2.3864,2.4131,2.4186,2.4143,2.5173,2.5732,2.6258,2.6482,2.6342,2.4791,2.4495,2.5115,2.51,2.5425,2.5917,2.5319,2.5083,2.5038,2.4353,2.4031,2.4031,2.3818,2.3729,2.3729,2.364,2.3595,2.358,2.3041,2.2808,2.2793,2.2128,2.1654,2.1298,2.1225,2.0869,2.0308,2.0221,2.0015,1.9723,1.9017,1.8649,1.8649,1.8635,1.8822,1.9176,1.9176,1.9328,1.963,1.8493,1.7817,1.7803,1.6653,1.6065,1.617,1.6223,1.6059,1.5662,1.5083,1.4515,0.0,1.3357,0.0,0.0,0.0,0.0,0.0,0.0,0.0,0.0,1.8241,1.8065,1.7925,1.847,1.9659,2.1716,2.2293,2.3102,2.4374,2.4564,2.4841,2.5481,2.6157,2.6819,2.7473,2.8042,2.8411,2.8381,2.8411,2.8396,2.8389,2.8319,2.7927,2.7155,2.6967,2.696,2.6851,2.6818,2.6863,2.6917,2.6882,2.681,2.6741,2.627,2.5825,2.5846,2.5342,2.489,2.4797,2.4797,2.475,2.4641,2.4609,2.4609,2.4589,2.4527,2.4516,2.4547,2.4527,2.4564,2.623,2.6223,2.5911,2.5794,2.5764,2.5413,2.5646,2.6285,2.63,2.606,2.5661,2.555,2.549,2.5475,2.5332,2.5264,2.5234,2.4672,2.441,2.4395,2.3842,2.3595,2.3595,2.3475,2.343,2.3385,2.2808,2.2467,2.239,2.1848,2.152,2.1386,2.0846,2.0538,2.0475,0.0,0.0,0.0,1.9453,1.9497,1.9566,1.9599,1.9621,1.966,1.8942,0.0,1.8478,1.7235,1.6878,1.7546,1.7151,0.0,0.0,0.0,0.0,0.0,0.0,0.0,0.0,0.0,0.0,0.0,1.9602,2.0451,2.0174,2.0278,2.0447,2.0626,2.1185,2.2366,2.4333,2.4164,2.4471,2.5742,2.5964,2.6257,2.6934,2.7596,2.8088,2.8196,2.8319,2.8411,2.8411,2.8411,2.8411,2.8411,2.8411,2.8304,2.809,2.81,2.8013,2.7646,2.7496,2.7508,2.7538,2.7132,2.6876,2.6704,2.6673,2.6505,2.6489,2.638,2.6053,2.5607,2.5482,2.5295,2.4729,2.4609,2.4616,2.4539,2.4518,2.4559,2.4589,2.4564,2.4503,2.7056,2.6981,2.7071,2.6886,0.0,2.6946,2.6901,2.6602,2.6602,2.6587,2.6557,2.6243,2.6093,2.6078,2.5749,2.56,2.5585,2.527,2.4903,2.459,2.4246,2.3924,2.3595,2.3595,2.3595,2.358,2.3281,2.3167,2.3137,2.2787,2.2488,2.2194,2.1864,2.153,2.1166,2.0528,2.0015,1.965,1.969,1.9723,1.9723,1.9723,1.9723,1.9693,1.9046,0.0,0.0,0.0,0.0,0.0,0.0,0.0,0.0,0.0,0.0,1.8383,1.8267,1.8246,1.8393,1.8884,1.9544,2.0391,2.2297,2.3026,2.1988,2.2375,2.2593,2.2368,2.3414,2.4686,2.6014,2.6367,2.6829,2.7576,2.7725,2.7805,2.7905,2.8196,2.8396,2.8411,2.8411,2.8411,2.8411,2.8411,2.8411,2.8411,2.8411,2.8411,2.8411,2.846,2.8356,2.8097,2.8104,2.814,2.8124,2.7891,2.7627,2.7619,2.731,2.7063,2.7047,2.6753,2.6435,2.6125,2.6047,2.5815,2.5143,2.4957,2.4828,2.4493,2.44,2.44,2.4446,2.4441,2.44,2.7946,2.7861,2.8319,2.811,2.7569,2.811,2.7708,2.6727,0.0,0.0,0.0,2.7031,2.6776,2.6722,2.6198,2.5959,2.5944,2.5839,2.5472,2.4948,2.4709,2.4306,2.3774,2.3655,2.3595,2.3595,2.3595,2.3595,2.3595,2.3588,2.3355,2.2877,2.2706,2.2297,2.1655,2.0978,2.04,1.9866,1.9735,1.9723,1.9723,1.9723,1.9723,1.9723,1.9184,1.8867,1.885,1.8237,1.7987,1.8174,1.8454,1.8733,1.9011,1.937,1.9558,1.9587,1.9658,1.9939,2.0501,2.0611,2.1335,2.2948,2.4447,2.4712,2.3373,2.4233,2.4561,2.392,2.5438,2.6735,2.7455,2.8351,2.8989,2.9164,2.912,2.8904,2.8558,2.8444,2.8411,2.8411,2.8372,2.8372,2.8411,2.8387,2.8372,2.8411,2.8411,2.8411,2.8411,2.8411,2.8396,2.8372,2.8391,2.8518,2.8549,2.8503,2.8565,2.841,2.7944,2.758,2.7488,2.7119,2.6749,2.6603,2.6572,2.6279,2.5687,2.5518,2.5302,2.4779,2.4564,2.4451,2.4451,2.4394,2.4317,2.9306,2.8609,2.8304,2.7797,2.7181,2.727,2.7314,2.7234,2.6792,2.6986,2.7585,2.751,2.745,2.745,2.736,2.7315,2.7285,2.6746,2.6393,2.6258,2.5128,2.456,2.4425,2.3857,2.3595,2.3595,2.3595,2.3595,2.3595,2.356,2.3493,2.3379,2.2717,2.2034,2.1364,2.0808,2.0491,2.0387,1.9937,1.9723,1.9723,1.9723,1.9723,1.9708,1.9618,1.9558,1.954,1.8912,1.901,1.9951,1.959,1.9846,2.0906,2.1184,2.1245,2.1123,2.1422,2.1796,2.2213,2.2512,2.333,2.4763,2.5163,2.483,2.3799,2.5432,2.6392,2.6146,2.7251,2.8388,2.9143,2.9364,2.9466,2.9489,2.9182,2.8967,2.8997,2.8653,2.8468,2.8468,2.8299,2.8332,2.8468,2.8356,2.8332,2.8396,2.842,2.8411,2.8411,2.8411,2.8411,2.8411,2.8436,2.8436,2.846,2.8436,2.8444,2.842,2.8343,2.8181,2.8181,2.8073,2.7796,2.7334,2.7257,2.698,2.6364,2.6248,2.6134,2.5933,2.5533,2.5158,2.5081,2.4687,2.4317,3.0425,3.0029,2.9821,2.9335,2.8674,2.7954,2.8062,2.8644,2.8051,2.7705,2.7585,2.7585,2.7585,2.7585,2.7585,2.7549,2.7458,2.7175,2.6862,2.645,2.5797,2.5307,2.4967,2.4268,2.3926,2.3896,2.3577,2.3436,2.3436,2.3407,2.3407,2.3399,2.3031,2.2509,2.1869,2.1662,2.1411,2.104,2.0158,1.9723,1.9723,1.9723,1.9723,1.9723,1.9723,1.9782,1.9962,1.9674,1.9849,2.058,2.0511,2.075,2.1324,2.1617,2.1889,2.2207,2.2377,2.2738,2.3325,2.3868,2.4464,2.5162,2.5927,2.6209,2.5754,2.6449,2.7104,2.7591,2.8426,2.9212,2.9999,3.0284,3.0326,3.0097,2.9886,2.9689,2.9499,2.9303,2.9175,2.9159,2.9113,2.9106,2.9152,2.8881,2.8708,2.8756,2.8581,2.8436,2.8436,2.8411,2.8411,2.8411,2.8411,2.8411,2.8411,2.8411,2.8411,2.8411,2.8411,2.8411,2.8411,2.8436,2.8297,2.8027,2.7934,2.7673,2.7057,2.6934,2.6795,2.6411,2.618,2.581,2.5395,2.4932,2.4584,3.1292,3.1292,3.1307,3.0966,3.0404,2.9381,2.9403,3.0038,2.958,2.8923,2.8268,2.8087,2.7911,2.7775,2.779,2.774,2.763,2.7615,2.736,2.6871,2.6603,2.627,2.5794,2.4959,2.4555,2.4458,2.3836,2.3518,2.3526,2.3408,2.3282,2.3319,2.3429,2.3205,2.2672,2.2739,2.2511,2.1968,2.097,2.0273,2.0044,2.0134,2.0112,1.9957,1.996,2.0083,2.0326,2.0344,2.0513,2.0893,2.1167,2.1405,2.1678,2.1893,2.2392,2.304,2.3156,2.347,2.4199,2.4944,2.5359,2.5392,2.6569,2.7385,2.7589,2.755,2.7827,2.8751,2.9325,2.9893,3.0419,3.0777,3.0915,3.0576,3.0452,3.0204,2.9941,2.9793,2.9728,2.975,2.9711,2.9683,2.9705,2.9445,2.9189,2.9044,2.87,2.8444,2.8541,2.8549,2.8573,2.8645,2.8565,2.8411,2.8411,2.8411,2.8411,2.8411,2.8517,2.8597,2.8621,2.8645,2.8645,2.8622,2.8542,2.8349,2.7907,2.7783,2.7689,2.7451,2.7221,2.6723,2.5847,2.5521,2.5136,3.1838,3.1823,3.1838,3.1792,3.1687,3.155,3.1313,3.1094,3.1002,3.0669,3.0043,2.9525,2.8901,2.8369,2.8299,2.8275,2.825,2.8314,2.8244,2.8091,2.7571,2.7257,2.7095,2.6122,2.5642,2.5521,2.4639,2.4199,2.4215,2.3629,2.3282,2.3348,2.3782,2.3921,2.3749,2.3632,2.3545,2.3486,2.2917,2.2099,2.1144,2.1418,2.131,2.0727,2.0711,2.0696,2.084,2.0745,2.0925,2.1214,2.1326,2.1759,2.2614,2.2791,2.3123,2.3835,2.3918,2.4232,2.4944,2.5672,2.607,2.6152,2.6868,2.7632,2.8262,2.8834,2.9274,2.9706,3.0188,3.0538,3.0675,3.0651,3.0651,3.0675,3.038,3.0076,3.0108,2.9782,2.9544,2.9611,2.9645,2.9534,2.9821,2.976,2.9531,2.9434,2.9006,2.8841,2.91,2.9075,2.9159,2.9364,2.899,2.8501,2.8493,2.842,2.8541,2.8517,2.8779,2.8974,2.909,2.9319,2.955,2.9106,2.9044,2.8965,2.8933,2.8956,2.8992,2.8914,2.8597,2.8098,2.6925,2.6477,2.6218,3.2684,3.2511,3.2242,3.2296,3.2489,3.2089,3.1936,3.2037,3.2037,3.1678,3.1093,3.0657,2.9921,2.899,2.8581,2.8348,2.8299,2.8299,2.8275,2.8244,2.785,2.7767,2.7769,2.6937,2.65,2.644,2.5665,2.5085,2.4687,2.4041,2.3711,2.3732,2.3946,2.4073,2.4131,2.4126,2.417,2.4288,2.4388,2.4001,2.3217,2.2685,2.2318,2.208,2.2049,2.2185,2.2371,2.2404,2.2555,2.285,2.2899,2.3078,2.3504,2.3537,2.3884,2.4597,2.506,2.5424,2.574,2.6036,2.6402,2.6818,2.7531,2.8282,2.9034,2.9766,3.0222,3.0332,3.0566,3.0749,3.0773,3.0773,3.0753,3.0773,3.063,3.0547,3.0589,3.0443,3.0342,3.0363,3.0351,3.0351,3.0501,3.0667,3.0777,3.0693,3.0273,2.9963,3.0122,2.9801,2.9611,2.9683,2.9432,2.9273,2.9205,2.9227,2.922,2.925,2.9371,2.9506,2.955,2.9617,2.9705,2.9544,2.9544,2.9506,2.9489,2.9506,2.9595,2.9724,2.9324,2.8619,2.8292,2.7945,2.7495,3.3847,3.3611,3.3089,3.2932,3.3044,3.252,3.2465,3.2765,3.2792,3.2542,3.2059,3.1681,3.0914,2.9856,2.9,2.8525,2.8438,2.8453,2.8438,2.8438,2.8295,2.831,2.8352,2.7754,2.7398,2.7291,2.6626,2.5948,2.5316,2.4667,2.4347,2.4353,2.429,2.4307,2.4472,2.4623,2.4792,2.495,2.5332,2.5276,2.4756,2.4096,2.3558,2.3256,2.3208,2.333,2.3618,2.3635,2.3752,2.3984,2.3984,2.41,2.4282,2.4299,2.463,2.5325,2.5905,2.6185,2.622,2.6385,2.6717,2.7282,2.8127,2.8909,2.9516,3.0218,3.0617,3.0634,3.0651,3.0692,3.077,3.079,3.079,3.0794,3.0773,3.0773,3.0753,3.081,3.0753,3.0868,3.099,3.1338,3.1556,3.1741,3.1858,3.1978,3.1567,3.1281,3.125,3.0816,3.0343,3.044,3.0346,3.0049,2.9859,2.9705,2.9793,2.9853,2.9837,2.9989,3.0011,3.0054,3.0054,3.0097,3.0032,2.9989,2.9989,2.9989,3.0092,3.0058,2.9793,2.9436,2.9403,2.9132,2.8712,3.5319,3.518,3.4514,3.3808,3.3282,3.3214,3.3214,3.3214,3.3256,3.3208,3.3066,3.2471,3.1823,3.1007,2.9753,2.9068,2.9045,2.9006,2.9006,2.9021,2.9021,2.9045,2.9029,2.8638,2.8417,2.8269,2.7501,2.6749,2.6182,2.558,2.5247,2.5253,2.5014,2.4875,2.4966,2.5262,2.553,2.5511,2.5551,2.5572,2.5524,2.564,2.5062,2.4099,2.3984,2.4017,2.4034,2.4001,2.4034,2.4017,2.4083,2.4381,2.4961,2.506,2.5392,2.602,2.6185,2.6202,2.6319,2.6884,2.7315,2.7514,2.8572,2.9383,2.9553,3.0149,3.0493,3.051,3.0526,3.0531,3.063,3.0601,3.0601,3.063,3.058,3.0597,3.058,3.0684,3.0605,3.0821,3.1379,3.208,3.2904,3.2696,3.2685,3.2695,3.2325,3.2168,3.2431,3.1984,3.172,3.1758,3.1483,3.0834,3.0032,3.0011,2.9946,3.0011,3.0347,3.0456,3.0621,3.072,3.0679,3.0638,3.0518,3.0456,3.046,3.0539,3.0658,3.0727,3.0845,3.0662,3.0216,3.0114,2.9698,3.6099,3.5566,3.4671,3.4254,3.4123,3.3578,3.3293,3.3293,3.3293,3.3293,3.3182,3.2608,3.2149,3.1823,3.0891,2.9951,2.9177,2.9114,2.9114,2.9114,2.9114,2.9114,2.9075,2.8959,2.8873,2.8803,2.8506,2.8015,2.7411,2.6782,2.6453,2.635,2.5863,2.5638,2.5735,2.5525,2.547,2.5602,2.5602,2.5602,2.5602,2.5661,2.5458,2.5072,2.5286,2.5408,2.5407,2.5407,2.5407,2.5425,2.5391,2.5523,2.5789,2.5788,2.5904,2.6202,2.6651,2.6917,2.7,2.7597,2.821,2.8638,2.9085,2.9628,3.0026,3.034,3.0489,3.0489,3.0489,3.0654,3.1002,3.0787,3.0704,3.1101,3.1201,3.1201,3.1201,3.1201,3.1222,3.1381,3.1993,3.2834,3.3528,3.3712,3.3874,3.432,3.3968,3.3707,3.3666,3.3206,3.2681,3.235,3.2073,3.1635,3.0834,3.0716,3.0716,3.0736,3.0858,3.0898,3.1015,3.1015,3.0955,3.0918,3.0878,3.0841,3.0821,3.0841,3.0998,3.1055,3.119,3.1106,3.0852,3.0666,3.0328,3.6673,3.5932,3.5257,3.4825,3.4515,3.3895,3.3498,3.3324,3.3293,3.3293,3.3198,3.2813,3.2513,3.226,3.1776,3.0939,2.9809,2.9572,2.9319,2.9114,2.9114,2.9114,2.9114,2.9114,2.9114,2.9114,2.9114,2.8846,2.841,2.7747,2.7431,2.7367,2.6704,2.6419,2.6443,2.6086,2.5883,2.576,2.5735,2.5673,2.554,2.5567,2.5624,2.5733,2.6041,2.6168,2.6114,2.6168,2.6185,2.6185,2.6185,2.6185,2.6185,2.6185,2.6301,2.6584,2.7017,2.7415,2.7696,2.8307,2.8903,2.9347,2.9628,2.9992,3.0439,3.0489,3.0489,3.0522,3.077,3.1101,3.1416,3.135,3.1437,3.1863,3.1967,3.1946,3.1946,3.1946,3.2083,3.2365,3.2829,3.355,3.428,3.4488,3.4807,3.5418,3.5071,3.4851,3.4754,3.4235,3.3626,3.3072,3.2564,3.2141,3.1547,3.1284,3.1079,3.1069,3.1035,3.1151,3.119,3.119,3.119,3.119,3.119,3.119,3.119,3.119,3.119,3.119,3.119,3.114,3.1089,3.114,3.0784,3.7083,3.6453,3.6377,3.5584,3.4596,3.4315,3.3878,3.3435,3.3324,3.3293,3.3277,3.3245,3.2882,3.2449,3.2339,3.188,3.1128,3.0559,2.9911,2.9272,2.9146,2.9114,2.9114,2.9114,2.9114,2.9114,2.9114,2.9114,2.8988,2.8426,2.811,2.7984,2.7431,2.7115,2.7099,2.6978,2.6678,2.6229,2.6107,2.587,2.5422,2.5669,2.5889,2.6042,2.6259,2.6277,2.6049,2.6145,2.6185,2.6185,2.6185,2.622,2.6268,2.6285,2.6551,2.7199,2.7365,2.7713,2.8376,2.9036,2.9433,2.9595,3.0075,3.0406,3.0456,3.0489,3.0522,3.0704,3.1135,3.1598,3.1813,3.2266,3.2636,3.2718,3.2696,3.2696,3.2696,3.2718,3.2961,3.3491,3.3746,3.4174,3.4792,3.4995,3.5161,3.5356,3.5407,3.5391,3.538,3.4895,3.4556,3.4172,3.3478,3.2767,3.2242,3.1769,3.1478,3.1258,3.1188,3.119,3.119,3.119,3.119,3.119,3.119,3.119,3.119,3.119,3.119,3.119,3.119,3.119,3.119,3.119,3.119,3.7354,3.7085,3.6598,3.6156,3.5603,3.4731,3.4162,3.3925,3.3514,3.3309,3.3293,3.3293,3.3166,3.3024,3.2977,3.2598,3.195,3.169,3.101,2.9959,2.9374,2.9146,2.913,2.913,2.9114,2.9114,2.9114,2.9114,2.9067,2.8877,2.8783,2.8656,2.811,2.781,2.7762,2.7352,2.6941,2.682,2.6904,2.689,2.6795,2.6981,2.7136,2.7215,2.7388,2.7482,2.7394,2.664,2.6219,2.6219,2.6185,2.6435,2.6851,2.6967,2.7298,2.7995,2.8525,2.8804,2.9102,2.9728,3.0125,3.0191,3.0373,3.0472,3.0489,3.0489,3.0721,3.1118,3.1499,3.1912,3.2895,3.3292,3.3464,3.3464,3.3442,3.3442,3.3464,3.3464,3.3547,3.3789,3.422,3.4658,3.4887,3.5018,3.5152,3.5314,3.5423,3.5514,3.5543,3.538,3.5013,3.4539,3.3914,3.3495,3.3017,3.2496,3.2039,3.1633,3.1376,3.1207,3.119,3.119,3.119,3.119,3.119,3.119,3.119,3.119,3.119,3.119,3.119,3.119,3.119,3.123,3.1271,3.751,3.7447,3.7006,3.6643,3.6329,3.5426,3.4936,3.462,3.3972,3.3672,3.364,3.3403,3.3293,3.3293,3.3293,3.3056,3.2671,3.2434,3.1817,3.09,2.9927,2.9525,2.9469,2.9209,2.9114,2.9114,2.9114,2.9114,2.9114,2.9114,2.9114,2.9004,2.8656,2.8489,2.8458,2.8079,2.7762,2.7547,2.7582,2.7583,2.748,2.7639,2.7802,2.7903,2.8099,2.8198,2.8151,2.7406,2.7015,2.7015,2.7015,2.7263,2.7663,2.7729,2.8028,2.8671,2.9135,2.9479,2.9794,3.0208,3.0489,3.0489,3.0489,3.0489,3.0489,3.0489,3.082,3.1449,3.1885,3.2497,3.3524,3.4071,3.4187,3.4203,3.4187,3.4203,3.4203,3.4203,3.4203,3.4336,3.4618,3.4849,3.4923,3.497,3.5081,3.5215,3.5354,3.5469,3.5526,3.5577,3.5245,3.4928,3.4523,3.415,3.3829,3.3271,3.2628,3.2107,3.1616,3.136,3.119,3.119,3.119,3.119,3.119,3.119,3.119,3.119,3.119,3.119,3.119,3.119,3.121,3.1389,3.1449,3.751,3.751,3.7494,3.7085,3.6535,3.6314,3.5947,3.5379,3.4668,3.432,3.413,3.3688,3.3372,3.3324,3.3293,3.3245,3.3209,3.2806,3.2546,3.2078,3.1197,3.0521,3.0046,2.9548,2.9256,2.9114,2.9114,2.9114,2.9114,2.9114,2.9114,2.9098,2.9051,2.9082,2.8988,2.9067,2.8656,2.8221,2.8186,2.8017,2.7694,2.7865,2.8054,2.8252,2.852,2.8668,2.8671,2.8572,2.8459,2.8376,2.821,2.8243,2.8409,2.8442,2.8757,2.94,2.9483,2.9904,3.0365,3.0605,3.0634,3.0654,3.0654,3.0531,3.0572,3.0804,3.117,3.186,3.2518,3.3217,3.3999,3.4565,3.4891,3.4913,3.479,3.4783,3.4866,3.4857,3.4767,3.48,3.4899,3.4899,3.4899,3.4923,3.4994,3.5128,3.5245,3.536,3.5481,3.5571,3.5616,3.5329,3.4996,3.4844,3.4523,3.3964,3.3355,3.3004,3.2276,3.1579,3.1241,3.119,3.119,3.119,3.119,3.119,3.119,3.119,3.119,3.119,3.119,3.119,3.1349,3.1562,3.1749,3.751,3.751,3.751,3.737,3.7117,3.6629,3.6342,3.6074,3.5438,3.492,3.4406,3.4099,3.3815,3.334,3.3335,3.3293,3.3387,3.3537,3.3609,3.3555,3.315,3.1747,3.0505,3.003,2.965,2.9255,2.9247,2.9114,2.9114,2.9137,2.9137,2.9114,2.9137,2.9114,2.9114,2.9137,2.9035,2.8907,2.9041,2.9051,2.8992,2.9253,2.9569,2.9632,2.9795,2.9897,2.9947,2.9943,2.94,2.8475,2.8409,2.8622,2.9085,2.9152,2.9433,3.0013,3.0399,3.0603,3.0848,3.1078,3.1196,3.1235,3.1176,3.1137,3.0932,3.1604,3.2212,3.2854,3.3681,3.4541,3.5164,3.5464,3.5487,3.527,3.5078,3.4947,3.4923,3.4899,3.4899,3.4899,3.4899,3.4899,3.4899,3.4923,3.4994,3.5175,3.5268,3.536,3.5481,3.5571,3.5616,3.5616,3.5397,3.5363,3.5143,3.4607,3.415,3.3901,3.3055,3.1867,3.1495,3.119,3.119,3.119,3.119,3.119,3.119,3.119,3.119,3.123,3.137,3.1468,3.1657,3.186,3.2074,3.8217,3.8201,3.8201,3.8201,3.8153,3.775,3.7588,3.7443,3.6841,3.6335,3.5851,3.5227,3.4807,3.4436,3.4088,3.3958,3.3968,3.4243,3.4374,3.4374,3.4228,3.3076,3.1653,3.1237,3.0858,3.02,2.9932,2.9801,2.9653,2.9312,2.9312,2.9566,2.9289,2.9213,2.9418,2.919,2.9114,2.9121,2.9259,2.9373,2.9515,2.9848,3.0156,3.0326,3.0572,3.0712,3.0695,3.0572,3.0059,2.945,2.9301,2.9466,2.9777,2.986,3.0059,3.051,3.0814,3.0995,3.1072,3.131,3.1485,3.1485,3.1485,3.1577,3.1715,3.231,3.2835,3.3875,3.455,3.5177,3.5719,3.589,3.582,3.5638,3.5413,3.5218,3.4954,3.4899,3.4899,3.4923,3.4899,3.4899,3.4923,3.4923,3.5018,3.5152,3.5245,3.5383,3.5503,3.5571,3.5667,3.5734,3.5711,3.5627,3.5598,3.5191,3.4712,3.4457,3.3921,3.2672,3.1922,3.1477,3.1266,3.1286,3.1247,3.123,3.1271,3.131,3.131,3.1408,3.1601,3.1805,3.1985,3.2248,3.2453,3.9189,3.9189,3.9189,3.9189,3.9135,3.9162,3.8972,3.9013,3.8381,3.8027,3.7663,3.6704,3.6158,3.6033,3.5202,3.4894,3.491,3.4883,3.4934,3.5005,3.4931,3.4268,3.3323,3.2757,3.2265,3.1622,3.1242,3.0893,3.0533,2.981,2.9808,3.0087,2.9633,2.9522,2.9766,2.9515,2.9305,2.9357,2.9432,2.9566,2.9766,3.0011,3.033,3.0642,3.0902,3.1055,3.0995,3.0834,3.0592,3.0597,3.0589,3.0472,3.0522,3.0555,3.0617,3.072,3.0998,3.1176,3.1173,3.1485,3.1721,3.1828,3.1843,3.2006,3.2659,3.3095,3.3733,3.4696,3.5046,3.5576,3.5929,3.6037,3.5994,3.5946,3.5907,3.5577,3.5178,3.5001,3.5018,3.5001,3.5024,3.5001,3.5018,3.5024,3.5102,3.5611,3.5655,3.5832,3.5941,3.6049,3.6049,3.5985,3.5941,3.5832,3.5832,3.5764,3.5322,3.4941,3.4545,3.3657,3.2659,3.2124,3.1664,3.1455,3.1598,3.16,3.1524,3.1524,3.1543,3.1694,3.1968,3.2127,3.2265,3.2635,3.2894,3.9189,3.9189,3.9189,3.9189,3.9189,3.9189,3.9189,3.9199,3.905,3.8724,3.8174,3.7775,3.7352,3.6854,3.6205,3.5718,3.573,3.5562,3.5616,3.5968,3.5985,3.5887,3.5172,3.4292,3.3228,3.2641,3.2409,3.2006,3.1449,3.1191,3.0853,3.0551,3.0483,3.0246,3.0342,3.0241,3.0187,3.0187,3.023,3.0251,3.0356,3.0584,3.0808,3.1024,3.1257,3.137,3.1406,3.1312,3.1293,3.1252,3.1089,3.1002,3.0932,3.1098,3.1215,3.131,3.1557,3.1709,3.1783,3.2086,3.2458,3.2946,3.3032,3.3291,3.3831,3.4577,3.5029,3.5506,3.6023,3.6466,3.662,3.6489,3.6385,3.6305,3.6118,3.5907,3.571,3.5666,3.5638,3.5621,3.5621,3.5666,3.5666,3.5776,3.5885,3.6079,3.6211,3.6419,3.6478,3.6495,3.6433,3.6333,3.6333,3.6308,3.6308,3.627,3.5998,3.5673,3.5281,3.4849,3.3859,3.3143,3.2826,3.2433,3.2109,3.2021,3.1841,3.1949,3.202,3.2179,3.2316,3.2485,3.27,3.3034,3.3193,3.9969,3.9986,3.9986,3.9969,3.9986,3.9986,3.9969,3.9986,4.0011,3.9792,3.9386,3.9048,3.8667,3.8278,3.755,3.7077,3.6632,3.6212,3.6174,3.6423,3.6464,3.6482,3.6409,3.5655,3.4759,3.4033,3.3739,3.3339,3.2957,3.253,3.2316,3.2198,3.1597,3.1357,3.1288,3.0948,3.0588,3.0588,3.0666,3.0727,3.0868,3.0988,3.1278,3.1449,3.1618,3.1691,3.1691,3.1542,3.1504,3.1587,3.1788,3.1669,3.1205,3.1332,3.1557,3.1706,3.2199,3.2431,3.2574,3.3087,3.367,3.4004,3.4073,3.4421,3.4834,3.5542,3.591,3.6201,3.6628,3.697,3.6987,3.6888,3.6748,3.669,3.6533,3.6412,3.6371,3.6122,3.589,3.589,3.5847,3.5912,3.6041,3.6253,3.6361,3.6422,3.6484,3.6646,3.6704,3.6721,3.6761,3.6741,3.6801,3.6801,3.6801,3.6746,3.6636,3.6424,3.6247,3.5881,3.531,3.4709,3.4214,3.353,3.2754,3.2283,3.2144,3.23,3.2436,3.2518,3.2666,3.286,3.3034,3.3208,3.3301,4.0894,4.0894,4.0894,4.0894,4.0894,4.0847,4.0823,4.0847,4.0894,4.0724,4.0767,4.0129,3.98,3.9669,3.9009,3.8318,3.7512,3.6986,3.6762,3.664,3.6661,3.6661,3.6606,3.6422,3.6121,3.5584,3.5191,3.484,3.4367,3.3884,3.3707,3.3984,3.3057,3.259,3.2556,3.1953,3.1556,3.1664,3.1738,3.1763,3.1864,3.1886,3.2152,3.2412,3.2539,3.2557,3.2556,3.2373,3.2137,3.203,3.2843,3.2678,3.2158,3.1865,3.1984,3.2221,3.2956,3.3323,3.3518,3.4068,3.46,3.4793,3.4863,3.5232,3.5792,3.6055,3.6336,3.6671,3.6989,3.6989,3.6989,3.695,3.695,3.695,3.697,3.6989,3.6891,3.6412,3.6207,3.6143,3.6249,3.6371,3.6457,3.662,3.6704,3.6786,3.6845,3.6923,3.6999,3.7094,3.7207,3.7301,3.7376,3.7413,3.7413,3.7357,3.7249,3.7138,3.7064,3.6859,3.6542,3.6024,3.5312,3.409,3.3346,3.2942,3.2658,3.2702,3.2798,3.2878,3.2957,3.3099,3.3238,3.336,3.3393,4.0894,4.0894,4.0894,4.0894,4.0894,4.0894,4.0894,4.0894,4.0894,4.0894,4.0877,4.0774,4.0636,4.0463,3.9871,3.8829,3.7966,3.7494,3.7158,3.6841,3.6757,3.6722,3.6742,3.6742,3.6603,3.6586,3.6307,3.5928,3.5464,3.5156,3.4928,3.4488,3.4114,3.4025,3.399,3.3833,3.346,3.3354,3.3464,3.3557,3.3595,3.3688,3.3763,3.3946,3.3894,3.3946,3.407,3.4121,3.4173,3.4173,3.4332,3.447,3.434,3.4167,3.3943,3.37,3.4033,3.4384,3.4472,3.4633,3.5074,3.5443,3.5636,3.5969,3.6533,3.6742,3.6796,3.6867,3.6989,3.6989,3.6989,3.6989,3.6989,3.6989,3.6989,3.6989,3.6968,3.6851,3.6733,3.6696,3.6774,3.6834,3.6935,3.7054,3.7245,3.7394,3.7505,3.7595,3.7667,3.7775,3.7881,3.7968,3.8037,3.8037,3.8037,3.7985,3.7933,3.7845,3.7756,3.7756,3.7462,3.7115,3.6307,3.5137,3.4295,3.384,3.3566,3.3263,3.3117,3.3144,3.3223,3.3301,3.3345,3.3393,3.3393,4.0894,4.0894,4.0894,4.0894,4.0894,4.0894,4.0894,4.0894,4.0894,4.0894,4.0894,4.0894,4.0894,4.0791,4.0567,3.9755,3.8955,3.8021,3.7687,3.7385,3.7038,3.6866,3.6864,3.6864,3.6869,3.6871,3.6834,3.6671,3.6306,3.6271,3.6027,3.5782,3.5397,3.5135,3.503,3.4679,3.4645,3.4593,3.463,3.4649,3.4631,3.4723,3.4723,3.4723,3.4723,3.4688,3.4688,3.4688,3.467,3.474,3.5074,3.5302,3.546,3.5636,3.5497,3.4934,3.5039,3.5267,3.539,3.5583,3.611,3.6338,3.6391,3.6566,3.6884,3.6972,3.6989,3.6989,3.6989,3.6989,3.6989,3.6989,3.6989,3.6989,3.6989,3.6989,3.6989,3.6989,3.7029,3.7087,3.7106,3.7164,3.7373,3.7558,3.781,3.7986,3.8123,3.8175,3.8192,3.8209,3.8209,3.8192,3.8192,3.8192,3.8192,3.8192,3.8209,3.8209,3.8209,3.8209,3.8119,3.7685,3.7105,3.6244,3.5514,3.4733,3.4142,3.3725,3.3584,3.3393,3.336,3.3345,3.336,3.3393,3.3393,4.0894,4.0894,4.0894,4.0894,4.0894,4.0894,4.0894,4.0894,4.0894,4.0894,4.0894,4.0894,4.0894,4.0894,4.0814,4.0545,4.0021,3.8841,3.8489,3.8246,3.7845,3.7479,3.7251,3.72,3.718,3.695,3.6968,3.6989,3.6862,3.6862,3.6935,3.6669,3.6233,3.6057,3.5933,3.5617,3.5197,3.5144,3.5162,3.5162,3.5163,3.5163,3.5163,3.518,3.5163,3.5251,3.5337,3.5374,3.5356,3.5479,3.5723,3.5969,3.5934,3.6533,3.6586,3.5952,3.5934,3.6022,3.6197,3.6478,3.6779,3.6849,3.6954,3.6989,3.6989,3.6989,3.6989,3.6989,3.6989,3.6989,3.6989,3.6989,3.6989,3.6989,3.6989,3.6989,3.6989,3.7009,3.7087,3.7182,3.7297,3.7466,3.7631,3.7721,3.7899,3.8038,3.8175,3.8175,3.8209,3.8209,3.8209,3.8209,3.8192,3.8192,3.8192,3.8192,3.8209,3.8209,3.8209,3.8209,3.8209,3.8101,3.7538,3.7013,3.627,3.5457,3.4824,3.4139,3.3864,3.3628,3.3484,3.3393,3.3393,3.3393,3.3393,4.0894,4.0894,4.0894,4.0894,4.0894,4.0894,4.0894,4.0894,4.0894,4.0894,4.0894,4.0894,4.0894,4.0894,4.0918,4.0603,4.0167,3.9844,3.9468,3.9161,3.8901,3.848,3.8058,3.797,3.7584,3.7251,3.7095,3.6989,3.6989,3.6989,3.6989,3.6919,3.6884,3.6831,3.6654,3.648,3.6744,3.6691,3.6656,3.6638,3.6603,3.6586,3.6568,3.6586,3.6586,3.6533,3.6445,3.6427,3.648,3.6568,3.6708,3.6831,3.6867,3.6902,3.6972,3.6849,3.6867,3.6867,3.6831,3.6919,3.6989,3.6989,3.6989,3.6989,3.6989,3.6989,3.6989,3.6989,3.6989,3.6989,3.6989,3.6989,3.6989,3.6989,3.6989,3.6989,3.6989,3.6989,3.7087,3.7316,3.7428,3.7631,3.7846,3.7881,3.7951,3.8107,3.8209,3.8209,3.8209,3.8209,3.8209,3.8209,3.8209,3.8209,3.8209,3.8209,3.8209,3.8209,3.8209,3.8209,3.8209,3.8209,3.8209,3.7629,3.6904,3.6127,3.5367,3.4733,3.419,3.3828,3.361,3.3484,3.3393,3.3393,3.3393,4.0894,4.0894,4.0894,4.0894,4.0894,4.0894,4.0894,4.0894,4.0894,4.0894,4.0894,4.0894,4.0935,4.1006,4.1059,4.1001,4.0789,4.0495,4.0215,3.988,3.9568,3.9143,3.8863,3.8743,3.8374,3.7795,3.7549,3.7321,3.7183,3.7042,3.6989,3.6989,3.6989,3.6954,3.6989,3.6989,3.6972,3.6954,3.6972,3.6989,3.6989,3.6989,3.6989,3.6989,3.6989,3.6989,3.6989,3.6989,3.6989,3.6989,3.6989,3.6989,3.6989,3.6989,3.6989,3.6989,3.6989,3.6972,3.6972,3.6989,3.6989,3.6989,3.6989,3.6989,3.6989,3.6989,3.6989,3.6989,3.6989,3.6989,3.6989,3.6989,3.6989,3.6989,3.6989,3.6989,3.6989,3.7009,3.7087,3.7334,3.7576,3.7775,3.7951,3.8021,3.8055,3.8124,3.8209,3.8209,3.8209,3.8209,3.8209,3.8209,3.8209,3.8209,3.8209,3.8209,3.8209,3.8209,3.8209,3.8209,3.8209,3.8209,3.8209,3.8209,3.7756,3.6906,3.6001,3.524,3.4624,3.4172,3.3737,3.3592,3.3465,3.3393,3.3393,4.0894,4.0894,4.0894,4.0894,4.0894,4.0894,4.0894,4.0894,4.0894,4.0894,4.0912,4.0935,4.1006,4.1105,4.118,4.1214,4.1351,4.092,4.0775,4.0516,4.02,3.9849,3.9656,3.955,3.9182,3.8409,3.8409,3.8181,3.7777,3.7426,3.7251,3.7025,3.6989,3.6989,3.6989,3.6989,3.6989,3.6989,3.6989,3.6989,3.6989,3.6989,3.6989,3.6989,3.6989,3.6989,3.6989,3.6989,3.6989,3.6989,3.6989,3.6989,3.6989,3.6989,3.6989,3.6989,3.6989,3.6989,3.6989,3.6989,3.6989,3.6989,3.6989,3.6989,3.6989,3.6989,3.6989,3.6989,3.6989,3.6989,3.6989,3.6989,3.6989,3.6989,3.6989,3.6989,3.6989,3.7066,3.7182,3.7447,3.7667,3.7863,3.8021,3.8141,3.8192,3.8192,3.8209,3.8209,3.8209,3.8209,3.8209,3.8209,3.8209,3.8209,3.8209,3.8209,3.8209,3.8209,3.8209,3.8209,3.8209,3.8209,3.8209,3.8209,3.8209,3.7846,3.7031,3.6019,3.5059,3.4552,3.4081,3.3737,3.3556,3.3484,3.3393,4.0894,4.0894,4.0894,4.0894,4.0894,4.0894,4.0894,4.0894,4.0894,4.0894,4.0935,4.1006,4.1105,4.1203,4.1232,4.1277,4.1403,4.1373,4.134,4.1389,4.1394,4.0884,4.0586,4.0288,4.0007,3.934,3.9217,3.9164,3.8918,3.8234,3.769,3.7112,3.7112,3.7042,3.6989,3.6989,3.6989,3.6989,3.6989,3.6989,3.6989,3.6989,3.6989,3.6989,3.6989,3.6989,3.6989,3.6989,3.6989,3.6989,3.6989,3.6989,3.6989,3.6989,3.6989,3.6989,3.6989,3.7042,3.713,3.706,3.6989,3.6989,3.706,3.7165,3.72,3.7077,3.7025,3.72,3.7303,3.7235,3.7148,3.7042,3.7356,3.7391,3.7444,3.7288,3.7257,3.7142,3.7295,3.7558,3.7739,3.7881,3.8072,3.8175,3.8209,3.8209,3.8209,3.8209,3.8209,3.8209,3.8209,3.8209,3.8209,3.8209,3.8209,3.8209,3.8209,3.8209,3.8209,3.8209,3.8209,3.8209,3.8209,3.8209,3.8209,3.8136,3.8028,3.7069,3.6109,3.5077,3.4461,3.428,3.3954,3.3773,3.3592,4.1012,4.0894,4.0982,4.0982,4.0894,4.0894,4.0894,4.0894,4.0894,4.0959,4.1006,4.1129,4.1244,4.1295,4.1358,4.1386,4.1515,4.1515,4.156,4.1582,4.1516,4.1411,4.1183,4.1025,4.0779,4.0182,4.0007,3.9691,3.9213,3.8985,3.8813,3.8286,3.7587,3.7077,3.6989,3.7148,3.7095,3.7042,3.7042,3.7025,3.6989,3.6989,3.6989,3.6989,3.6989,3.6989,3.6989,3.6989,3.6989,3.7042,3.7077,3.713,3.7165,3.7148,3.713,3.713,3.7148,3.7323,3.7514,3.7341,3.7007,3.713,3.7393,3.7692,3.7692,3.7672,3.7988,3.8093,3.7918,3.7795,3.8357,3.8427,3.8497,3.8304,3.8058,3.7777,3.7662,3.7617,3.767,3.8039,3.79,3.781,3.8003,3.8192,3.8209,3.8209,3.8209,3.8209,3.8209,3.8209,3.8209,3.8209,3.8209,3.8209,3.8209,3.8209,3.8209,3.8209,3.8209,3.8209,3.8209,3.8209,3.8209,3.8209,3.8209,3.8172,3.8082,3.7919,3.7178,3.6073,3.5421,3.5023,3.4627,3.419,3.3966,4.1134,4.1012,4.1082,4.1053,4.0912,4.0935,4.0976,4.0959,4.0989,4.1059,4.1192,4.1267,4.134,4.1426,4.1471,4.1493,4.1582,4.1582,4.1604,4.1604,4.1604,4.1604,4.1604,4.1499,4.1253,4.0867,4.0762,4.0481,4.0165,3.9814,3.9638,3.9199,3.8427,3.7918,3.776,3.7654,3.7584,3.7391,3.7584,3.7672,3.7725,3.7742,3.776,3.7777,3.783,3.7848,3.7865,3.79,3.7848,3.783,3.7795,3.7742,3.7707,3.7672,3.7672,3.7654,3.7725,3.7935,3.8128,3.8076,3.769,3.7953,3.8181,3.8427,3.8444,3.8462,3.8708,3.9006,3.8743,3.8725,3.9357,3.9129,3.9059,3.8831,3.869,3.8462,3.8433,3.841,3.8433,3.8556,3.8365,3.8277,3.8327,3.8518,3.8336,3.8299,3.8209,3.8209,3.8209,3.8209,3.8209,3.8209,3.8209,3.8209,3.8209,3.8209,3.8209,3.8209,3.8209,3.8209,3.8209,3.8209,3.8209,3.8209,3.8209,3.8209,3.8154,3.8046,3.7629,3.7049,3.6345,3.5602,3.5377,3.4957,3.4615,4.1192,4.1209,4.1186,4.1088,4.0942,4.1029,4.1093,4.1099,4.1157,4.1249,4.1358,4.1386,4.1453,4.156,4.156,4.1582,4.1582,4.1604,4.1604,4.1604,4.1604,4.1604,4.1604,4.1569,4.1516,4.1587,4.1429,4.1306,4.1323,4.0727,4.0481,4.0288,3.9673,3.9091,3.9234,3.9217,3.8831,3.8322,3.8792,3.8936,3.8954,3.8918,3.8883,3.8866,3.8866,3.8813,3.8796,3.8796,3.8778,3.8796,3.8831,3.8848,3.8883,3.8918,3.8936,3.8989,3.9041,3.9147,3.9231,3.9252,3.9206,3.9009,3.9041,3.9252,3.9249,3.9284,3.9406,3.9779,3.9427,3.934,3.941,3.9463,3.9585,3.9585,3.948,3.9269,3.9223,3.8966,3.8921,3.9013,3.9045,3.9014,3.8975,3.888,3.8572,3.8426,3.8263,3.8227,3.8245,3.8209,3.8209,3.8209,3.8209,3.8209,3.8209,3.8209,3.8209,3.8209,3.8209,3.8209,3.8209,3.8209,3.8209,3.8209,3.8209,3.8209,3.8209,3.8191,3.781,3.743,3.6725,3.6109,3.5937,3.5793,3.5487,4.1346,4.1192,4.1295,4.1249,4.1094,4.1157,4.1157,4.1198,4.129,4.138,4.1426,4.1493,4.156,4.1582,4.1604,4.1604,4.1604,4.1604,4.1604,4.1604,4.1604,4.1604,4.1604,4.1604,4.1604,4.1604,4.1604,4.1604,4.1534,4.1218,4.1218,4.1095,4.0787,4.027,3.9585,3.9284,3.9091,3.8989,3.9182,3.9287,3.934,3.9375,3.941,3.9427,3.9445,3.9463,3.9459,3.9494,3.9515,3.954,3.9578,3.9543,3.9525,3.9525,3.9431,3.9392,3.9375,3.9585,4.013,4.0514,4.0492,4.0031,3.988,4.0148,4.0098,4.0077,4.0323,4.0541,4.0363,4.0429,4.0727,4.0854,4.0924,4.0797,4.0621,4.0217,3.9997,3.9487,3.9256,3.9425,3.9501,3.9732,3.9788,3.9641,3.9333,3.9061,3.8952,3.8499,3.8372,3.8263,3.8209,3.8209,3.8209,3.8209,3.8209,3.8209,3.8209,3.8209,3.8209,3.8209,3.8209,3.8225,3.8242,3.8241,3.8225,3.8209,3.8292,3.8305,3.8135,3.7721,3.7275,3.6912,3.6731,3.664,3.6471,4.1498,4.1363,4.1431,4.1426,4.1323,4.1277,4.1295,4.1346,4.1431,4.1471,4.1493,4.156,4.1604,4.1604,4.1604,4.1604,4.1604,4.1604,4.1604,4.1604,4.1604,4.1604,4.1604,4.1609,4.1604,4.1604,4.1604,4.1604,4.1604,4.1604,4.1552,4.1556,4.1723,4.1252,4.0591,4.0366,4.0024,3.9972,4.0024,4.0249,4.0253,4.0217,4.02,4.0217,4.02,4.0161,4.0108,4.0116,4.0144,4.0193,4.0276,4.0321,4.0362,4.0356,4.0332,4.0309,4.0362,4.0713,4.1383,4.181,4.1582,4.0925,4.107,4.1248,4.1283,4.1368,4.1561,4.1665,4.1419,4.1561,4.1827,4.1963,4.1909,4.1768,4.152,4.1117,4.0951,4.0477,4.0288,4.0385,4.0303,4.0522,4.0583,4.0402,4.0184,3.993,3.9677,3.9186,3.8659,3.8444,3.8298,3.8242,3.8242,3.8242,3.8225,3.8209,3.8209,3.8209,3.8242,3.8276,3.8241,3.8274,3.8272,3.8322,3.8435,3.8499,3.8483,3.843,3.8394,3.8394,3.8295,3.7938,3.761,3.7497,3.7437,4.1648,4.1648,4.1631,4.1653,4.1631,4.1569,4.1565,4.1626,4.1604,4.1604,4.1609,4.1653,4.1723,4.1719,4.1697,4.1723,4.1766,4.1744,4.1766,4.1744,4.1874,4.1788,4.1766,4.1766,4.1874,4.1766,4.1744,4.1899,4.1697,4.1831,4.1831,4.1809,4.2092,4.1945,4.1795,4.1543,4.1167,4.1028,4.1152,4.1365,4.1386,4.1406,4.1364,4.1368,4.1382,4.1382,4.1421,4.146,4.1682,4.1843,4.204,4.2316,4.2449,4.2384,4.2282,4.2165,4.2058,4.2241,4.2437,4.2659,4.2755,4.2282,4.2593,4.2774,4.2587,4.2345,4.2397,4.247,4.2325,4.2494,4.2678,4.2657,4.2638,4.2485,4.2327,4.2141,4.2058,4.1869,4.1724,4.1632,4.1443,4.1428,4.1324,4.1159,4.1303,4.1228,4.0989,4.0534,3.9881,3.8769,3.8569,3.8272,3.8272,3.8274,3.8274,3.8372,3.8405,3.8469,3.8405,3.8403,3.837,3.8403,3.8481,3.859,3.8743,3.8788,3.8698,3.8747,3.8803,3.8822,3.8728,3.8594,3.8156,3.8412,3.8418,4.2442,4.2442,4.2462,4.2442,4.2442,4.2402,4.2262,4.2008,4.1762,4.174,4.2029,4.2008,4.2154,4.2442,4.2442,4.2422,4.2422,4.248,4.2462,4.2422,4.232,4.242,4.2422,4.2362,4.244,4.2402,4.2402,4.2342,4.2422,4.2402,4.2402,4.2503,4.2541,4.2599,4.258,4.2521,4.2284,4.2153,4.2313,4.2286,4.2279,4.2154,4.2198,4.2259,4.2113,4.2154,4.23,4.236,4.2482,4.258,4.2638,4.2753,4.2716,4.2676,4.2638,4.2638,4.262,4.2678,4.281,4.3051,4.323,4.3283,4.344,4.323,4.3014,4.2867,4.2885,4.2941,4.2959,4.2996,4.3014,4.2996,4.3014,4.2959,4.2811,4.2736,4.2659,4.26,4.2501,4.249,4.232,4.2377,4.2243,4.2437,4.2563,4.2523,4.2284,4.1792,4.0974,3.9786,3.9028,3.8729,3.8433,3.8449,3.8609,3.8716,3.8716,3.8698,3.8621,3.859,3.8652,3.8698,3.8758,3.8862,3.8979,3.8964,3.8881,3.8954,3.9054,3.8954,3.8866,3.8833,3.8848,3.8974,3.9101,4.2792,4.2792,4.2792,4.2903,4.2996,4.2848,4.2734,4.2599,4.2239,4.2218,4.244,4.2422,4.2598,4.2716,4.2735,4.2735,4.2735,4.2697,4.2716,4.2697,4.2829,4.2735,4.2773,4.281,4.2735,4.2792,4.2792,4.2678,4.2829,4.2792,4.2754,4.2754,4.2922,4.3032,4.3069,4.3177,4.3283,4.3105,4.2996,4.2848,4.2697,4.258,4.2676,4.2716,4.2521,4.2638,4.2773,4.2829,4.2885,4.3014,4.3032,4.3141,4.3159,4.3159,4.3051,4.3051,4.3051,4.3159,4.3335,4.3508,4.3592,4.3677,4.386,4.3712,4.3525,4.337,4.337,4.337,4.3335,4.33,4.3283,4.3283,4.3317,4.3352,4.3264,4.3158,4.314,4.3141,4.3141,4.3176,4.3246,4.3349,4.3485,4.3679,4.3658,4.3334,4.3023,4.2654,4.1719,4.0517,3.9808,3.9399,3.8974,3.8713,3.8918,3.9135,3.9017,3.8955,3.8822,3.8822,3.8925,3.8993,3.905,3.912,3.9202,3.918,3.9166,3.9193,3.9248,3.9152,3.9124,3.918,3.9161,3.9147,3.9256,4.2904,4.2904,4.2885,4.3141,4.3371,4.3069,4.3123,4.3388,4.3051,4.2867,4.2866,4.2847,4.2903,4.3069,4.3051,4.3069,4.3087,4.3069,4.3105,4.2904,4.3069,4.3087,4.3069,4.2922,4.3123,4.2978,4.2959,4.3123,4.2996,4.3051,4.3087,4.2904,4.3248,4.344,4.3491,4.3677,4.3761,4.3677,4.3371,4.3105,4.3014,4.2922,4.2866,4.2922,4.2885,4.2903,4.2941,4.2996,4.3069,4.3319,4.3491,4.3627,4.366,4.3644,4.3491,4.344,4.3457,4.3559,4.371,4.386,4.3908,4.3958,4.3989,4.3942,4.3809,4.3744,4.3728,4.3728,4.3695,4.3679,4.366,4.366,4.3675,4.371,4.3658,4.364,4.3638,4.364,4.3656,4.3689,4.3721,4.3855,4.3886,4.4002,4.4017,4.3855,4.3712,4.341,4.273,4.1496,4.0818,4.0337,3.9989,3.9704,3.9713,3.9807,3.9416,3.9229,3.9174,3.9054,3.9147,3.9229,3.9322,3.9367,3.9393,3.9489,3.9502,3.9476,3.9451,3.9464,3.9464,3.9558,3.9514,3.938,3.9375,4.3728,4.3712,4.3728,4.3777,4.3841,4.3761,4.3761,4.386,4.3777,4.3526,4.3283,4.3265,4.3423,4.3575,4.361,4.361,4.3627,4.3525,4.3695,4.3644,4.3627,4.3543,4.3679,4.356,4.3627,4.371,4.371,4.3627,4.3594,4.3627,4.3677,4.3695,4.3828,4.3793,4.3793,4.3989,4.3989,4.3955,4.3793,4.3577,4.3577,4.3423,4.3354,4.3457,4.3491,4.3422,4.3491,4.3679,4.3744,4.3841,4.3841,4.3923,4.3989,4.3892,4.3857,4.3841,4.3809,4.3892,4.3958,4.4005,4.4005,4.4005,4.4005,4.4005,4.3989,4.4005,4.4005,4.4005,4.4005,4.4005,4.4005,4.4005,4.402,4.402,4.4055,4.4079,4.4106,4.4121,4.4121,4.4136,4.4166,4.4199,4.4229,4.4262,4.4292,4.4306,4.4321,4.4134,4.3847,4.2996,4.2209,4.1711,4.1314,4.1063,4.0868,4.0616,4.0281,3.9986,3.9882,3.9685,3.9431,3.9419,3.9458,3.9527,3.9596,3.9608,3.9608,3.9596,3.9596,3.9608,3.9608,3.9608,3.9608,3.9514,3.9527,4.4005,4.4005,4.4005,4.4005,4.4005,4.4005,4.4005,4.4005,4.4005,4.3857,4.3695,4.3677,4.3793,4.3986,4.4005,4.4005,4.4005,4.3989,4.3942,4.3974,4.4005,4.3958,4.4005,4.4005,4.3958,4.3989,4.4005,4.3974,4.4005,4.3989,4.3958,4.4005,4.4005,4.4005,4.4005,4.4005,4.4005,4.4005,4.4005,4.4005,4.4005,4.3828,4.3744,4.3876,4.386,4.3825,4.3876,4.4005,4.4005,4.3989,4.3974,4.3974,4.4005,4.3974,4.3989,4.3989,4.3974,4.4005,4.4005,4.4005,4.4005,4.4005,4.4005,4.4005,4.4005,4.4005,4.4005,4.4005,4.4005,4.4005,4.4005,4.4005,4.4005,4.402,4.4101,4.418,4.4266,4.4321,4.4335,4.435,4.4364,4.4364,4.4397,4.4397,4.4426,4.4426,4.4468,4.4482,4.4275,4.4144,4.3474,4.2932,4.2464,4.1978,4.1579,4.1419,4.1287,4.0997,4.0666,4.0115,3.9745,3.9646,3.9608,3.9608,3.9608,3.9608,3.9608,3.9608,3.9608,3.9608,3.9608,3.9608,3.9608,3.9608,3.9608,4.4005,4.4005,4.4005,4.4005,4.4005,4.4005,4.4005,4.4005,4.4005,4.4005,4.3974,4.3974,4.4005,4.4005,4.4005,4.4005,4.4005,4.4005,4.4005,4.4005,4.4005,4.4005,4.4005,4.4005,4.4005,4.4005,4.4005,4.4005,4.4005,4.4005,4.4005,4.4005,4.4005,4.4005,4.4005,4.4005,4.4005,4.4005,4.4005,4.4005,4.4005,4.4005,4.3989,4.3989,4.4005,4.4005,4.4005,4.4005,4.4005,4.4005,4.4005,4.4005,4.4005,4.4005,4.4005,4.4005,4.4005,4.4005,4.4005,4.4005,4.4005,4.4005,4.4005,4.4005,4.4005,4.4005,4.4005,4.4005,4.4005,4.4005,4.4005,4.4005,4.4005,4.4036,4.415,4.4259,4.4358,4.4473,4.4487,4.4501,4.4482,4.4482,4.4482,4.4482,4.4482,4.4482,4.4482,4.4482,4.4463,4.4369,4.4041,4.3657,4.3324,4.2846,4.2492,4.2211,4.2173,4.1911,4.1511,4.0703,4.004,3.9815,3.9664,3.9608,3.9608,3.9608,3.9608,3.9608,3.9608,3.9608,3.9608,3.9608,3.9608,3.9608,3.9608,4.4005,4.4005,4.4005,4.4005,4.4005,4.4005,4.4005,4.4005,4.4005,4.4005,4.4005,4.4005,4.4005,4.4005,4.4005,4.4005,4.4005,4.4005,4.4005,4.4005,4.4005,4.4005,4.4005,4.4005,4.4005,4.4005,4.4005,4.4005,4.4005,4.4005,4.4005,4.4005,4.4005,4.4005,4.4005,4.4005,4.4005,4.4005,4.4005,4.4005,4.4005,4.4005,4.4005,4.4005,4.4005,4.4005,4.4005,4.4005,4.4005,4.4005,4.4005,4.4005,4.4005,4.4005,4.4005,4.4005,4.4005,4.4005,4.4005,4.4005,4.4005,4.4005,4.4005,4.4005,4.4005,4.4005,4.4005,4.4005,4.4005,4.4005,4.4005,4.4005,4.4005,4.407,4.4165,4.4285,4.4383,4.4458,4.4487,4.4501,4.4482,4.4482,4.4482,4.4482,4.4482,4.4482,4.4482,4.4482,4.4482,4.4482,4.4482,4.4257,4.3994,4.4182,4.4013,4.3238,4.2994,4.275,4.2355,4.1529,4.0722,3.9927,3.9758,3.9871,3.9702,3.9608,3.9608,3.9608,3.9608,3.9608,3.9608,3.9608,3.9608,3.9608,3.9608]}]]